Time,TemperatureF,DewpointF,PressureIn,WindDirection,WindDirectionDegrees,WindSpeedMPH,WindSpeedGustMPH,Humidity,HourlyPrecipIn,Conditions,Clouds,dailyrainin,SoftwareType,DateUTC
2013-08-14 00:00:00,81.3,57.9,29.97,SSE,158,1.1,1.6,45,0.00,,---,0.29,VWS V14.01,2013-08-14 05:00:00,
2013-08-14 00:01:00,81.3,57.9,29.97,SSW,202,4.0,4.0,45,0.00,,---,0.00,VWS V14.01,2013-08-14 05:01:00,
2013-08-14 00:02:00,81.3,57.9,29.97,ESE,112,2.0,4.0,45,0.00,,---,0.00,VWS V14.01,2013-08-14 05:02:00,
2013-08-14 00:03:00,81.1,57.8,29.97,SE,135,2.7,4.5,45,0.00,,---,0.00,VWS V14.01,2013-08-14 05:03:00,
2013-08-14 00:04:00,81.1,57.8,29.97,SE,135,2.5,4.3,45,0.00,,---,0.00,VWS V14.01,2013-08-14 05:04:00,
2013-08-14 00:05:00,81.1,57.8,29.97,SE,135,2.5,3.1,45,0.00,,---,0.00,VWS V14.01,2013-08-14 05:05:00,
2013-08-14 00:06:00,81.1,57.8,29.97,SE,135,4.7,5.6,45,0.00,,---,0.00,VWS V14.01,2013-08-14 05:06:00,
2013-08-14 00:07:00,81.1,57.8,29.97,SE,135,2.7,4.9,45,0.00,,---,0.00,VWS V14.01,2013-08-14 05:07:00,
2013-08-14 00:08:00,81.1,58.4,29.97,SE,135,1.6,4.9,46,0.00,,---,0.00,VWS V14.01,2013-08-14 05:08:00,
2013-08-14 00:09:00,81.1,58.4,29.97,South,180,2.7,2.7,46,0.00,,---,0.00,VWS V14.01,2013-08-14 05:09:00,
2013-08-14 00:10:00,81.1,58.4,29.97,SE,135,5.4,5.4,46,0.00,,---,0.00,VWS V14.01,2013-08-14 05:10:00,
2013-08-14 00:11:00,81.1,58.4,29.97,SE,135,3.4,5.4,46,0.00,,---,0.00,VWS V14.01,2013-08-14 05:11:00,
2013-08-14 00:12:00,81.1,58.4,29.97,SE,135,2.7,3.4,46,0.00,,---,0.00,VWS V14.01,2013-08-14 05:12:00,
2013-08-14 00:13:00,81.1,58.4,29.97,SE,135,3.6,4.9,46,0.00,,---,0.00,VWS V14.01,2013-08-14 05:13:00,
2013-08-14 00:14:00,81.1,58.4,29.97,East,90,3.8,3.8,46,0.00,,---,0.00,VWS V14.01,2013-08-14 05:14:00,
2013-08-14 00:15:00,81.1,58.4,29.97,South,180,1.3,3.8,46,0.00,,---,0.00,VWS V14.01,2013-08-14 05:15:00,
2013-08-14 00:16:00,81.1,59.0,29.97,South,180,2.7,4.9,47,0.00,,---,0.00,VWS V14.01,2013-08-14 05:16:00,
2013-08-14 00:17:00,81.1,59.0,29.97,South,180,3.1,3.8,47,0.00,,---,0.00,VWS V14.01,2013-08-14 05:17:00,
2013-08-14 00:18:00,81.1,59.0,29.97,East,90,2.0,5.4,47,0.00,,---,0.00,VWS V14.01,2013-08-14 05:18:00,
2013-08-14 00:19:00,81.1,59.0,29.97,East,90,2.2,3.6,47,0.00,,---,0.00,VWS V14.01,2013-08-14 05:19:00,
2013-08-14 00:20:00,81.1,59.0,29.97,SE,135,2.9,3.8,47,0.00,,---,0.00,VWS V14.01,2013-08-14 05:20:00,
2013-08-14 00:21:00,81.1,59.0,29.97,South,180,2.5,4.3,47,0.00,,---,0.00,VWS V14.01,2013-08-14 05:21:00,
2013-08-14 00:22:00,81.1,59.6,29.97,South,180,6.0,6.0,48,0.00,,---,0.00,VWS V14.01,2013-08-14 05:22:00,
2013-08-14 00:23:00,81.3,59.7,29.97,SE,135,3.1,6.0,48,0.00,,---,0.00,VWS V14.01,2013-08-14 05:23:00,
2013-08-14 00:24:00,81.3,59.7,29.97,East,90,6.9,6.9,48,0.00,,---,0.00,VWS V14.01,2013-08-14 05:24:00,
2013-08-14 00:25:00,81.4,60.5,29.97,East,90,2.5,6.9,49,0.00,,---,0.00,VWS V14.01,2013-08-14 05:25:00,
2013-08-14 00:26:00,81.3,60.3,29.97,SSW,202,1.3,2.5,49,0.00,,---,0.00,VWS V14.01,2013-08-14 05:26:00,
2013-08-14 00:27:00,81.4,60.5,29.97,SSW,202,1.3,4.3,49,0.00,,---,0.00,VWS V14.01,2013-08-14 05:27:00,
2013-08-14 00:28:00,81.4,60.5,29.97,South,180,3.8,3.8,49,0.00,,---,0.00,VWS V14.01,2013-08-14 05:28:00,
2013-08-14 00:29:00,81.4,61.0,29.97,WSW,248,2.7,4.0,50,0.00,,---,0.00,VWS V14.01,2013-08-14 05:29:00,
2013-08-14 00:30:00,81.4,61.0,29.97,East,90,2.5,3.6,50,0.00,,---,0.00,VWS V14.01,2013-08-14 05:30:00,
2013-08-14 00:31:00,81.4,61.0,29.97,South,180,1.3,2.5,50,0.00,,---,0.00,VWS V14.01,2013-08-14 05:31:00,
2013-08-14 00:32:00,81.4,61.6,29.97,SE,135,1.3,1.3,51,0.00,,---,0.00,VWS V14.01,2013-08-14 05:32:00,
2013-08-14 00:33:00,81.4,61.6,29.97,East,90,2.7,5.4,51,0.00,,---,0.00,VWS V14.01,2013-08-14 05:33:00,
2013-08-14 00:34:00,81.4,61.6,29.97,WSW,248,3.4,4.7,51,0.00,,---,0.00,VWS V14.01,2013-08-14 05:34:00,
2013-08-14 00:35:00,81.4,61.6,29.97,SE,135,3.4,5.8,51,0.00,,---,0.00,VWS V14.01,2013-08-14 05:35:00,
2013-08-14 00:36:00,81.6,62.3,29.97,SSW,202,1.3,5.4,52,0.00,,---,0.00,VWS V14.01,2013-08-14 05:36:00,
2013-08-14 00:37:00,81.6,62.3,29.97,South,180,2.5,4.9,52,0.00,,---,0.00,VWS V14.01,2013-08-14 05:37:00,
2013-08-14 00:38:00,81.6,62.8,29.97,SE,135,1.6,4.7,53,0.00,,---,0.00,VWS V14.01,2013-08-14 05:38:00,
2013-08-14 00:39:00,81.6,62.8,29.97,ENE,68,1.6,4.3,53,0.00,,---,0.00,VWS V14.01,2013-08-14 05:39:00,
2013-08-14 00:40:00,81.6,62.8,29.97,South,180,2.9,2.9,53,0.00,,---,0.00,VWS V14.01,2013-08-14 05:40:00,
2013-08-14 00:41:00,81.6,62.8,29.97,ESE,112,3.8,3.8,53,0.00,,---,0.00,VWS V14.01,2013-08-14 05:41:00,
2013-08-14 00:42:00,81.6,62.8,29.97,SE,135,1.6,3.8,53,0.00,,---,0.00,VWS V14.01,2013-08-14 05:42:00,
2013-08-14 00:43:00,81.6,62.8,29.97,East,90,5.8,5.8,53,0.00,,---,0.00,VWS V14.01,2013-08-14 05:43:00,
2013-08-14 00:44:00,81.6,63.4,29.97,North,0,1.3,5.8,54,0.00,,---,0.00,VWS V14.01,2013-08-14 05:44:00,
2013-08-14 00:45:00,81.6,63.9,29.97,East,90,5.4,5.4,55,0.00,,---,0.00,VWS V14.01,2013-08-14 05:45:00,
2013-08-14 00:46:00,81.6,63.9,29.97,East,90,3.4,5.4,55,0.00,,---,0.00,VWS V14.01,2013-08-14 05:46:00,
2013-08-14 00:47:00,81.6,63.9,29.97,WSW,248,5.8,5.8,55,0.00,,---,0.00,VWS V14.01,2013-08-14 05:47:00,
2013-08-14 00:48:00,81.6,63.9,29.97,North,0,2.0,5.8,55,0.00,,---,0.00,VWS V14.01,2013-08-14 05:48:00,
2013-08-14 00:49:00,81.6,63.9,29.97,SE,135,2.5,3.8,55,0.00,,---,0.00,VWS V14.01,2013-08-14 05:49:00,
2013-08-14 00:50:00,81.6,63.9,29.97,SSW,202,4.0,5.4,55,0.00,,---,0.00,VWS V14.01,2013-08-14 05:50:00,
2013-08-14 00:51:00,81.4,63.7,29.97,WSW,248,3.8,4.0,55,0.00,,---,0.00,VWS V14.01,2013-08-14 05:51:00,
2013-08-14 00:52:00,81.4,63.7,29.97,SE,135,2.5,6.0,55,0.00,,---,0.00,VWS V14.01,2013-08-14 05:52:00,
2013-08-14 00:53:00,81.4,64.2,29.97,SSE,158,3.4,3.8,56,0.00,,---,0.00,VWS V14.01,2013-08-14 05:53:00,
2013-08-14 00:54:00,81.4,64.2,29.97,SSE,158,1.3,3.4,56,0.00,,---,0.00,VWS V14.01,2013-08-14 05:54:00,
2013-08-14 00:55:00,81.3,64.1,29.97,East,90,3.1,3.1,56,0.00,,---,0.00,VWS V14.01,2013-08-14 05:55:00,
2013-08-14 00:56:00,81.3,64.6,29.97,ESE,112,2.9,3.4,57,0.00,,---,0.00,VWS V14.01,2013-08-14 05:56:00,
2013-08-14 00:57:00,81.3,64.1,29.97,South,180,2.9,3.1,56,0.00,,---,0.00,VWS V14.01,2013-08-14 05:57:00,
2013-08-14 00:58:00,81.3,64.6,29.97,East,90,1.6,3.1,57,0.00,,---,0.00,VWS V14.01,2013-08-14 05:58:00,
2013-08-14 00:59:00,81.3,64.6,29.97,SSE,158,1.6,1.6,57,0.00,,---,0.00,VWS V14.01,2013-08-14 05:59:00,
2013-08-14 01:00:00,81.1,64.4,29.97,South,180,1.3,2.7,57,0.00,,---,0.00,VWS V14.01,2013-08-14 06:00:00,
2013-08-14 01:01:00,81.3,65.1,29.97,ESE,112,3.6,5.4,58,0.00,,---,0.00,VWS V14.01,2013-08-14 06:01:00,
2013-08-14 01:02:00,81.1,64.9,29.97,SW,225,3.6,5.6,58,0.00,,---,0.00,VWS V14.01,2013-08-14 06:02:00,
2013-08-14 01:03:00,81.1,64.9,29.97,South,180,2.0,3.8,58,0.00,,---,0.00,VWS V14.01,2013-08-14 06:03:00,
2013-08-14 01:04:00,81.1,64.9,29.97,ESE,112,2.0,3.4,58,0.00,,---,0.00,VWS V14.01,2013-08-14 06:04:00,
2013-08-14 01:05:00,81.1,64.9,29.97,SE,135,1.3,2.0,58,0.00,,---,0.00,VWS V14.01,2013-08-14 06:05:00,
2013-08-14 01:06:00,81.1,65.4,29.97,SSE,158,2.5,5.4,59,0.00,,---,0.00,VWS V14.01,2013-08-14 06:06:00,
2013-08-14 01:07:00,81.1,65.4,29.97,North,0,6.5,6.5,59,0.00,,---,0.00,VWS V14.01,2013-08-14 06:07:00,
2013-08-14 01:08:00,81.1,65.9,29.97,SSW,202,6.7,6.9,60,0.00,,---,0.00,VWS V14.01,2013-08-14 06:08:00,
2013-08-14 01:09:00,81.1,65.9,29.97,SSW,202,3.8,8.5,60,0.00,,---,0.00,VWS V14.01,2013-08-14 06:09:00,
2013-08-14 01:10:00,81.1,65.4,29.97,SE,135,2.7,3.8,59,0.00,,---,0.00,VWS V14.01,2013-08-14 06:10:00,
2013-08-14 01:11:00,81.1,65.4,29.97,SW,225,4.9,4.9,59,0.00,,---,0.00,VWS V14.01,2013-08-14 06:11:00,
2013-08-14 01:12:00,81.1,65.4,29.97,East,90,2.7,5.4,59,0.00,,---,0.00,VWS V14.01,2013-08-14 06:12:00,
2013-08-14 01:13:00,81.1,65.9,29.97,SSE,158,2.7,4.9,60,0.00,,---,0.00,VWS V14.01,2013-08-14 06:13:00,
2013-08-14 01:14:00,81.1,65.9,29.97,South,180,2.7,2.9,60,0.00,,---,0.00,VWS V14.01,2013-08-14 06:14:00,
2013-08-14 01:15:00,81.1,65.9,29.97,South,180,3.6,4.3,60,0.00,,---,0.00,VWS V14.01,2013-08-14 06:15:00,
2013-08-14 01:16:00,81.1,65.9,29.97,SSE,158,7.8,7.8,60,0.00,,---,0.00,VWS V14.01,2013-08-14 06:16:00,
2013-08-14 01:17:00,81.1,65.9,29.97,South,180,7.4,7.8,60,0.00,,---,0.00,VWS V14.01,2013-08-14 06:17:00,
2013-08-14 01:18:00,81.1,65.9,29.97,WSW,248,2.0,7.4,60,0.00,,---,0.00,VWS V14.01,2013-08-14 06:18:00,
2013-08-14 01:19:00,81.1,65.9,29.97,SE,135,4.3,4.3,60,0.00,,---,0.00,VWS V14.01,2013-08-14 06:19:00,
2013-08-14 01:20:00,80.9,65.7,29.97,SE,135,1.6,4.3,60,0.00,,---,0.00,VWS V14.01,2013-08-14 06:20:00,
2013-08-14 01:21:00,80.9,65.7,29.97,South,180,2.0,3.6,60,0.00,,---,0.00,VWS V14.01,2013-08-14 06:21:00,
2013-08-14 01:22:00,80.9,65.7,29.97,SE,135,1.3,3.8,60,0.00,,---,0.00,VWS V14.01,2013-08-14 06:22:00,
2013-08-14 01:23:00,80.9,65.7,29.97,SE,135,3.1,3.8,60,0.00,,---,0.00,VWS V14.01,2013-08-14 06:23:00,
2013-08-14 01:24:00,80.7,65.6,29.97,South,180,2.0,3.1,60,0.00,,---,0.00,VWS V14.01,2013-08-14 06:24:00,
2013-08-14 01:25:00,80.7,65.6,29.97,NE,45,4.3,8.5,60,0.00,,---,0.00,VWS V14.01,2013-08-14 06:25:00,
2013-08-14 01:26:00,80.7,66.0,29.97,South,180,2.5,4.3,61,0.00,,---,0.00,VWS V14.01,2013-08-14 06:26:00,
2013-08-14 01:27:00,80.7,65.6,29.97,SSW,202,1.3,3.6,60,0.00,,---,0.00,VWS V14.01,2013-08-14 06:27:00,
2013-08-14 01:28:00,80.7,65.6,29.97,East,90,0.0,2.7,60,0.00,,---,0.00,VWS V14.01,2013-08-14 06:28:00,
2013-08-14 01:29:00,80.6,65.4,29.97,East,90,0.9,1.1,60,0.00,,---,0.00,VWS V14.01,2013-08-14 06:29:00,
2013-08-14 01:30:00,80.6,65.4,29.97,North,0,2.9,2.9,60,0.00,,---,0.00,VWS V14.01,2013-08-14 06:30:00,
2013-08-14 01:31:00,80.4,65.2,29.97,East,90,0.0,2.9,60,0.00,,---,0.00,VWS V14.01,2013-08-14 06:31:00,
2013-08-14 01:32:00,80.4,65.2,29.97,NNE,22,1.3,2.0,60,0.00,,---,0.00,VWS V14.01,2013-08-14 06:32:00,
2013-08-14 01:33:00,80.2,65.1,29.97,East,90,0.0,1.3,60,0.00,,---,0.00,VWS V14.01,2013-08-14 06:33:00,
2013-08-14 01:34:00,80.2,65.1,29.97,East,90,2.5,2.5,60,0.00,,---,0.00,VWS V14.01,2013-08-14 06:34:00,
2013-08-14 01:35:00,80.2,65.1,29.97,NE,45,2.2,2.5,60,0.00,,---,0.00,VWS V14.01,2013-08-14 06:35:00,
2013-08-14 01:36:00,80.0,64.9,29.97,North,0,1.3,2.2,60,0.00,,---,0.00,VWS V14.01,2013-08-14 06:36:00,
2013-08-14 01:37:00,80.0,64.9,29.97,NW,315,2.9,3.1,60,0.00,,---,0.00,VWS V14.01,2013-08-14 06:37:00,
2013-08-14 01:38:00,80.0,65.4,29.97,NW,315,3.6,3.6,61,0.00,,---,0.00,VWS V14.01,2013-08-14 06:38:00,
2013-08-14 01:39:00,80.0,65.4,29.97,WNW,292,3.1,4.3,61,0.00,,---,0.00,VWS V14.01,2013-08-14 06:39:00,
2013-08-14 01:40:00,80.0,65.4,29.97,NW,315,2.7,3.1,61,0.00,,---,0.00,VWS V14.01,2013-08-14 06:40:00,
2013-08-14 01:41:00,80.0,65.4,29.97,South,180,0.0,2.7,61,0.00,,---,0.00,VWS V14.01,2013-08-14 06:41:00,
2013-08-14 01:42:00,80.0,65.8,29.97,WSW,248,2.7,7.2,62,0.00,,---,0.00,VWS V14.01,2013-08-14 06:42:00,
2013-08-14 01:43:00,80.0,65.8,29.97,NE,45,2.2,2.9,62,0.00,,---,0.00,VWS V14.01,2013-08-14 06:43:00,
2013-08-14 01:44:00,80.0,65.8,29.97,North,0,2.0,2.2,62,0.00,,---,0.00,VWS V14.01,2013-08-14 06:44:00,
2013-08-14 01:45:00,80.0,65.4,29.97,SSW,202,0.0,2.2,61,0.00,,---,0.00,VWS V14.01,2013-08-14 06:45:00,
2013-08-14 01:46:00,80.0,65.8,29.97,SW,225,0.9,2.5,62,0.00,,---,0.00,VWS V14.01,2013-08-14 06:46:00,
2013-08-14 01:47:00,79.8,65.2,29.97,SW,225,0.0,0.9,61,0.00,,---,0.00,VWS V14.01,2013-08-14 06:47:00,
2013-08-14 01:48:00,79.8,65.2,29.97,SW,225,0.0,0.9,61,0.00,,---,0.00,VWS V14.01,2013-08-14 06:48:00,
2013-08-14 01:49:00,79.8,65.7,29.97,North,0,2.0,2.0,62,0.00,,---,0.00,VWS V14.01,2013-08-14 06:49:00,
2013-08-14 01:50:00,79.7,65.0,29.97,North,0,2.5,2.5,61,0.00,,---,0.00,VWS V14.01,2013-08-14 06:50:00,
2013-08-14 01:51:00,79.7,65.5,29.97,North,0,3.6,3.6,62,0.00,,---,0.00,VWS V14.01,2013-08-14 06:51:00,
2013-08-14 01:52:00,79.8,66.1,29.97,North,0,3.8,3.8,63,0.00,,---,0.00,VWS V14.01,2013-08-14 06:52:00,
2013-08-14 01:53:00,79.7,66.0,29.97,NE,45,2.2,3.8,63,0.00,,---,0.00,VWS V14.01,2013-08-14 06:53:00,
2013-08-14 01:54:00,79.7,65.5,29.97,NE,45,0.0,2.2,62,0.00,,---,0.00,VWS V14.01,2013-08-14 06:54:00,
2013-08-14 01:55:00,79.7,65.5,29.97,NNE,22,2.7,2.7,62,0.00,,---,0.00,VWS V14.01,2013-08-14 06:55:00,
2013-08-14 01:56:00,79.5,65.8,29.97,ENE,68,2.0,2.7,63,0.00,,---,0.00,VWS V14.01,2013-08-14 06:56:00,
2013-08-14 01:57:00,79.5,65.8,29.97,NNE,22,3.4,3.4,63,0.00,,---,0.00,VWS V14.01,2013-08-14 06:57:00,
2013-08-14 01:58:00,79.5,65.3,29.97,North,0,2.9,3.6,62,0.00,,---,0.00,VWS V14.01,2013-08-14 06:58:00,
2013-08-14 01:59:00,79.5,65.8,29.97,NNE,22,2.7,3.1,63,0.00,,---,0.00,VWS V14.01,2013-08-14 06:59:00,
2013-08-14 02:00:00,79.5,65.8,29.97,North,0,4.3,4.3,63,0.00,,---,0.00,VWS V14.01,2013-08-14 07:00:00,
2013-08-14 02:01:00,79.5,65.8,29.97,North,0,2.5,4.3,63,0.00,,---,0.00,VWS V14.01,2013-08-14 07:01:00,
2013-08-14 02:02:00,79.5,65.8,29.97,North,0,2.2,2.5,63,0.00,,---,0.00,VWS V14.01,2013-08-14 07:02:00,
2013-08-14 02:03:00,79.3,65.6,29.97,North,0,2.2,2.5,63,0.00,,---,0.00,VWS V14.01,2013-08-14 07:03:00,
2013-08-14 02:04:00,79.3,65.6,29.97,NNW,338,3.6,3.6,63,0.00,,---,0.00,VWS V14.01,2013-08-14 07:04:00,
2013-08-14 02:05:00,79.3,66.1,29.97,NNW,338,2.9,3.6,64,0.00,,---,0.00,VWS V14.01,2013-08-14 07:05:00,
2013-08-14 02:06:00,79.3,66.1,29.97,North,0,2.0,2.9,64,0.00,,---,0.00,VWS V14.01,2013-08-14 07:06:00,
2013-08-14 02:07:00,79.3,66.1,29.97,NNE,22,2.7,2.7,64,0.00,,---,0.00,VWS V14.01,2013-08-14 07:07:00,
2013-08-14 02:08:00,79.1,65.9,29.97,NNE,22,1.1,2.7,64,0.00,,---,0.00,VWS V14.01,2013-08-14 07:08:00,
2013-08-14 02:09:00,79.1,65.5,29.97,East,90,1.6,2.0,63,0.00,,---,0.00,VWS V14.01,2013-08-14 07:09:00,
2013-08-14 02:10:00,79.1,66.4,29.97,NE,45,3.1,3.1,65,0.00,,---,0.00,VWS V14.01,2013-08-14 07:10:00,
2013-08-14 02:11:00,79.1,65.9,29.97,ENE,68,1.6,3.1,64,0.00,,---,0.00,VWS V14.01,2013-08-14 07:11:00,
2013-08-14 02:12:00,79.1,65.5,29.97,ENE,68,1.1,1.6,63,0.00,,---,0.00,VWS V14.01,2013-08-14 07:12:00,
2013-08-14 02:13:00,79.1,65.5,29.97,SE,135,2.0,2.5,63,0.00,,---,0.00,VWS V14.01,2013-08-14 07:13:00,
2013-08-14 02:14:00,79.1,65.9,29.97,East,90,5.8,5.8,64,0.00,,---,0.00,VWS V14.01,2013-08-14 07:14:00,
2013-08-14 02:15:00,79.1,66.4,29.97,NNE,22,2.0,5.8,65,0.00,,---,0.00,VWS V14.01,2013-08-14 07:15:00,
2013-08-14 02:16:00,79.3,66.1,29.97,ESE,112,1.6,2.0,64,0.00,,---,0.00,VWS V14.01,2013-08-14 07:16:00,
2013-08-14 02:17:00,79.3,66.1,29.97,ESE,112,1.3,2.7,64,0.00,,---,0.00,VWS V14.01,2013-08-14 07:17:00,
2013-08-14 02:18:00,79.1,65.9,29.97,ESE,112,0.0,1.3,64,0.00,,---,0.00,VWS V14.01,2013-08-14 07:18:00,
2013-08-14 02:19:00,79.1,65.9,29.97,ESE,112,0.0,0.9,64,0.00,,---,0.00,VWS V14.01,2013-08-14 07:19:00,
2013-08-14 02:20:00,79.1,65.9,29.97,ESE,112,0.0,0.0,64,0.00,,---,0.00,VWS V14.01,2013-08-14 07:20:00,
2013-08-14 02:21:00,79.1,65.9,29.97,ESE,112,0.0,0.0,64,0.00,,---,0.00,VWS V14.01,2013-08-14 07:21:00,
2013-08-14 02:22:00,79.1,66.4,29.97,ESE,112,0.0,0.0,65,0.00,,---,0.00,VWS V14.01,2013-08-14 07:22:00,
2013-08-14 02:23:00,79.5,67.1,29.97,ESE,112,0.0,0.0,66,0.00,,---,0.00,VWS V14.01,2013-08-14 07:23:00,
2013-08-14 02:24:00,79.5,66.7,29.97,ESE,112,0.0,0.0,65,0.00,,---,0.00,VWS V14.01,2013-08-14 07:24:00,
2013-08-14 02:25:00,79.5,66.7,29.97,ESE,112,0.0,0.0,65,0.00,,---,0.00,VWS V14.01,2013-08-14 07:25:00,
2013-08-14 02:26:00,79.5,66.7,29.97,ESE,112,0.0,0.0,65,0.00,,---,0.00,VWS V14.01,2013-08-14 07:26:00,
2013-08-14 02:27:00,79.3,66.5,29.97,ESE,112,0.0,0.0,65,0.00,,---,0.00,VWS V14.01,2013-08-14 07:27:00,
2013-08-14 02:28:00,79.3,66.5,29.97,ESE,112,0.0,0.0,65,0.00,,---,0.00,VWS V14.01,2013-08-14 07:28:00,
2013-08-14 02:29:00,79.3,66.5,29.97,ESE,112,0.0,0.0,65,0.00,,---,0.00,VWS V14.01,2013-08-14 07:29:00,
2013-08-14 02:30:00,79.3,66.5,29.97,ESE,112,0.0,0.0,65,0.00,,---,0.00,VWS V14.01,2013-08-14 07:30:00,
2013-08-14 02:31:00,79.1,66.4,29.97,ESE,112,0.0,0.0,65,0.00,,---,0.00,VWS V14.01,2013-08-14 07:31:00,
2013-08-14 02:32:00,79.1,66.4,29.97,ESE,112,0.0,0.0,65,0.00,,---,0.00,VWS V14.01,2013-08-14 07:32:00,
2013-08-14 02:33:00,79.3,66.5,29.97,ESE,112,0.0,0.0,65,0.00,,---,0.00,VWS V14.01,2013-08-14 07:33:00,
2013-08-14 02:34:00,79.3,66.5,29.97,ESE,112,0.0,0.0,65,0.00,,---,0.00,VWS V14.01,2013-08-14 07:34:00,
2013-08-14 02:35:00,79.3,66.5,29.97,ESE,112,0.0,0.0,65,0.00,,---,0.00,VWS V14.01,2013-08-14 07:35:00,
2013-08-14 02:36:00,79.3,66.5,29.97,ESE,112,0.0,0.0,65,0.00,,---,0.00,VWS V14.01,2013-08-14 07:36:00,
2013-08-14 02:37:00,79.1,66.4,29.97,ESE,112,0.0,0.0,65,0.00,,---,0.00,VWS V14.01,2013-08-14 07:37:00,
2013-08-14 02:38:00,79.1,66.8,29.97,ESE,112,0.0,0.0,66,0.00,,---,0.00,VWS V14.01,2013-08-14 07:38:00,
2013-08-14 02:39:00,79.1,66.4,29.97,ESE,112,0.0,0.0,65,0.00,,---,0.00,VWS V14.01,2013-08-14 07:39:00,
2013-08-14 02:40:00,79.1,66.4,29.97,ESE,112,0.0,0.0,65,0.00,,---,0.00,VWS V14.01,2013-08-14 07:40:00,
2013-08-14 02:41:00,79.1,66.4,29.97,ESE,112,0.0,0.0,65,0.00,,---,0.00,VWS V14.01,2013-08-14 07:41:00,
2013-08-14 02:42:00,79.1,66.8,29.97,ESE,112,0.0,0.0,66,0.00,,---,0.00,VWS V14.01,2013-08-14 07:42:00,
2013-08-14 02:43:00,79.1,66.4,29.97,ESE,112,0.0,0.0,65,0.00,,---,0.00,VWS V14.01,2013-08-14 07:43:00,
2013-08-14 02:44:00,79.1,66.4,29.97,ESE,112,0.0,0.0,65,0.00,,---,0.00,VWS V14.01,2013-08-14 07:44:00,
2013-08-14 02:45:00,78.9,66.2,29.97,ESE,112,0.0,0.0,65,0.00,,---,0.00,VWS V14.01,2013-08-14 07:45:00,
2013-08-14 02:46:00,78.8,66.0,29.97,South,180,0.0,0.0,65,0.00,,---,0.00,VWS V14.01,2013-08-14 07:46:00,
2013-08-14 02:47:00,78.8,66.0,29.97,South,180,0.0,0.0,65,0.00,,---,0.00,VWS V14.01,2013-08-14 07:47:00,
2013-08-14 02:48:00,78.8,66.0,29.97,South,180,0.0,0.0,65,0.00,,---,0.00,VWS V14.01,2013-08-14 07:48:00,
2013-08-14 02:49:00,78.6,65.9,29.97,South,180,0.0,0.0,65,0.00,,---,0.00,VWS V14.01,2013-08-14 07:49:00,
2013-08-14 02:50:00,78.6,65.4,29.97,South,180,0.0,0.0,64,0.00,,---,0.00,VWS V14.01,2013-08-14 07:50:00,
2013-08-14 02:51:00,78.6,65.9,29.97,South,180,0.0,0.0,65,0.00,,---,0.00,VWS V14.01,2013-08-14 07:51:00,
2013-08-14 02:52:00,78.6,65.9,29.97,South,180,0.0,0.0,65,0.00,,---,0.00,VWS V14.01,2013-08-14 07:52:00,
2013-08-14 02:53:00,78.6,65.9,29.97,South,180,0.0,0.0,65,0.00,,---,0.00,VWS V14.01,2013-08-14 07:53:00,
2013-08-14 02:54:00,78.6,65.9,29.97,South,180,0.0,0.0,65,0.00,,---,0.00,VWS V14.01,2013-08-14 07:54:00,
2013-08-14 02:55:00,78.6,65.9,29.97,South,180,0.0,0.0,65,0.00,,---,0.00,VWS V14.01,2013-08-14 07:55:00,
2013-08-14 02:56:00,78.4,65.7,29.97,South,180,0.0,0.0,65,0.00,,---,0.00,VWS V14.01,2013-08-14 07:56:00,
2013-08-14 02:57:00,78.4,65.7,29.97,South,180,0.0,0.0,65,0.00,,---,0.00,VWS V14.01,2013-08-14 07:57:00,
2013-08-14 02:58:00,78.4,65.7,29.97,South,180,0.0,0.0,65,0.00,,---,0.00,VWS V14.01,2013-08-14 07:58:00,
2013-08-14 02:59:00,78.4,65.2,29.97,South,180,0.0,0.0,64,0.00,,---,0.00,VWS V14.01,2013-08-14 07:59:00,
2013-08-14 03:00:00,78.4,65.7,29.97,South,180,0.0,0.0,65,0.00,,---,0.00,VWS V14.01,2013-08-14 08:00:00,
2013-08-14 03:01:00,78.2,65.5,29.97,South,180,0.0,0.0,65,0.00,,---,0.00,VWS V14.01,2013-08-14 08:01:00,
2013-08-14 03:02:00,78.2,65.5,29.97,South,180,0.0,0.0,65,0.00,,---,0.00,VWS V14.01,2013-08-14 08:02:00,
2013-08-14 03:03:00,78.1,65.4,29.97,South,180,0.0,0.0,65,0.00,,---,0.00,VWS V14.01,2013-08-14 08:03:00,
2013-08-14 03:04:00,78.1,65.4,29.97,South,180,0.0,0.0,65,0.00,,---,0.00,VWS V14.01,2013-08-14 08:04:00,
2013-08-14 03:05:00,78.1,65.4,29.97,South,180,0.0,0.0,65,0.00,,---,0.00,VWS V14.01,2013-08-14 08:05:00,
2013-08-14 03:06:00,78.1,65.4,29.97,South,180,0.0,0.0,65,0.00,,---,0.00,VWS V14.01,2013-08-14 08:06:00,
2013-08-14 03:07:00,78.1,65.4,29.97,South,180,0.0,0.0,65,0.00,,---,0.00,VWS V14.01,2013-08-14 08:07:00,
2013-08-14 03:08:00,77.9,65.2,29.97,South,180,0.0,0.0,65,0.00,,---,0.00,VWS V14.01,2013-08-14 08:08:00,
2013-08-14 03:09:00,77.9,65.2,29.97,South,180,0.0,0.0,65,0.00,,---,0.00,VWS V14.01,2013-08-14 08:09:00,
2013-08-14 03:10:00,77.9,65.2,29.97,South,180,0.0,0.0,65,0.00,,---,0.00,VWS V14.01,2013-08-14 08:10:00,
2013-08-14 03:11:00,77.9,65.2,29.97,South,180,0.0,0.0,65,0.00,,---,0.00,VWS V14.01,2013-08-14 08:11:00,
2013-08-14 03:12:00,77.9,65.6,29.97,South,180,0.0,0.0,66,0.00,,---,0.00,VWS V14.01,2013-08-14 08:12:00,
2013-08-14 03:13:00,77.9,65.2,29.97,South,180,0.0,0.0,65,0.00,,---,0.00,VWS V14.01,2013-08-14 08:13:00,
2013-08-14 03:14:00,77.7,65.5,29.97,South,180,0.0,0.0,66,0.00,,---,0.00,VWS V14.01,2013-08-14 08:14:00,
2013-08-14 03:15:00,77.7,66.3,29.97,South,180,0.0,0.0,68,0.00,,---,0.00,VWS V14.01,2013-08-14 08:15:00,
2013-08-14 03:16:00,77.7,65.5,29.97,North,0,2.0,2.0,66,0.00,,---,0.00,VWS V14.01,2013-08-14 08:16:00,
2013-08-14 03:17:00,77.7,65.5,29.97,North,0,1.1,2.0,66,0.00,,---,0.00,VWS V14.01,2013-08-14 08:17:00,
2013-08-14 03:18:00,77.7,65.9,29.97,NW,315,0.0,1.1,67,0.00,,---,0.00,VWS V14.01,2013-08-14 08:18:00,
2013-08-14 03:19:00,77.7,65.9,29.97,NW,315,0.0,0.0,67,0.00,,---,0.00,VWS V14.01,2013-08-14 08:19:00,
2013-08-14 03:20:00,77.7,65.5,29.97,NE,45,0.9,1.1,66,0.00,,---,0.00,VWS V14.01,2013-08-14 08:20:00,
2013-08-14 03:21:00,77.7,65.9,29.97,ENE,68,2.5,2.5,67,0.00,,---,0.00,VWS V14.01,2013-08-14 08:21:00,
2013-08-14 03:22:00,77.9,65.6,29.97,ENE,68,1.1,2.5,66,0.00,,---,0.00,VWS V14.01,2013-08-14 08:22:00,
2013-08-14 03:23:00,77.9,65.6,29.97,ENE,68,1.1,1.1,66,0.00,,---,0.00,VWS V14.01,2013-08-14 08:23:00,
2013-08-14 03:24:00,77.9,66.1,29.97,ENE,68,1.1,1.1,67,0.00,,---,0.00,VWS V14.01,2013-08-14 08:24:00,
2013-08-14 03:25:00,77.9,66.1,29.97,ENE,68,1.1,1.1,67,0.00,,---,0.00,VWS V14.01,2013-08-14 08:25:00,
2013-08-14 03:26:00,77.9,66.1,29.97,ENE,68,1.1,1.1,67,0.00,,---,0.00,VWS V14.01,2013-08-14 08:26:00,
2013-08-14 03:27:00,77.9,66.1,29.97,ENE,68,1.1,1.1,67,0.00,,---,0.00,VWS V14.01,2013-08-14 08:27:00,
2013-08-14 03:28:00,77.7,65.9,29.97,ENE,68,1.1,1.1,67,0.00,,---,0.00,VWS V14.01,2013-08-14 08:28:00,
2013-08-14 03:29:00,77.7,65.9,29.97,ENE,68,1.1,1.1,67,0.00,,---,0.00,VWS V14.01,2013-08-14 08:29:00,
2013-08-14 03:30:00,77.7,65.9,29.97,ENE,68,1.1,1.1,67,0.00,,---,0.00,VWS V14.01,2013-08-14 08:30:00,
2013-08-14 03:31:00,77.5,65.7,29.97,ENE,68,1.1,1.1,67,0.00,,---,0.29,VWS V14.01,2013-08-14 08:31:00,
2013-08-14 03:32:00,77.5,65.7,29.97,ENE,68,1.1,1.1,67,0.00,,---,0.00,VWS V14.01,2013-08-14 08:32:00,
2013-08-14 03:33:00,77.5,65.7,29.97,ENE,68,1.1,1.1,67,0.00,,---,0.00,VWS V14.01,2013-08-14 08:33:00,
2013-08-14 03:34:00,77.5,65.7,29.97,ENE,68,1.1,1.1,67,0.00,,---,0.00,VWS V14.01,2013-08-14 08:34:00,
2013-08-14 03:35:00,77.5,65.7,29.97,ENE,68,1.1,1.1,67,0.00,,---,0.00,VWS V14.01,2013-08-14 08:35:00,
2013-08-14 03:36:00,77.5,65.7,29.97,ENE,68,1.1,1.1,67,0.00,,---,0.00,VWS V14.01,2013-08-14 08:36:00,
2013-08-14 03:37:00,77.5,65.7,29.97,ENE,68,1.1,1.1,67,0.00,,---,0.00,VWS V14.01,2013-08-14 08:37:00,
2013-08-14 03:38:00,77.5,66.2,29.97,ENE,68,1.1,1.1,68,0.00,,---,0.00,VWS V14.01,2013-08-14 08:38:00,
2013-08-14 03:39:00,77.5,65.7,29.97,ENE,68,1.1,1.1,67,0.00,,---,0.00,VWS V14.01,2013-08-14 08:39:00,
2013-08-14 03:40:00,77.4,65.6,29.97,ENE,68,1.1,1.1,67,0.00,,---,0.00,VWS V14.01,2013-08-14 08:40:00,
2013-08-14 03:41:00,77.4,66.0,29.97,ENE,68,1.1,1.1,68,0.00,,---,0.00,VWS V14.01,2013-08-14 08:41:00,
2013-08-14 03:42:00,77.4,66.0,29.97,ENE,68,1.1,1.1,68,0.00,,---,0.00,VWS V14.01,2013-08-14 08:42:00,
2013-08-14 03:43:00,77.4,66.0,29.97,ENE,68,1.1,1.1,68,0.00,,---,0.00,VWS V14.01,2013-08-14 08:43:00,
2013-08-14 03:44:00,77.4,66.0,29.97,ENE,68,1.1,1.1,68,0.00,,---,0.00,VWS V14.01,2013-08-14 08:44:00,
2013-08-14 03:45:00,77.4,66.0,29.97,ENE,68,1.1,1.1,68,0.00,,---,0.00,VWS V14.01,2013-08-14 08:45:00,
2013-08-14 03:46:00,77.2,65.8,29.97,ENE,68,1.1,1.1,68,0.00,,---,0.00,VWS V14.01,2013-08-14 08:46:00,
2013-08-14 03:47:00,77.2,66.2,29.97,ENE,68,1.1,1.1,69,0.00,,---,0.00,VWS V14.01,2013-08-14 08:47:00,
2013-08-14 03:48:00,77.2,66.2,29.97,ENE,68,1.1,1.1,69,0.00,,---,0.00,VWS V14.01,2013-08-14 08:48:00,
2013-08-14 03:49:00,77.2,65.8,29.97,ENE,68,1.1,1.1,68,0.00,,---,0.00,VWS V14.01,2013-08-14 08:49:00,
2013-08-14 03:50:00,77.4,66.4,29.97,ENE,68,1.1,1.1,69,0.00,,---,0.00,VWS V14.01,2013-08-14 08:50:00,
2013-08-14 03:51:00,77.4,66.4,29.97,ENE,68,1.1,1.1,69,0.00,,---,0.00,VWS V14.01,2013-08-14 08:51:00,
2013-08-14 03:52:00,77.4,66.8,29.97,South,180,0.9,1.6,70,0.00,,---,0.00,VWS V14.01,2013-08-14 08:52:00,
2013-08-14 03:53:00,77.4,66.8,29.97,South,180,2.0,2.0,70,0.00,,---,0.00,VWS V14.01,2013-08-14 08:53:00,
2013-08-14 03:54:00,77.5,67.0,29.97,South,180,1.3,3.8,70,0.00,,---,0.00,VWS V14.01,2013-08-14 08:54:00,
2013-08-14 03:55:00,77.5,67.0,29.97,South,180,0.0,1.3,70,0.00,,---,0.00,VWS V14.01,2013-08-14 08:55:00,
2013-08-14 03:56:00,77.5,67.0,29.97,South,180,0.0,0.0,70,0.00,,---,0.00,VWS V14.01,2013-08-14 08:56:00,
2013-08-14 03:57:00,77.5,66.6,29.97,South,180,0.0,0.0,69,0.00,,---,0.00,VWS V14.01,2013-08-14 08:57:00,
2013-08-14 03:58:00,77.4,66.4,29.97,South,180,0.0,0.0,69,0.00,,---,0.00,VWS V14.01,2013-08-14 08:58:00,
2013-08-14 03:59:00,77.4,66.4,29.97,South,180,0.0,0.0,69,0.00,,---,0.00,VWS V14.01,2013-08-14 08:59:00,
2013-08-14 04:00:00,77.4,66.4,29.97,South,180,2.0,2.2,69,0.00,,---,0.29,VWS V14.01,2013-08-14 09:00:00,
2013-08-14 04:01:00,77.4,66.8,29.97,South,180,0.0,2.0,70,0.00,,---,0.00,VWS V14.01,2013-08-14 09:01:00,
2013-08-14 04:02:00,77.4,66.8,29.97,South,180,0.0,2.2,70,0.00,,---,0.00,VWS V14.01,2013-08-14 09:02:00,
2013-08-14 04:03:00,77.4,66.8,29.97,South,180,1.3,1.3,70,0.00,,---,0.00,VWS V14.01,2013-08-14 09:03:00,
2013-08-14 04:04:00,77.5,67.0,29.97,South,180,0.0,1.6,70,0.00,,---,0.00,VWS V14.01,2013-08-14 09:04:00,
2013-08-14 04:05:00,77.5,67.4,29.97,SW,225,3.4,3.4,71,0.00,,---,0.00,VWS V14.01,2013-08-14 09:05:00,
2013-08-14 04:06:00,77.7,67.6,29.97,SSW,202,6.0,6.0,71,0.00,,---,0.00,VWS V14.01,2013-08-14 09:06:00,
2013-08-14 04:07:00,77.7,67.6,29.97,South,180,0.9,6.0,71,0.00,,---,0.00,VWS V14.01,2013-08-14 09:07:00,
2013-08-14 04:08:00,77.9,67.3,29.97,South,180,0.0,0.9,70,0.00,,---,0.00,VWS V14.01,2013-08-14 09:08:00,
2013-08-14 04:09:00,77.9,66.9,29.97,South,180,1.1,1.3,69,0.00,,---,0.00,VWS V14.01,2013-08-14 09:09:00,
2013-08-14 04:10:00,77.9,66.9,29.97,South,180,0.9,1.1,69,0.00,,---,0.00,VWS V14.01,2013-08-14 09:10:00,
2013-08-14 04:11:00,77.9,66.9,29.97,South,180,1.6,1.6,69,0.00,,---,0.00,VWS V14.01,2013-08-14 09:11:00,
2013-08-14 04:12:00,77.9,66.9,29.97,South,180,1.6,1.6,69,0.00,,---,0.00,VWS V14.01,2013-08-14 09:12:00,
2013-08-14 04:13:00,77.9,66.9,29.97,SSW,202,0.0,1.6,69,0.00,,---,0.00,VWS V14.01,2013-08-14 09:13:00,
2013-08-14 04:14:00,77.9,66.9,29.97,ESE,112,0.0,1.6,69,0.00,,---,0.00,VWS V14.01,2013-08-14 09:14:00,
2013-08-14 04:15:00,77.7,66.7,29.97,ESE,112,0.0,0.0,69,0.00,,---,0.00,VWS V14.01,2013-08-14 09:15:00,
2013-08-14 04:16:00,77.7,66.7,29.97,ESE,112,0.0,0.0,69,0.00,,---,0.00,VWS V14.01,2013-08-14 09:16:00,
2013-08-14 04:17:00,77.5,66.6,29.97,South,180,0.9,1.6,69,0.00,,---,0.00,VWS V14.01,2013-08-14 09:17:00,
2013-08-14 04:18:00,77.7,67.2,29.97,South,180,3.4,3.8,70,0.00,,---,0.00,VWS V14.01,2013-08-14 09:18:00,
2013-08-14 04:19:00,77.9,67.3,29.97,South,180,2.7,3.4,70,0.00,,---,0.00,VWS V14.01,2013-08-14 09:19:00,
2013-08-14 04:20:00,77.9,67.3,29.97,South,180,1.3,2.7,70,0.00,,---,0.00,VWS V14.01,2013-08-14 09:20:00,
2013-08-14 04:21:00,77.9,67.3,29.97,South,180,0.0,1.3,70,0.00,,---,0.00,VWS V14.01,2013-08-14 09:21:00,
2013-08-14 04:22:00,77.9,66.9,29.97,South,180,0.0,0.0,69,0.00,,---,0.00,VWS V14.01,2013-08-14 09:22:00,
2013-08-14 04:23:00,77.7,66.7,29.97,ESE,112,0.9,1.1,69,0.00,,---,0.00,VWS V14.01,2013-08-14 09:23:00,
2013-08-14 04:24:00,77.7,66.7,29.97,ESE,112,0.0,0.9,69,0.00,,---,0.00,VWS V14.01,2013-08-14 09:24:00,
2013-08-14 04:25:00,77.5,66.6,29.97,ESE,112,0.0,0.0,69,0.00,,---,0.00,VWS V14.01,2013-08-14 09:25:00,
2013-08-14 04:26:00,77.5,66.6,29.97,ESE,112,0.9,0.9,69,0.00,,---,0.00,VWS V14.01,2013-08-14 09:26:00,
2013-08-14 04:27:00,77.5,66.6,29.97,SSW,202,1.6,1.6,69,0.00,,---,0.00,VWS V14.01,2013-08-14 09:27:00,
2013-08-14 04:28:00,77.5,66.6,29.97,South,180,0.0,1.6,69,0.00,,---,0.00,VWS V14.01,2013-08-14 09:28:00,
2013-08-14 04:29:00,77.5,66.6,29.97,SE,135,0.0,2.7,69,0.00,,---,0.00,VWS V14.01,2013-08-14 09:29:00,
2013-08-14 04:30:00,77.5,66.6,29.97,South,180,0.0,0.0,69,0.00,,---,0.00,VWS V14.01,2013-08-14 09:30:00,
2013-08-14 04:31:00,77.4,66.4,29.97,ESE,112,0.0,0.9,69,0.00,,---,0.00,VWS V14.01,2013-08-14 09:31:00,
2013-08-14 04:32:00,77.4,66.4,29.97,SSW,202,0.0,0.0,69,0.00,,---,0.00,VWS V14.01,2013-08-14 09:32:00,
2013-08-14 04:33:00,77.4,66.8,29.97,South,180,1.3,1.3,70,0.00,,---,0.29,VWS V14.01,2013-08-14 09:33:00,
2013-08-14 04:34:00,77.4,66.4,29.97,SSW,202,0.0,0.0,69,0.00,,---,0.00,VWS V14.01,2013-08-14 09:34:00,
2013-08-14 04:35:00,77.4,66.4,29.97,SSW,202,0.0,0.0,69,0.00,,---,0.00,VWS V14.01,2013-08-14 09:35:00,
2013-08-14 04:36:00,77.4,66.4,29.97,South,180,2.5,2.5,69,0.00,,---,0.00,VWS V14.01,2013-08-14 09:36:00,
2013-08-14 04:37:00,77.4,66.4,29.97,South,180,0.0,2.5,69,0.00,,---,0.00,VWS V14.01,2013-08-14 09:37:00,
2013-08-14 04:38:00,77.4,66.4,29.97,South,180,0.0,0.0,69,0.00,,---,0.00,VWS V14.01,2013-08-14 09:38:00,
2013-08-14 04:39:00,77.2,66.2,29.97,South,180,0.0,0.0,69,0.00,,---,0.00,VWS V14.01,2013-08-14 09:39:00,
2013-08-14 04:40:00,77.2,66.2,29.97,South,180,0.0,0.0,69,0.00,,---,0.00,VWS V14.01,2013-08-14 09:40:00,
2013-08-14 04:41:00,77.2,66.7,29.97,East,90,0.9,1.1,70,0.00,,---,0.00,VWS V14.01,2013-08-14 09:41:00,
2013-08-14 04:42:00,77.2,66.2,29.97,SE,135,2.5,2.5,69,0.00,,---,0.00,VWS V14.01,2013-08-14 09:42:00,
2013-08-14 04:43:00,77.2,66.7,29.97,ESE,112,1.3,2.5,70,0.00,,---,0.00,VWS V14.01,2013-08-14 09:43:00,
2013-08-14 04:44:00,77.2,66.7,29.97,East,90,2.5,2.5,70,0.00,,---,0.00,VWS V14.01,2013-08-14 09:44:00,
2013-08-14 04:45:00,77.2,66.7,29.97,SSE,158,0.9,2.7,70,0.00,,---,0.00,VWS V14.01,2013-08-14 09:45:00,
2013-08-14 04:46:00,77.2,66.7,29.97,SSE,158,0.9,2.7,70,0.00,,---,0.00,VWS V14.01,2013-08-14 09:46:00,
2013-08-14 04:47:00,77.4,67.2,29.97,SSW,202,3.8,3.8,71,0.00,,---,0.00,VWS V14.01,2013-08-14 09:47:00,
2013-08-14 04:48:00,77.4,67.2,29.97,SSE,158,1.1,4.3,71,0.00,,---,0.00,VWS V14.01,2013-08-14 09:48:00,
2013-08-14 04:49:00,77.4,67.2,29.97,ESE,112,2.2,2.2,71,0.00,,---,0.00,VWS V14.01,2013-08-14 09:49:00,
2013-08-14 04:50:00,77.4,67.2,29.97,ESE,112,2.2,2.5,71,0.00,,---,0.00,VWS V14.01,2013-08-14 09:50:00,
2013-08-14 04:51:00,77.4,66.8,29.97,ESE,112,0.0,2.2,70,0.00,,---,0.00,VWS V14.01,2013-08-14 09:51:00,
2013-08-14 04:52:00,77.4,66.8,29.97,ESE,112,0.0,0.0,70,0.00,,---,0.00,VWS V14.01,2013-08-14 09:52:00,
2013-08-14 04:53:00,77.2,67.1,29.97,ESE,112,0.0,0.0,71,0.00,,---,0.00,VWS V14.01,2013-08-14 09:53:00,
2013-08-14 04:54:00,77.2,67.1,29.97,ESE,112,0.0,0.0,71,0.00,,---,0.00,VWS V14.01,2013-08-14 09:54:00,
2013-08-14 04:55:00,77.2,66.7,29.97,SSE,158,0.0,0.0,70,0.00,,---,0.00,VWS V14.01,2013-08-14 09:55:00,
2013-08-14 04:56:00,77.0,66.5,29.97,SSE,158,0.0,0.0,70,0.00,,---,0.00,VWS V14.01,2013-08-14 09:56:00,
2013-08-14 04:57:00,77.0,66.9,29.97,SSW,202,0.0,0.0,71,0.00,,---,0.00,VWS V14.01,2013-08-14 09:57:00,
2013-08-14 04:58:00,77.2,67.1,29.97,South,180,0.0,0.0,71,0.00,,---,0.00,VWS V14.01,2013-08-14 09:58:00,
2013-08-14 04:59:00,77.2,67.5,29.97,South,180,3.4,3.4,72,0.00,,---,0.00,VWS V14.01,2013-08-14 09:59:00,
2013-08-14 05:00:00,77.2,67.5,29.97,SSW,202,1.6,4.3,72,0.00,,---,0.00,VWS V14.01,2013-08-14 10:00:00,
2013-08-14 05:01:00,77.2,67.5,29.97,SSW,202,2.7,2.9,72,0.00,,---,0.00,VWS V14.01,2013-08-14 10:01:00,
2013-08-14 05:02:00,77.4,67.2,29.97,SSW,202,0.0,2.7,71,0.00,,---,0.00,VWS V14.01,2013-08-14 10:02:00,
2013-08-14 05:03:00,77.4,67.2,29.97,SSW,202,0.9,1.1,71,0.00,,---,0.00,VWS V14.01,2013-08-14 10:03:00,
2013-08-14 05:04:00,77.4,67.2,29.97,SSW,202,0.0,1.3,71,0.00,,---,0.00,VWS V14.01,2013-08-14 10:04:00,
2013-08-14 05:05:00,77.2,67.1,29.97,SSW,202,0.0,0.0,71,0.00,,---,0.00,VWS V14.01,2013-08-14 10:05:00,
2013-08-14 05:06:00,77.2,67.1,29.97,SSW,202,3.1,3.1,71,0.00,,---,0.00,VWS V14.01,2013-08-14 10:06:00,
2013-08-14 05:07:00,77.2,67.5,29.97,South,180,1.1,3.1,72,0.00,,---,0.00,VWS V14.01,2013-08-14 10:07:00,
2013-08-14 05:08:00,77.2,67.5,29.97,ESE,112,0.0,2.0,72,0.00,,---,0.00,VWS V14.01,2013-08-14 10:08:00,
2013-08-14 05:09:00,77.2,67.5,29.97,East,90,0.9,2.2,72,0.00,,---,0.00,VWS V14.01,2013-08-14 10:09:00,
2013-08-14 05:10:00,77.2,67.1,29.97,SSW,202,0.0,1.1,71,0.00,,---,0.00,VWS V14.01,2013-08-14 10:10:00,
2013-08-14 05:11:00,77.2,67.1,29.97,South,180,2.0,2.0,71,0.00,,---,0.00,VWS V14.01,2013-08-14 10:11:00,
2013-08-14 05:12:00,77.2,67.1,29.97,SSE,158,0.0,2.0,71,0.00,,---,0.00,VWS V14.01,2013-08-14 10:12:00,
2013-08-14 05:13:00,77.2,67.5,29.97,ESE,112,0.0,0.0,72,0.00,,---,0.00,VWS V14.01,2013-08-14 10:13:00,
2013-08-14 05:14:00,77.0,66.9,29.97,SSW,202,1.1,1.1,71,0.00,,---,0.00,VWS V14.01,2013-08-14 10:14:00,
2013-08-14 05:15:00,77.0,66.9,29.97,SSW,202,0.0,1.1,71,0.00,,---,0.00,VWS V14.01,2013-08-14 10:15:00,
2013-08-14 05:16:00,77.0,66.9,29.97,ESE,112,1.1,2.5,71,0.00,,---,0.00,VWS V14.01,2013-08-14 10:16:00,
2013-08-14 05:17:00,77.0,66.9,29.97,South,180,3.1,3.1,71,0.00,,---,0.00,VWS V14.01,2013-08-14 10:17:00,
2013-08-14 05:18:00,77.0,66.9,29.97,SE,135,0.0,3.1,71,0.00,,---,0.00,VWS V14.01,2013-08-14 10:18:00,
2013-08-14 05:19:00,77.0,66.9,29.97,SSW,202,0.0,0.0,71,0.00,,---,0.00,VWS V14.01,2013-08-14 10:19:00,
2013-08-14 05:20:00,77.0,66.9,29.97,South,180,0.0,2.0,71,0.00,,---,0.00,VWS V14.01,2013-08-14 10:20:00,
2013-08-14 05:21:00,77.0,66.9,29.97,South,180,0.0,0.0,71,0.00,,---,0.00,VWS V14.01,2013-08-14 10:21:00,
2013-08-14 05:22:00,77.0,66.9,29.97,South,180,1.1,2.5,71,0.00,,---,0.00,VWS V14.01,2013-08-14 10:22:00,
2013-08-14 05:23:00,77.0,66.9,29.97,South,180,0.0,1.1,71,0.00,,---,0.00,VWS V14.01,2013-08-14 10:23:00,
2013-08-14 05:24:00,77.0,66.9,29.97,South,180,0.0,0.0,71,0.00,,---,0.00,VWS V14.01,2013-08-14 10:24:00,
2013-08-14 05:25:00,76.8,66.7,29.97,South,180,0.0,0.0,71,0.00,,---,0.00,VWS V14.01,2013-08-14 10:25:00,
2013-08-14 05:26:00,76.8,66.7,29.97,South,180,0.9,1.6,71,0.00,,---,0.00,VWS V14.01,2013-08-14 10:26:00,
2013-08-14 05:27:00,76.8,67.1,29.97,SSW,202,2.0,2.9,72,0.00,,---,0.00,VWS V14.01,2013-08-14 10:27:00,
2013-08-14 05:28:00,76.8,67.1,29.97,SSW,202,1.6,3.4,72,0.00,,---,0.00,VWS V14.01,2013-08-14 10:28:00,
2013-08-14 05:29:00,76.8,67.1,29.97,South,180,2.5,3.6,72,0.00,,---,0.00,VWS V14.01,2013-08-14 10:29:00,
2013-08-14 05:30:00,76.8,67.1,29.97,SSW,202,2.5,2.9,72,0.00,,---,0.00,VWS V14.01,2013-08-14 10:30:00,
2013-08-14 05:31:00,76.8,67.1,29.97,South,180,1.6,3.4,72,0.00,,---,0.00,VWS V14.01,2013-08-14 10:31:00,
2013-08-14 05:32:00,77.0,67.7,30.00,SSW,202,1.6,1.6,73,0.00,,---,0.29,VWS V14.01,2013-08-14 10:32:00,
2013-08-14 05:33:00,77.0,67.7,30.00,SSW,202,2.7,4.3,73,0.00,,---,0.00,VWS V14.01,2013-08-14 10:33:00,
2013-08-14 05:34:00,77.0,67.7,30.00,SSW,202,0.0,2.7,73,0.00,,---,0.00,VWS V14.01,2013-08-14 10:34:00,
2013-08-14 05:35:00,77.0,67.7,30.00,South,180,4.3,4.3,73,0.00,,---,0.00,VWS V14.01,2013-08-14 10:35:00,
2013-08-14 05:36:00,77.0,67.7,30.00,East,90,1.1,4.3,73,0.00,,---,0.00,VWS V14.01,2013-08-14 10:36:00,
2013-08-14 05:37:00,77.0,67.7,30.00,SE,135,0.0,1.1,73,0.00,,---,0.00,VWS V14.01,2013-08-14 10:37:00,
2013-08-14 05:38:00,77.0,67.3,30.00,ESE,112,2.2,2.2,72,0.00,,---,0.00,VWS V14.01,2013-08-14 10:38:00,
2013-08-14 05:39:00,77.0,67.3,30.00,SW,225,0.0,2.2,72,0.00,,---,0.00,VWS V14.01,2013-08-14 10:39:00,
2013-08-14 05:40:00,77.0,67.3,30.00,SSW,202,0.0,0.0,72,0.00,,---,0.00,VWS V14.01,2013-08-14 10:40:00,
2013-08-14 05:41:00,77.0,67.3,30.00,SSW,202,0.0,0.0,72,0.00,,---,0.00,VWS V14.01,2013-08-14 10:41:00,
2013-08-14 05:42:00,77.0,67.3,30.00,SSW,202,0.0,0.9,72,0.00,,---,0.00,VWS V14.01,2013-08-14 10:42:00,
2013-08-14 05:43:00,76.8,67.1,30.00,SSW,202,0.0,0.0,72,0.00,,---,0.00,VWS V14.01,2013-08-14 10:43:00,
2013-08-14 05:44:00,76.8,67.1,30.00,South,180,2.5,2.5,72,0.00,,---,0.00,VWS V14.01,2013-08-14 10:44:00,
2013-08-14 05:45:00,76.8,67.1,30.00,SSW,202,4.0,4.3,72,0.00,,---,0.00,VWS V14.01,2013-08-14 10:45:00,
2013-08-14 05:46:00,76.8,67.5,30.00,SSW,202,4.7,4.7,73,0.00,,---,0.00,VWS V14.01,2013-08-14 10:46:00,
2013-08-14 05:47:00,77.0,67.7,30.00,SSE,158,2.5,4.7,73,0.00,,---,0.00,VWS V14.01,2013-08-14 10:47:00,
2013-08-14 05:48:00,76.8,67.5,30.00,SSE,158,2.7,2.7,73,0.00,,---,0.00,VWS V14.01,2013-08-14 10:48:00,
2013-08-14 05:49:00,76.8,67.5,30.00,South,180,1.3,2.7,73,0.00,,---,0.00,VWS V14.01,2013-08-14 10:49:00,
2013-08-14 05:50:00,76.8,67.1,30.00,SSE,158,2.5,2.5,72,0.00,,---,0.00,VWS V14.01,2013-08-14 10:50:00,
2013-08-14 05:51:00,76.8,67.1,30.00,SSE,158,0.0,2.5,72,0.00,,---,0.00,VWS V14.01,2013-08-14 10:51:00,
2013-08-14 05:52:00,76.8,67.5,30.00,South,180,4.0,4.0,73,0.00,,---,0.00,VWS V14.01,2013-08-14 10:52:00,
2013-08-14 05:53:00,76.8,67.5,30.00,South,180,3.8,4.7,73,0.00,,---,0.00,VWS V14.01,2013-08-14 10:53:00,
2013-08-14 05:54:00,76.8,67.5,30.00,South,180,4.0,4.3,73,0.00,,---,0.00,VWS V14.01,2013-08-14 10:54:00,
2013-08-14 05:55:00,77.0,67.7,30.00,South,180,3.4,4.0,73,0.00,,---,0.00,VWS V14.01,2013-08-14 10:55:00,
2013-08-14 05:56:00,77.0,67.7,30.00,South,180,1.1,3.4,73,0.00,,---,0.00,VWS V14.01,2013-08-14 10:56:00,
2013-08-14 05:57:00,76.8,67.5,30.00,NE,45,0.9,1.1,73,0.00,,---,0.00,VWS V14.01,2013-08-14 10:57:00,
2013-08-14 05:58:00,76.8,67.1,30.00,WNW,292,0.0,0.9,72,0.00,,---,0.00,VWS V14.01,2013-08-14 10:58:00,
2013-08-14 05:59:00,76.7,66.9,30.00,WNW,292,0.0,0.0,72,0.00,,---,0.00,VWS V14.01,2013-08-14 10:59:00,
2013-08-14 06:00:00,76.7,66.9,30.00,South,180,2.5,2.5,72,0.00,,---,0.29,VWS V14.01,2013-08-14 11:00:00,
2013-08-14 06:01:00,76.7,66.9,30.00,SW,225,2.0,2.5,72,0.00,,---,0.00,VWS V14.01,2013-08-14 11:01:00,
2013-08-14 06:02:00,76.5,66.8,30.00,South,180,2.0,2.5,72,0.00,,---,0.00,VWS V14.01,2013-08-14 11:02:00,
2013-08-14 06:03:00,76.7,66.9,30.00,South,180,0.0,2.0,72,0.00,,---,0.00,VWS V14.01,2013-08-14 11:03:00,
2013-08-14 06:04:00,76.5,66.8,30.00,South,180,0.0,0.0,72,0.00,,---,0.00,VWS V14.01,2013-08-14 11:04:00,
2013-08-14 06:05:00,76.5,66.8,30.00,South,180,0.0,0.0,72,0.00,,---,0.00,VWS V14.01,2013-08-14 11:05:00,
2013-08-14 06:06:00,76.5,66.8,30.00,South,180,0.0,0.0,72,0.00,,---,0.00,VWS V14.01,2013-08-14 11:06:00,
2013-08-14 06:07:00,76.5,66.8,30.00,South,180,0.0,0.0,72,0.00,,---,0.00,VWS V14.01,2013-08-14 11:07:00,
2013-08-14 06:08:00,76.3,66.6,30.00,South,180,0.0,0.0,72,0.00,,---,0.00,VWS V14.01,2013-08-14 11:08:00,
2013-08-14 06:09:00,76.3,66.6,30.00,South,180,0.0,0.0,72,0.00,,---,0.00,VWS V14.01,2013-08-14 11:09:00,
2013-08-14 06:10:00,76.1,66.4,30.00,South,180,0.0,0.0,72,0.00,,---,0.00,VWS V14.01,2013-08-14 11:10:00,
2013-08-14 06:11:00,76.1,66.4,30.00,South,180,0.0,0.0,72,0.00,,---,0.00,VWS V14.01,2013-08-14 11:11:00,
2013-08-14 06:12:00,76.1,66.4,30.00,South,180,0.0,0.0,72,0.00,,---,0.00,VWS V14.01,2013-08-14 11:12:00,
2013-08-14 06:13:00,76.1,66.4,30.00,South,180,0.0,1.1,72,0.00,,---,0.00,VWS V14.01,2013-08-14 11:13:00,
2013-08-14 06:14:00,75.9,66.7,30.00,South,180,0.0,0.0,73,0.00,,---,0.00,VWS V14.01,2013-08-14 11:14:00,
2013-08-14 06:15:00,75.9,66.7,30.00,East,90,0.0,0.9,73,0.00,,---,0.00,VWS V14.01,2013-08-14 11:15:00,
2013-08-14 06:16:00,75.9,66.7,30.00,East,90,0.0,0.0,73,0.00,,---,0.00,VWS V14.01,2013-08-14 11:16:00,
2013-08-14 06:17:00,75.9,66.7,29.97,East,90,0.0,0.0,73,0.00,,---,0.00,VWS V14.01,2013-08-14 11:17:00,
2013-08-14 06:18:00,75.9,66.7,29.97,East,90,0.0,0.0,73,0.00,,---,0.00,VWS V14.01,2013-08-14 11:18:00,
2013-08-14 06:19:00,75.9,66.7,29.97,East,90,0.0,0.0,73,0.00,,---,0.00,VWS V14.01,2013-08-14 11:19:00,
2013-08-14 06:20:00,75.8,66.5,29.97,East,90,0.0,0.0,73,0.00,,---,0.00,VWS V14.01,2013-08-14 11:20:00,
2013-08-14 06:21:00,75.8,66.5,29.97,East,90,0.0,0.0,73,0.00,,---,0.00,VWS V14.01,2013-08-14 11:21:00,
2013-08-14 06:22:00,75.8,66.5,29.97,NW,315,0.0,0.0,73,0.00,,---,0.00,VWS V14.01,2013-08-14 11:22:00,
2013-08-14 06:23:00,75.8,66.5,29.97,NNW,338,1.6,2.2,73,0.00,,---,0.00,VWS V14.01,2013-08-14 11:23:00,
2013-08-14 06:24:00,75.8,66.5,29.97,North,0,1.1,1.6,73,0.00,,---,0.00,VWS V14.01,2013-08-14 11:24:00,
2013-08-14 06:25:00,75.8,66.5,29.97,North,0,0.0,1.1,73,0.00,,---,0.00,VWS V14.01,2013-08-14 11:25:00,
2013-08-14 06:26:00,75.6,66.3,29.97,SW,225,0.9,0.9,73,0.00,,---,0.00,VWS V14.01,2013-08-14 11:26:00,
2013-08-14 06:27:00,75.8,66.5,29.97,SW,225,0.9,1.3,73,0.00,,---,0.00,VWS V14.01,2013-08-14 11:27:00,
2013-08-14 06:28:00,75.8,66.9,29.97,SW,225,0.0,0.9,74,0.00,,---,0.00,VWS V14.01,2013-08-14 11:28:00,
2013-08-14 06:29:00,75.8,66.5,29.97,SW,225,0.0,1.6,73,0.00,,---,0.00,VWS V14.01,2013-08-14 11:29:00,
2013-08-14 06:30:00,75.8,66.5,29.97,West,270,2.0,2.0,73,0.00,,---,0.00,VWS V14.01,2013-08-14 11:30:00,
2013-08-14 06:31:00,75.9,67.1,29.97,SW,225,2.0,2.2,74,0.00,,---,0.00,VWS V14.01,2013-08-14 11:31:00,
2013-08-14 06:32:00,75.9,67.1,30.00,South,180,1.3,2.9,74,0.00,,---,0.00,VWS V14.01,2013-08-14 11:32:00,
2013-08-14 06:33:00,76.1,67.2,30.00,SSW,202,2.7,3.6,74,0.00,,---,0.00,VWS V14.01,2013-08-14 11:33:00,
2013-08-14 06:34:00,76.3,67.4,30.00,South,180,2.9,2.9,74,0.00,,---,0.00,VWS V14.01,2013-08-14 11:34:00,
2013-08-14 06:35:00,76.3,67.4,30.00,South,180,2.7,3.1,74,0.00,,---,0.00,VWS V14.01,2013-08-14 11:35:00,
2013-08-14 06:36:00,76.5,67.6,30.00,South,180,4.3,4.3,74,0.00,,---,0.00,VWS V14.01,2013-08-14 11:36:00,
2013-08-14 06:37:00,76.5,67.6,30.00,South,180,2.9,4.3,74,0.00,,---,0.00,VWS V14.01,2013-08-14 11:37:00,
2013-08-14 06:38:00,76.5,67.6,30.00,SSW,202,4.0,4.9,74,0.00,,---,0.00,VWS V14.01,2013-08-14 11:38:00,
2013-08-14 06:39:00,76.7,68.1,30.00,East,90,2.7,4.0,75,0.00,,---,0.00,VWS V14.01,2013-08-14 11:39:00,
2013-08-14 06:40:00,76.7,68.1,30.00,South,180,2.2,2.7,75,0.00,,---,0.00,VWS V14.01,2013-08-14 11:40:00,
2013-08-14 06:41:00,76.7,67.8,30.00,SE,135,0.0,2.2,74,0.00,,---,0.00,VWS V14.01,2013-08-14 11:41:00,
2013-08-14 06:42:00,76.7,67.8,30.00,South,180,2.2,2.2,74,0.00,,---,0.00,VWS V14.01,2013-08-14 11:42:00,
2013-08-14 06:43:00,76.7,67.8,30.00,South,180,1.6,2.5,74,0.00,,---,0.00,VWS V14.01,2013-08-14 11:43:00,
2013-08-14 06:44:00,76.8,67.9,30.00,South,180,0.0,0.0,74,0.00,,---,0.00,VWS V14.01,2013-08-14 11:44:00,
2013-08-14 06:45:00,76.8,67.9,30.00,SW,225,0.0,0.0,74,0.00,,---,0.00,VWS V14.01,2013-08-14 11:45:00,
2013-08-14 06:46:00,76.8,67.9,30.00,SE,135,0.0,0.0,74,0.00,,---,0.00,VWS V14.01,2013-08-14 11:46:00,
2013-08-14 06:47:00,76.8,67.9,30.00,SSE,158,2.5,3.8,74,0.00,,---,0.00,VWS V14.01,2013-08-14 11:47:00,
2013-08-14 06:48:00,76.8,67.9,30.00,SSW,202,0.9,2.5,74,0.00,,---,0.00,VWS V14.01,2013-08-14 11:48:00,
2013-08-14 06:49:00,77.0,68.1,30.00,SSW,202,1.1,1.1,74,0.00,,---,0.00,VWS V14.01,2013-08-14 11:49:00,
2013-08-14 06:50:00,77.0,68.1,30.00,SSW,202,0.0,1.1,74,0.00,,---,0.00,VWS V14.01,2013-08-14 11:50:00,
2013-08-14 06:51:00,77.0,67.7,30.00,SSW,202,0.0,0.0,73,0.00,,---,0.00,VWS V14.01,2013-08-14 11:51:00,
2013-08-14 06:52:00,77.0,67.7,30.00,SSW,202,1.1,2.0,73,0.00,,---,0.00,VWS V14.01,2013-08-14 11:52:00,
2013-08-14 06:53:00,77.2,67.9,30.00,SSW,202,0.0,1.1,73,0.00,,---,0.00,VWS V14.01,2013-08-14 11:53:00,
2013-08-14 06:54:00,77.2,67.9,30.00,SSW,202,1.1,1.1,73,0.00,,---,0.00,VWS V14.01,2013-08-14 11:54:00,
2013-08-14 06:55:00,77.4,68.0,30.00,SSW,202,0.0,1.1,73,0.00,,---,0.00,VWS V14.01,2013-08-14 11:55:00,
2013-08-14 06:56:00,77.5,68.2,30.00,SSW,202,0.0,0.0,73,0.00,,---,0.00,VWS V14.01,2013-08-14 11:56:00,
2013-08-14 06:57:00,77.7,68.4,30.00,SSW,202,0.0,0.0,73,0.00,,---,0.00,VWS V14.01,2013-08-14 11:57:00,
2013-08-14 06:58:00,77.7,68.4,30.00,SSW,202,0.0,0.0,73,0.00,,---,0.00,VWS V14.01,2013-08-14 11:58:00,
2013-08-14 06:59:00,77.9,68.6,30.00,SSW,202,0.0,0.0,73,0.00,,---,0.00,VWS V14.01,2013-08-14 11:59:00,
2013-08-14 07:00:00,78.1,68.3,30.00,SSW,202,0.0,0.0,72,0.00,,---,0.29,VWS V14.01,2013-08-14 12:00:00,
2013-08-14 07:01:00,78.2,68.5,30.00,SSW,202,0.0,0.0,72,0.00,,---,0.00,VWS V14.01,2013-08-14 12:01:00,
2013-08-14 07:02:00,78.2,68.5,30.03,SSW,202,0.0,0.0,72,0.00,,---,0.00,VWS V14.01,2013-08-14 12:02:00,
2013-08-14 07:03:00,78.6,68.8,30.03,SSW,202,0.0,0.0,72,0.00,,---,0.00,VWS V14.01,2013-08-14 12:03:00,
2013-08-14 07:04:00,78.8,69.0,30.03,SSW,202,0.0,0.0,72,0.00,,---,0.00,VWS V14.01,2013-08-14 12:04:00,
2013-08-14 07:05:00,78.8,68.6,30.03,SSW,202,0.0,0.0,71,0.00,,---,0.00,VWS V14.01,2013-08-14 12:05:00,
2013-08-14 07:06:00,78.9,68.8,30.03,SSW,202,0.0,0.0,71,0.00,,---,0.00,VWS V14.01,2013-08-14 12:06:00,
2013-08-14 07:07:00,79.1,68.9,30.03,SSW,202,0.0,0.0,71,0.00,,---,0.00,VWS V14.01,2013-08-14 12:07:00,
2013-08-14 07:08:00,79.3,69.1,30.03,SSW,202,0.0,0.0,71,0.00,,---,0.00,VWS V14.01,2013-08-14 12:08:00,
2013-08-14 07:09:00,79.5,69.3,30.03,SSW,202,0.0,0.0,71,0.00,,---,0.00,VWS V14.01,2013-08-14 12:09:00,
2013-08-14 07:10:00,79.5,68.8,30.03,SSW,202,0.0,0.0,70,0.00,,---,0.00,VWS V14.01,2013-08-14 12:10:00,
2013-08-14 07:11:00,79.7,68.6,30.03,SSW,202,0.0,0.0,69,0.00,,---,0.00,VWS V14.01,2013-08-14 12:11:00,
2013-08-14 07:12:00,79.8,68.8,30.03,SSW,202,0.0,0.0,69,0.00,,---,0.00,VWS V14.01,2013-08-14 12:12:00,
2013-08-14 07:13:00,79.8,68.8,30.03,SSW,202,0.0,0.0,69,0.00,,---,0.00,VWS V14.01,2013-08-14 12:13:00,
2013-08-14 07:14:00,80.0,68.9,30.03,SSW,202,0.9,0.9,69,0.00,,---,0.00,VWS V14.01,2013-08-14 12:14:00,
2013-08-14 07:15:00,80.0,68.9,30.03,SSW,202,0.0,2.0,69,0.00,,---,0.00,VWS V14.01,2013-08-14 12:15:00,
2013-08-14 07:16:00,80.2,68.7,30.03,South,180,2.0,2.5,68,0.00,,---,0.00,VWS V14.01,2013-08-14 12:16:00,
2013-08-14 07:17:00,80.2,68.7,30.03,SSW,202,1.3,2.0,68,0.00,,---,0.00,VWS V14.01,2013-08-14 12:17:00,
2013-08-14 07:18:00,80.6,69.0,30.03,South,180,1.6,2.2,68,0.00,,---,0.00,VWS V14.01,2013-08-14 12:18:00,
2013-08-14 07:19:00,80.6,68.6,30.03,SE,135,0.0,2.5,67,0.00,,---,0.00,VWS V14.01,2013-08-14 12:19:00,
2013-08-14 07:20:00,80.7,68.8,30.03,South,180,0.0,0.9,67,0.00,,---,0.00,VWS V14.01,2013-08-14 12:20:00,
2013-08-14 07:21:00,80.9,68.9,30.03,South,180,2.9,2.9,67,0.00,,---,0.00,VWS V14.01,2013-08-14 12:21:00,
2013-08-14 07:22:00,81.1,69.1,30.03,South,180,0.0,2.9,67,0.00,,---,0.00,VWS V14.01,2013-08-14 12:22:00,
2013-08-14 07:23:00,81.3,69.3,30.03,South,180,2.0,2.7,67,0.00,,---,0.00,VWS V14.01,2013-08-14 12:23:00,
2013-08-14 07:24:00,81.3,69.3,30.03,South,180,0.0,2.2,67,0.00,,---,0.00,VWS V14.01,2013-08-14 12:24:00,
2013-08-14 07:25:00,81.4,69.0,30.03,South,180,0.0,0.0,66,0.00,,---,0.00,VWS V14.01,2013-08-14 12:25:00,
2013-08-14 07:26:00,81.8,69.3,30.03,SSW,202,0.0,0.0,66,0.00,,---,0.00,VWS V14.01,2013-08-14 12:26:00,
2013-08-14 07:27:00,81.8,69.3,30.03,SSW,202,1.3,1.3,66,0.00,,---,0.00,VWS V14.01,2013-08-14 12:27:00,
2013-08-14 07:28:00,81.8,69.3,30.03,SE,135,3.4,3.6,66,0.00,,---,0.00,VWS V14.01,2013-08-14 12:28:00,
2013-08-14 07:29:00,82.0,68.6,30.03,SSW,202,2.9,3.4,64,0.00,,---,0.00,VWS V14.01,2013-08-14 12:29:00,
2013-08-14 07:30:00,82.0,68.6,30.03,SSE,158,2.2,2.9,64,0.00,,---,0.00,VWS V14.01,2013-08-14 12:30:00,
2013-08-14 07:31:00,82.2,68.3,30.03,SSE,158,0.0,2.2,63,0.00,,---,0.00,VWS V14.01,2013-08-14 12:31:00,
2013-08-14 07:32:00,82.3,68.9,30.03,SSW,202,1.1,3.4,64,0.00,,---,0.00,VWS V14.01,2013-08-14 12:32:00,
2013-08-14 07:33:00,82.5,69.1,30.03,SSW,202,1.6,2.5,64,0.00,,---,0.00,VWS V14.01,2013-08-14 12:33:00,
2013-08-14 07:34:00,82.9,69.0,30.03,SSW,202,0.0,1.6,63,0.00,,---,0.00,VWS V14.01,2013-08-14 12:34:00,
2013-08-14 07:35:00,83.0,69.6,30.03,SSW,202,0.0,0.0,64,0.00,,---,0.00,VWS V14.01,2013-08-14 12:35:00,
2013-08-14 07:36:00,83.2,69.3,30.03,SSW,202,3.4,3.4,63,0.00,,---,0.00,VWS V14.01,2013-08-14 12:36:00,
2013-08-14 07:37:00,83.2,68.8,30.03,SSW,202,2.5,3.4,62,0.00,,---,0.00,VWS V14.01,2013-08-14 12:37:00,
2013-08-14 07:38:00,83.2,68.8,30.03,SSW,202,1.1,3.1,62,0.00,,---,0.00,VWS V14.01,2013-08-14 12:38:00,
2013-08-14 07:39:00,83.4,68.5,30.03,SSW,202,1.3,1.3,61,0.00,,---,0.00,VWS V14.01,2013-08-14 12:39:00,
2013-08-14 07:40:00,83.6,68.7,30.03,South,180,2.0,2.9,61,0.00,,---,0.00,VWS V14.01,2013-08-14 12:40:00,
2013-08-14 07:41:00,83.7,68.9,30.03,SSW,202,2.0,2.0,61,0.00,,---,0.00,VWS V14.01,2013-08-14 12:41:00,
2013-08-14 07:42:00,83.7,68.9,30.03,South,180,0.0,2.0,61,0.00,,---,0.00,VWS V14.01,2013-08-14 12:42:00,
2013-08-14 07:43:00,83.9,69.0,30.03,SSW,202,2.0,2.7,61,0.00,,---,0.00,VWS V14.01,2013-08-14 12:43:00,
2013-08-14 07:44:00,84.1,69.2,30.03,SSW,202,0.0,2.0,61,0.00,,---,0.00,VWS V14.01,2013-08-14 12:44:00,
2013-08-14 07:45:00,84.3,69.4,30.03,SSW,202,2.0,2.0,61,0.00,,---,0.00,VWS V14.01,2013-08-14 12:45:00,
2013-08-14 07:46:00,84.3,68.9,30.03,SSW,202,0.0,2.0,60,0.00,,---,0.00,VWS V14.01,2013-08-14 12:46:00,
2013-08-14 07:47:00,84.3,68.9,30.03,SSW,202,0.0,0.0,60,0.00,,---,0.00,VWS V14.01,2013-08-14 12:47:00,
2013-08-14 07:48:00,84.3,68.9,30.03,SW,225,1.3,2.0,60,0.00,,---,0.00,VWS V14.01,2013-08-14 12:48:00,
2013-08-14 07:49:00,84.4,68.1,30.03,SSW,202,2.2,2.2,58,0.00,,---,0.00,VWS V14.01,2013-08-14 12:49:00,
2013-08-14 07:50:00,84.6,68.7,30.03,WSW,248,1.3,2.2,59,0.00,,---,0.00,VWS V14.01,2013-08-14 12:50:00,
2013-08-14 07:51:00,84.8,68.9,30.03,SE,135,2.0,2.0,59,0.00,,---,0.00,VWS V14.01,2013-08-14 12:51:00,
2013-08-14 07:52:00,84.8,68.9,30.03,SW,225,2.7,3.4,59,0.00,,---,0.00,VWS V14.01,2013-08-14 12:52:00,
2013-08-14 07:53:00,84.8,68.4,30.03,SSW,202,2.0,4.3,58,0.00,,---,0.00,VWS V14.01,2013-08-14 12:53:00,
2013-08-14 07:54:00,84.8,67.9,30.03,SSW,202,4.0,4.0,57,0.00,,---,0.00,VWS V14.01,2013-08-14 12:54:00,
2013-08-14 07:55:00,84.8,67.4,30.03,SSW,202,3.6,4.3,56,0.00,,---,0.00,VWS V14.01,2013-08-14 12:55:00,
2013-08-14 07:56:00,84.8,67.4,30.03,South,180,1.6,3.6,56,0.00,,---,0.00,VWS V14.01,2013-08-14 12:56:00,
2013-08-14 07:57:00,84.8,67.4,30.03,SW,225,2.9,2.9,56,0.00,,---,0.00,VWS V14.01,2013-08-14 12:57:00,
2013-08-14 07:58:00,84.8,67.4,30.03,SSW,202,4.0,4.5,56,0.00,,---,0.00,VWS V14.01,2013-08-14 12:58:00,
2013-08-14 07:59:00,84.8,67.4,30.03,WSW,248,0.9,4.0,56,0.00,,---,0.00,VWS V14.01,2013-08-14 12:59:00,
2013-08-14 08:00:00,85.0,67.6,30.03,SW,225,3.6,3.6,56,0.00,,---,0.29,VWS V14.01,2013-08-14 13:00:00,
2013-08-14 08:01:00,85.2,67.2,30.03,SW,225,1.1,3.6,55,0.00,,---,0.00,VWS V14.01,2013-08-14 13:01:00,
2013-08-14 08:02:00,85.3,67.3,30.06,West,270,1.6,1.6,55,0.00,,---,0.00,VWS V14.01,2013-08-14 13:02:00,
2013-08-14 08:03:00,85.3,67.3,30.06,WSW,248,4.0,4.9,55,0.00,,---,0.00,VWS V14.01,2013-08-14 13:03:00,
2013-08-14 08:04:00,85.3,67.3,30.06,SW,225,0.0,4.0,55,0.00,,---,0.00,VWS V14.01,2013-08-14 13:04:00,
2013-08-14 08:05:00,85.5,67.5,30.06,South,180,2.5,2.5,55,0.00,,---,0.00,VWS V14.01,2013-08-14 13:05:00,
2013-08-14 08:06:00,85.7,67.7,30.06,SSW,202,3.4,3.4,55,0.00,,---,0.00,VWS V14.01,2013-08-14 13:06:00,
2013-08-14 08:07:00,85.7,67.7,30.06,SE,135,2.2,3.6,55,0.00,,---,0.00,VWS V14.01,2013-08-14 13:07:00,
2013-08-14 08:08:00,85.7,67.7,30.06,SSW,202,5.8,5.8,55,0.00,,---,0.00,VWS V14.01,2013-08-14 13:08:00,
2013-08-14 08:09:00,85.5,67.0,30.06,SSW,202,3.6,5.8,54,0.00,,---,0.00,VWS V14.01,2013-08-14 13:09:00,
2013-08-14 08:10:00,85.5,67.0,30.06,SW,225,3.4,3.6,54,0.00,,---,0.00,VWS V14.01,2013-08-14 13:10:00,
2013-08-14 08:11:00,85.5,67.0,30.06,SSW,202,2.5,3.4,54,0.00,,---,0.00,VWS V14.01,2013-08-14 13:11:00,
2013-08-14 08:12:00,85.7,67.2,30.06,SW,225,0.9,4.0,54,0.00,,---,0.00,VWS V14.01,2013-08-14 13:12:00,
2013-08-14 08:13:00,85.7,67.2,30.06,SSW,202,1.3,1.3,54,0.00,,---,0.00,VWS V14.01,2013-08-14 13:13:00,
2013-08-14 08:14:00,85.7,67.2,30.06,SW,225,1.1,3.4,54,0.00,,---,0.00,VWS V14.01,2013-08-14 13:14:00,
2013-08-14 08:15:00,85.7,67.2,30.06,SW,225,0.0,1.1,54,0.00,,---,0.00,VWS V14.01,2013-08-14 13:15:00,
2013-08-14 08:16:00,85.9,67.3,30.06,SW,225,2.9,4.3,54,0.00,,---,0.00,VWS V14.01,2013-08-14 13:16:00,
2013-08-14 08:17:00,86.1,66.9,30.06,SW,225,4.0,4.9,53,0.00,,---,0.00,VWS V14.01,2013-08-14 13:17:00,
2013-08-14 08:18:00,86.1,66.9,30.06,SW,225,2.7,4.3,53,0.00,,---,0.00,VWS V14.01,2013-08-14 13:18:00,
2013-08-14 08:19:00,86.2,67.1,30.06,WSW,248,0.0,2.7,53,0.00,,---,0.29,VWS V14.01,2013-08-14 13:19:00,
2013-08-14 08:20:00,86.4,67.3,30.06,South,180,2.5,3.1,53,0.00,,---,0.00,VWS V14.01,2013-08-14 13:20:00,
2013-08-14 08:21:00,86.4,67.3,30.06,South,180,0.0,2.5,53,0.00,,---,0.00,VWS V14.01,2013-08-14 13:21:00,
2013-08-14 08:22:00,86.6,67.4,30.06,South,180,1.1,1.1,53,0.00,,---,0.00,VWS V14.01,2013-08-14 13:22:00,
2013-08-14 08:23:00,86.8,67.6,30.06,South,180,1.3,2.5,53,0.00,,---,0.00,VWS V14.01,2013-08-14 13:23:00,
2013-08-14 08:24:00,86.8,67.6,30.06,South,180,0.0,1.3,53,0.00,,---,0.00,VWS V14.01,2013-08-14 13:24:00,
2013-08-14 08:25:00,86.9,67.8,30.06,SSW,202,0.0,2.0,53,0.00,,---,0.00,VWS V14.01,2013-08-14 13:25:00,
2013-08-14 08:26:00,87.1,67.9,30.06,SSE,158,3.1,4.0,53,0.00,,---,0.00,VWS V14.01,2013-08-14 13:26:00,
2013-08-14 08:27:00,86.9,67.2,30.06,South,180,4.0,4.0,52,0.00,,---,0.00,VWS V14.01,2013-08-14 13:27:00,
2013-08-14 08:28:00,86.9,67.2,30.06,SSW,202,2.9,4.0,52,0.00,,---,0.00,VWS V14.01,2013-08-14 13:28:00,
2013-08-14 08:29:00,86.8,67.0,30.06,South,180,2.7,3.1,52,0.00,,---,0.00,VWS V14.01,2013-08-14 13:29:00,
2013-08-14 08:30:00,86.9,66.6,30.06,South,180,3.1,4.0,51,0.00,,---,0.00,VWS V14.01,2013-08-14 13:30:00,
2013-08-14 08:31:00,86.9,66.6,30.06,South,180,3.6,3.6,51,0.00,,---,0.00,VWS V14.01,2013-08-14 13:31:00,
2013-08-14 08:32:00,87.1,66.8,30.06,SSW,202,3.1,5.8,51,0.00,,---,0.00,VWS V14.01,2013-08-14 13:32:00,
2013-08-14 08:33:00,87.1,66.8,30.06,South,180,1.6,3.1,51,0.00,,---,0.00,VWS V14.01,2013-08-14 13:33:00,
2013-08-14 08:34:00,87.1,66.8,30.06,WNW,292,2.9,2.9,51,0.00,,---,0.00,VWS V14.01,2013-08-14 13:34:00,
2013-08-14 08:35:00,87.3,67.0,30.06,West,270,1.6,2.9,51,0.00,,---,0.00,VWS V14.01,2013-08-14 13:35:00,
2013-08-14 08:36:00,87.5,67.1,30.06,SSW,202,1.6,1.6,51,0.00,,---,0.00,VWS V14.01,2013-08-14 13:36:00,
2013-08-14 08:37:00,87.6,67.3,30.06,South,180,0.0,1.6,51,0.00,,---,0.00,VWS V14.01,2013-08-14 13:37:00,
2013-08-14 08:38:00,87.8,67.4,30.06,NE,45,0.9,1.6,51,0.00,,---,0.00,VWS V14.01,2013-08-14 13:38:00,
2013-08-14 08:39:00,88.0,67.6,30.06,SW,225,2.5,3.1,51,0.00,,---,0.00,VWS V14.01,2013-08-14 13:39:00,
2013-08-14 08:40:00,88.0,67.0,30.06,North,0,0.0,2.5,50,0.00,,---,0.00,VWS V14.01,2013-08-14 13:40:00,
2013-08-14 08:41:00,88.0,67.0,30.06,SSW,202,2.7,2.7,50,0.00,,---,0.00,VWS V14.01,2013-08-14 13:41:00,
2013-08-14 08:42:00,88.3,67.4,30.06,SW,225,1.1,2.9,50,0.00,,---,0.00,VWS V14.01,2013-08-14 13:42:00,
2013-08-14 08:43:00,88.5,67.5,30.06,NE,45,1.6,2.0,50,0.00,,---,0.00,VWS V14.01,2013-08-14 13:43:00,
2013-08-14 08:44:00,88.7,67.7,30.06,SE,135,0.0,1.6,50,0.00,,---,0.00,VWS V14.01,2013-08-14 13:44:00,
2013-08-14 08:45:00,89.1,68.0,30.06,WSW,248,2.9,2.9,50,0.00,,---,0.00,VWS V14.01,2013-08-14 13:45:00,
2013-08-14 08:46:00,89.1,66.8,30.06,WNW,292,3.1,5.6,48,0.00,,---,0.00,VWS V14.01,2013-08-14 13:46:00,
2013-08-14 08:47:00,89.1,66.8,30.06,WSW,248,0.9,3.1,48,0.00,,---,0.00,VWS V14.01,2013-08-14 13:47:00,
2013-08-14 08:48:00,89.1,66.2,30.06,NNW,338,1.3,1.3,47,0.00,,---,0.00,VWS V14.01,2013-08-14 13:48:00,
2013-08-14 08:49:00,89.4,67.2,30.06,SE,135,0.9,2.7,48,0.00,,---,0.00,VWS V14.01,2013-08-14 13:49:00,
2013-08-14 08:50:00,89.4,66.6,30.06,WSW,248,2.9,3.4,47,0.00,,---,0.00,VWS V14.01,2013-08-14 13:50:00,
2013-08-14 08:51:00,89.6,66.7,30.06,WSW,248,2.2,2.9,47,0.00,,---,0.00,VWS V14.01,2013-08-14 13:51:00,
2013-08-14 08:52:00,89.8,66.9,30.06,WNW,292,2.9,2.9,47,0.00,,---,0.00,VWS V14.01,2013-08-14 13:52:00,
2013-08-14 08:53:00,89.9,67.6,30.06,West,270,2.9,3.6,48,0.00,,---,0.00,VWS V14.01,2013-08-14 13:53:00,
2013-08-14 08:54:00,89.9,66.4,30.06,SSE,158,0.9,4.3,46,0.00,,---,0.00,VWS V14.01,2013-08-14 13:54:00,
2013-08-14 08:55:00,89.9,66.4,30.06,SSE,158,0.0,0.9,46,0.00,,---,0.00,VWS V14.01,2013-08-14 13:55:00,
2013-08-14 08:56:00,89.9,67.0,30.06,SSW,202,3.6,3.6,47,0.00,,---,0.00,VWS V14.01,2013-08-14 13:56:00,
2013-08-14 08:57:00,90.3,66.7,30.06,NW,315,2.2,3.6,46,0.00,,---,0.00,VWS V14.01,2013-08-14 13:57:00,
2013-08-14 08:58:00,90.1,66.6,30.06,NNW,338,3.1,3.4,46,0.00,,---,0.00,VWS V14.01,2013-08-14 13:58:00,
2013-08-14 08:59:00,90.1,66.6,30.06,NNW,338,2.5,3.1,46,0.00,,---,0.00,VWS V14.01,2013-08-14 13:59:00,
2013-08-14 09:00:00,90.3,66.1,30.06,West,270,3.1,3.1,45,0.00,,---,0.00,VWS V14.01,2013-08-14 14:00:00,
2013-08-14 09:01:00,90.3,66.1,30.06,WSW,248,2.0,3.1,45,0.00,,---,0.00,VWS V14.01,2013-08-14 14:01:00,
2013-08-14 09:02:00,90.3,66.7,30.03,SSW,202,2.7,3.1,46,0.00,,---,0.00,VWS V14.01,2013-08-14 14:02:00,
2013-08-14 09:03:00,90.3,66.7,30.03,SSW,202,0.0,2.7,46,0.00,,---,0.00,VWS V14.01,2013-08-14 14:03:00,
2013-08-14 09:04:00,90.7,67.1,30.03,South,180,0.0,0.0,46,0.00,,---,0.00,VWS V14.01,2013-08-14 14:04:00,
2013-08-14 09:05:00,90.7,66.4,30.03,WSW,248,2.5,2.7,45,0.00,,---,0.00,VWS V14.01,2013-08-14 14:05:00,
2013-08-14 09:06:00,90.8,66.6,30.03,North,0,2.0,2.5,45,0.00,,---,0.00,VWS V14.01,2013-08-14 14:06:00,
2013-08-14 09:07:00,91.0,66.7,30.03,NW,315,1.1,2.2,45,0.00,,---,0.00,VWS V14.01,2013-08-14 14:07:00,
2013-08-14 09:08:00,91.2,66.9,30.03,NW,315,3.4,3.8,45,0.00,,---,0.00,VWS V14.01,2013-08-14 14:08:00,
2013-08-14 09:09:00,90.8,65.9,30.03,NW,315,3.1,4.0,44,0.00,,---,0.00,VWS V14.01,2013-08-14 14:09:00,
2013-08-14 09:10:00,90.8,65.9,30.03,West,270,3.8,3.8,44,0.00,,---,0.00,VWS V14.01,2013-08-14 14:10:00,
2013-08-14 09:11:00,90.8,65.9,30.03,West,270,2.7,5.4,44,0.00,,---,0.00,VWS V14.01,2013-08-14 14:11:00,
2013-08-14 09:12:00,90.8,65.3,30.03,SW,225,5.8,7.2,43,0.00,,---,0.00,VWS V14.01,2013-08-14 14:12:00,
2013-08-14 09:13:00,90.8,65.3,30.03,WSW,248,3.8,5.8,43,0.00,,---,0.00,VWS V14.01,2013-08-14 14:13:00,
2013-08-14 09:14:00,90.7,65.1,30.03,North,0,4.3,4.5,43,0.00,,---,0.00,VWS V14.01,2013-08-14 14:14:00,
2013-08-14 09:15:00,90.5,64.9,30.03,NNW,338,2.7,6.3,43,0.00,,---,0.00,VWS V14.01,2013-08-14 14:15:00,
2013-08-14 09:16:00,90.5,64.9,30.03,West,270,4.3,5.6,43,0.00,,---,0.00,VWS V14.01,2013-08-14 14:16:00,
2013-08-14 09:17:00,90.5,64.9,30.03,West,270,2.7,4.3,43,0.00,,---,0.00,VWS V14.01,2013-08-14 14:17:00,
2013-08-14 09:18:00,90.7,65.1,30.03,NNW,338,3.1,4.9,43,0.00,,---,0.00,VWS V14.01,2013-08-14 14:18:00,
2013-08-14 09:19:00,90.5,64.9,30.03,SSW,202,5.6,6.5,43,0.00,,---,0.00,VWS V14.01,2013-08-14 14:19:00,
2013-08-14 09:20:00,90.5,64.9,30.03,SSW,202,3.6,5.6,43,0.00,,---,0.00,VWS V14.01,2013-08-14 14:20:00,
2013-08-14 09:21:00,90.7,64.4,30.03,South,180,3.4,4.3,42,0.00,,---,0.00,VWS V14.01,2013-08-14 14:21:00,
2013-08-14 09:22:00,90.7,64.4,30.03,WSW,248,3.8,4.0,42,0.00,,---,0.00,VWS V14.01,2013-08-14 14:22:00,
2013-08-14 09:23:00,90.8,65.3,30.03,West,270,3.1,3.8,43,0.00,,---,0.00,VWS V14.01,2013-08-14 14:23:00,
2013-08-14 09:24:00,91.0,64.8,30.03,South,180,2.7,5.8,42,0.00,,---,0.00,VWS V14.01,2013-08-14 14:24:00,
2013-08-14 09:25:00,91.0,65.4,30.03,NNW,338,1.6,3.1,43,0.00,,---,0.00,VWS V14.01,2013-08-14 14:25:00,
2013-08-14 09:26:00,91.0,65.4,30.03,NE,45,1.1,2.5,43,0.00,,---,0.00,VWS V14.01,2013-08-14 14:26:00,
2013-08-14 09:27:00,91.4,65.8,30.03,WSW,248,3.1,5.4,43,0.00,,---,0.00,VWS V14.01,2013-08-14 14:27:00,
2013-08-14 09:28:00,91.5,65.2,30.03,SW,225,2.7,3.6,42,0.00,,---,0.00,VWS V14.01,2013-08-14 14:28:00,
2013-08-14 09:29:00,91.7,66.1,30.03,West,270,4.3,4.3,43,0.00,,---,0.00,VWS V14.01,2013-08-14 14:29:00,
2013-08-14 09:30:00,91.9,66.2,30.03,SSW,202,2.9,4.3,43,0.00,,---,0.00,VWS V14.01,2013-08-14 14:30:00,
2013-08-14 09:31:00,91.9,65.6,30.03,SSW,202,5.4,5.4,42,0.00,,---,0.00,VWS V14.01,2013-08-14 14:31:00,
2013-08-14 09:32:00,91.9,65.6,30.03,SSW,202,2.2,5.4,42,0.00,,---,0.00,VWS V14.01,2013-08-14 14:32:00,
2013-08-14 09:33:00,91.9,65.6,30.03,West,270,0.9,2.2,42,0.00,,---,0.00,VWS V14.01,2013-08-14 14:33:00,
2013-08-14 09:34:00,92.1,65.7,30.03,West,270,4.3,4.3,42,0.00,,---,0.00,VWS V14.01,2013-08-14 14:34:00,
2013-08-14 09:35:00,92.4,65.3,30.03,West,270,3.6,5.4,41,0.00,,---,0.00,VWS V14.01,2013-08-14 14:35:00,
2013-08-14 09:36:00,92.1,65.0,30.03,NW,315,5.4,5.6,41,0.00,,---,0.00,VWS V14.01,2013-08-14 14:36:00,
2013-08-14 09:37:00,92.4,65.3,30.03,NW,315,3.6,5.4,41,0.00,,---,0.00,VWS V14.01,2013-08-14 14:37:00,
2013-08-14 09:38:00,92.2,65.2,30.03,West,270,4.3,4.7,41,0.00,,---,0.00,VWS V14.01,2013-08-14 14:38:00,
2013-08-14 09:39:00,92.2,65.2,30.03,NW,315,4.0,5.6,41,0.00,,---,0.00,VWS V14.01,2013-08-14 14:39:00,
2013-08-14 09:40:00,92.4,65.3,30.03,West,270,0.9,4.0,41,0.00,,---,0.00,VWS V14.01,2013-08-14 14:40:00,
2013-08-14 09:41:00,92.4,65.3,30.03,WNW,292,1.3,4.0,41,0.00,,---,0.00,VWS V14.01,2013-08-14 14:41:00,
2013-08-14 09:42:00,92.8,65.7,30.03,WNW,292,6.3,6.3,41,0.00,,---,0.00,VWS V14.01,2013-08-14 14:42:00,
2013-08-14 09:43:00,92.8,65.7,30.03,NNW,338,3.6,7.2,41,0.00,,---,0.00,VWS V14.01,2013-08-14 14:43:00,
2013-08-14 09:44:00,93.0,65.8,30.03,West,270,1.6,3.6,41,0.00,,---,0.00,VWS V14.01,2013-08-14 14:44:00,
2013-08-14 09:45:00,92.4,64.6,30.03,West,270,5.6,5.6,40,0.00,,---,0.00,VWS V14.01,2013-08-14 14:45:00,
2013-08-14 09:46:00,92.8,64.9,30.03,WSW,248,4.0,6.0,40,0.00,,---,0.00,VWS V14.01,2013-08-14 14:46:00,
2013-08-14 09:47:00,92.8,64.9,30.03,South,180,3.6,4.7,40,0.00,,---,0.00,VWS V14.01,2013-08-14 14:47:00,
2013-08-14 09:48:00,92.8,64.9,30.03,SSW,202,4.9,6.5,40,0.00,,---,0.00,VWS V14.01,2013-08-14 14:48:00,
2013-08-14 09:49:00,92.8,64.9,30.03,SW,225,4.9,5.6,40,0.00,,---,0.00,VWS V14.01,2013-08-14 14:49:00,
2013-08-14 09:50:00,92.4,64.6,30.03,SW,225,1.3,4.9,40,0.00,,---,0.00,VWS V14.01,2013-08-14 14:50:00,
2013-08-14 09:51:00,92.8,64.9,30.03,NW,315,0.9,1.3,40,0.00,,---,0.00,VWS V14.01,2013-08-14 14:51:00,
2013-08-14 09:52:00,92.1,64.3,30.03,NNW,338,5.4,8.7,40,0.00,,---,0.00,VWS V14.01,2013-08-14 14:52:00,
2013-08-14 09:53:00,92.2,63.7,30.03,NW,315,8.1,8.1,39,0.00,,---,0.00,VWS V14.01,2013-08-14 14:53:00,
2013-08-14 09:54:00,91.5,63.8,30.03,NNE,22,4.7,8.1,40,0.00,,---,0.00,VWS V14.01,2013-08-14 14:54:00,
2013-08-14 09:55:00,92.2,64.5,30.03,North,0,1.6,4.7,40,0.00,,---,0.00,VWS V14.01,2013-08-14 14:55:00,
2013-08-14 09:56:00,92.6,64.8,30.03,NNW,338,4.9,6.0,40,0.00,,---,0.00,VWS V14.01,2013-08-14 14:56:00,
2013-08-14 09:57:00,93.0,65.1,30.03,SW,225,1.3,4.9,40,0.00,,---,0.00,VWS V14.01,2013-08-14 14:57:00,
2013-08-14 09:58:00,93.1,65.2,30.03,North,0,1.6,4.7,40,0.00,,---,0.00,VWS V14.01,2013-08-14 14:58:00,
2013-08-14 09:59:00,93.0,64.4,30.03,NW,315,4.7,6.5,39,0.00,,---,0.00,VWS V14.01,2013-08-14 14:59:00,
2013-08-14 10:00:00,93.0,65.1,30.03,SW,225,3.8,6.5,40,0.00,,---,0.29,VWS V14.01,2013-08-14 15:00:00,
2013-08-14 10:01:00,93.1,64.5,30.03,SW,225,4.3,6.3,39,0.00,,---,0.00,VWS V14.01,2013-08-14 15:01:00,
2013-08-14 10:02:00,93.5,64.8,30.03,West,270,2.5,4.3,39,0.00,,---,0.00,VWS V14.01,2013-08-14 15:02:00,
2013-08-14 10:03:00,93.8,65.2,30.03,WNW,292,3.4,3.4,39,0.00,,---,0.00,VWS V14.01,2013-08-14 15:03:00,
2013-08-14 10:04:00,94.0,65.3,30.03,West,270,5.8,6.5,39,0.00,,---,0.00,VWS V14.01,2013-08-14 15:04:00,
2013-08-14 10:05:00,93.8,65.2,30.03,West,270,1.6,5.8,39,0.00,,---,0.00,VWS V14.01,2013-08-14 15:05:00,
2013-08-14 10:06:00,93.1,64.5,30.03,West,270,7.2,7.2,39,0.00,,---,0.00,VWS V14.01,2013-08-14 15:06:00,
2013-08-14 10:07:00,93.7,65.0,30.03,West,270,3.1,7.2,39,0.00,,---,0.00,VWS V14.01,2013-08-14 15:07:00,
2013-08-14 10:08:00,93.8,65.2,30.03,SW,225,3.4,4.3,39,0.00,,---,0.00,VWS V14.01,2013-08-14 15:08:00,
2013-08-14 10:09:00,94.0,65.3,30.03,SW,225,4.7,4.7,39,0.00,,---,0.00,VWS V14.01,2013-08-14 15:09:00,
2013-08-14 10:10:00,94.2,64.7,30.03,NW,315,0.9,4.7,38,0.00,,---,0.00,VWS V14.01,2013-08-14 15:10:00,
2013-08-14 10:11:00,94.2,64.7,30.03,WNW,292,4.0,4.0,38,0.00,,---,0.00,VWS V14.01,2013-08-14 15:11:00,
2013-08-14 10:13:00,94.6,65.0,30.03,SSW,202,6.0,6.0,38,0.00,,---,0.00,VWS V14.01,2013-08-14 15:13:00,
2013-08-14 10:14:00,94.4,64.9,30.03,SW,225,8.1,9.8,38,0.00,,---,0.00,VWS V14.01,2013-08-14 15:14:00,
2013-08-14 10:15:00,94.2,64.7,30.03,SSW,202,5.4,8.1,38,0.00,,---,0.00,VWS V14.01,2013-08-14 15:15:00,
2013-08-14 10:16:00,94.2,64.7,30.03,SW,225,3.4,5.4,38,0.00,,---,0.00,VWS V14.01,2013-08-14 15:16:00,
2013-08-14 10:17:00,94.4,64.9,30.03,SW,225,2.7,3.6,38,0.00,,---,0.00,VWS V14.01,2013-08-14 15:17:00,
2013-08-14 10:18:00,94.4,64.9,30.03,ESE,112,0.0,4.3,38,0.00,,---,0.00,VWS V14.01,2013-08-14 15:18:00,
2013-08-14 10:19:00,94.7,65.2,30.03,SW,225,0.0,1.3,38,0.00,,---,0.00,VWS V14.01,2013-08-14 15:19:00,
2013-08-14 10:20:00,95.3,65.7,30.03,WSW,248,1.1,1.6,38,0.00,,---,0.29,VWS V14.01,2013-08-14 15:20:00,
2013-08-14 10:21:00,94.7,64.4,30.03,SW,225,7.6,7.6,37,0.00,,---,0.00,VWS V14.01,2013-08-14 15:21:00,
2013-08-14 10:22:00,94.7,64.4,30.03,WSW,248,3.6,7.6,37,0.00,,---,0.00,VWS V14.01,2013-08-14 15:22:00,
2013-08-14 10:23:00,94.9,65.3,30.03,WSW,248,0.9,3.6,38,0.00,,---,0.00,VWS V14.01,2013-08-14 15:23:00,
2013-08-14 10:24:00,95.3,64.9,30.03,SW,225,2.9,3.8,37,0.00,,---,0.00,VWS V14.01,2013-08-14 15:24:00,
2013-08-14 10:25:00,95.1,64.8,30.03,South,180,3.6,3.6,37,0.00,,---,0.00,VWS V14.01,2013-08-14 15:25:00,
2013-08-14 10:26:00,95.1,64.8,30.03,South,180,1.6,3.6,37,0.00,,---,0.00,VWS V14.01,2013-08-14 15:26:00,
2013-08-14 10:27:00,95.3,64.9,30.03,SW,225,1.6,3.4,37,0.00,,---,0.00,VWS V14.01,2013-08-14 15:27:00,
2013-08-14 10:28:00,95.8,65.4,30.03,NW,315,1.3,2.9,37,0.00,,---,0.00,VWS V14.01,2013-08-14 15:28:00,
2013-08-14 10:29:00,96.0,65.5,30.03,North,0,2.5,4.3,37,0.00,,---,0.00,VWS V14.01,2013-08-14 15:29:00,
2013-08-14 10:30:00,96.0,65.5,30.03,NNW,338,2.5,4.9,37,0.00,,---,0.00,VWS V14.01,2013-08-14 15:30:00,
2013-08-14 10:31:00,96.0,65.5,30.03,NNW,338,5.8,5.8,37,0.00,,---,0.00,VWS V14.01,2013-08-14 15:31:00,
2013-08-14 10:32:00,95.4,65.1,30.03,WNW,292,5.8,8.5,37,0.00,,---,0.00,VWS V14.01,2013-08-14 15:32:00,
2013-08-14 10:33:00,95.3,64.9,30.03,SW,225,3.1,7.6,37,0.00,,---,0.00,VWS V14.01,2013-08-14 15:33:00,
2013-08-14 10:34:00,95.6,65.2,30.03,West,270,3.6,5.8,37,0.00,,---,0.00,VWS V14.01,2013-08-14 15:34:00,
2013-08-14 10:35:00,95.8,64.6,30.03,NW,315,4.3,4.7,36,0.00,,---,0.00,VWS V14.01,2013-08-14 15:35:00,
2013-08-14 10:36:00,96.0,64.7,30.03,West,270,4.7,4.7,36,0.00,,---,0.00,VWS V14.01,2013-08-14 15:36:00,
2013-08-14 10:37:00,96.2,65.7,30.03,West,270,3.1,4.7,37,0.00,,---,0.00,VWS V14.01,2013-08-14 15:37:00,
2013-08-14 10:38:00,96.0,64.7,30.03,WSW,248,4.0,4.7,36,0.00,,---,0.00,VWS V14.01,2013-08-14 15:38:00,
2013-08-14 10:39:00,96.3,65.1,30.03,SSW,202,4.0,4.0,36,0.00,,---,0.00,VWS V14.01,2013-08-14 15:39:00,
2013-08-14 10:40:00,96.3,65.1,30.03,SE,135,2.9,4.0,36,0.00,,---,0.00,VWS V14.01,2013-08-14 15:40:00,
2013-08-14 10:41:00,96.3,65.1,30.03,East,90,3.4,4.0,36,0.00,,---,0.00,VWS V14.01,2013-08-14 15:41:00,
2013-08-14 10:42:00,97.0,66.5,30.03,WNW,292,1.6,1.6,37,0.00,,---,0.00,VWS V14.01,2013-08-14 15:42:00,
2013-08-14 10:43:00,97.0,65.7,30.03,West,270,3.4,6.3,36,0.00,,---,0.00,VWS V14.01,2013-08-14 15:43:00,
2013-08-14 10:44:00,97.2,65.8,30.03,WSW,248,1.3,3.4,36,0.00,,---,0.00,VWS V14.01,2013-08-14 15:44:00,
2013-08-14 10:45:00,97.2,65.8,30.03,SW,225,5.4,5.6,36,0.00,,---,0.00,VWS V14.01,2013-08-14 15:45:00,
2013-08-14 10:46:00,97.2,65.8,30.03,NNW,338,3.1,5.4,36,0.00,,---,0.00,VWS V14.01,2013-08-14 15:46:00,
2013-08-14 10:47:00,96.9,65.5,30.03,NW,315,5.8,5.8,36,0.00,,---,0.00,VWS V14.01,2013-08-14 15:47:00,
2013-08-14 10:48:00,96.5,65.2,30.03,SW,225,2.5,8.1,36,0.00,,---,0.00,VWS V14.01,2013-08-14 15:48:00,
2013-08-14 10:49:00,96.7,65.4,30.03,South,180,2.7,2.7,36,0.00,,---,0.00,VWS V14.01,2013-08-14 15:49:00,
2013-08-14 10:50:00,96.7,65.4,30.03,SSE,158,2.7,4.9,36,0.00,,---,0.00,VWS V14.01,2013-08-14 15:50:00,
2013-08-14 10:51:00,96.7,65.4,30.03,NNW,338,4.0,6.3,36,0.00,,---,0.00,VWS V14.01,2013-08-14 15:51:00,
2013-08-14 10:52:00,96.5,65.2,30.03,West,270,6.5,6.5,36,0.00,,---,0.00,VWS V14.01,2013-08-14 15:52:00,
2013-08-14 10:53:00,96.7,65.4,30.03,SW,225,1.1,6.5,36,0.00,,---,0.00,VWS V14.01,2013-08-14 15:53:00,
2013-08-14 10:54:00,97.0,65.7,30.03,South,180,1.6,1.6,36,0.00,,---,0.00,VWS V14.01,2013-08-14 15:54:00,
2013-08-14 10:55:00,97.0,64.9,30.03,West,270,3.6,6.3,35,0.00,,---,0.00,VWS V14.01,2013-08-14 15:55:00,
2013-08-14 10:56:00,97.2,65.8,30.03,NNW,338,3.8,3.8,36,0.00,,---,0.00,VWS V14.01,2013-08-14 15:56:00,
2013-08-14 10:57:00,97.4,65.2,30.03,NW,315,2.5,5.8,35,0.00,,---,0.00,VWS V14.01,2013-08-14 15:57:00,
2013-08-14 10:58:00,97.4,65.2,30.03,North,0,4.0,5.6,35,0.00,,---,0.00,VWS V14.01,2013-08-14 15:58:00,
2013-08-14 10:59:00,97.8,65.5,30.03,NNW,338,3.6,4.0,35,0.00,,---,0.00,VWS V14.01,2013-08-14 15:59:00,
2013-08-14 11:00:00,97.9,65.6,30.03,West,270,0.9,3.6,35,0.00,,---,0.29,VWS V14.01,2013-08-14 16:00:00,
2013-08-14 11:01:00,98.3,65.9,30.03,WSW,248,3.1,3.1,35,0.00,,---,0.00,VWS V14.01,2013-08-14 16:01:00,
2013-08-14 11:02:00,98.3,65.9,30.03,West,270,9.6,9.6,35,0.00,,---,0.00,VWS V14.01,2013-08-14 16:02:00,
2013-08-14 11:03:00,97.6,64.5,30.03,WNW,292,5.6,9.6,34,0.00,,---,0.00,VWS V14.01,2013-08-14 16:03:00,
2013-08-14 11:04:00,97.6,65.3,30.03,West,270,6.3,6.5,35,0.00,,---,0.00,VWS V14.01,2013-08-14 16:04:00,
2013-08-14 11:05:00,97.6,65.3,30.03,WNW,292,6.0,6.3,35,0.00,,---,0.00,VWS V14.01,2013-08-14 16:05:00,
2013-08-14 11:06:00,97.6,65.3,30.03,WSW,248,2.0,6.5,35,0.00,,---,0.00,VWS V14.01,2013-08-14 16:06:00,
2013-08-14 11:07:00,97.9,64.8,30.03,SW,225,6.0,6.0,34,0.00,,---,0.00,VWS V14.01,2013-08-14 16:07:00,
2013-08-14 11:08:00,97.2,64.2,30.03,WNW,292,5.6,6.5,34,0.00,,---,0.00,VWS V14.01,2013-08-14 16:08:00,
2013-08-14 11:09:00,96.9,64.7,30.03,WSW,248,4.7,7.4,35,0.00,,---,0.00,VWS V14.01,2013-08-14 16:09:00,
2013-08-14 11:10:00,97.8,65.5,30.03,SSW,202,4.9,4.9,35,0.00,,---,0.00,VWS V14.01,2013-08-14 16:10:00,
2013-08-14 11:11:00,97.8,65.5,30.03,West,270,5.4,5.4,35,0.00,,---,0.00,VWS V14.01,2013-08-14 16:11:00,
2013-08-14 11:12:00,97.8,64.7,30.03,West,270,3.4,5.4,34,0.00,,---,0.00,VWS V14.01,2013-08-14 16:12:00,
2013-08-14 11:13:00,98.3,65.9,30.03,East,90,0.0,3.4,35,0.00,,---,0.00,VWS V14.01,2013-08-14 16:13:00,
2013-08-14 11:14:00,98.3,65.1,30.03,SSW,202,6.3,6.3,34,0.00,,---,0.00,VWS V14.01,2013-08-14 16:14:00,
2013-08-14 11:15:00,98.3,65.1,30.03,SSW,202,6.3,6.3,34,0.00,,---,0.00,VWS V14.01,2013-08-14 16:15:00,
2013-08-14 11:16:00,98.5,65.3,30.03,SSW,202,4.9,6.3,34,0.00,,---,0.00,VWS V14.01,2013-08-14 16:16:00,
2013-08-14 11:17:00,98.6,65.4,30.03,WSW,248,4.3,4.9,34,0.00,,---,0.00,VWS V14.01,2013-08-14 16:17:00,
2013-08-14 11:18:00,98.8,65.6,30.03,West,270,1.1,4.3,34,0.00,,---,0.00,VWS V14.01,2013-08-14 16:18:00,
2013-08-14 11:19:00,99.3,66.1,30.03,North,0,0.0,1.1,34,0.00,,---,0.00,VWS V14.01,2013-08-14 16:19:00,
2013-08-14 11:20:00,99.7,66.3,30.03,South,180,0.0,1.3,34,0.00,,---,0.00,VWS V14.01,2013-08-14 16:20:00,
2013-08-14 11:21:00,100.2,66.8,30.03,WSW,248,2.7,2.7,34,0.00,,---,0.00,VWS V14.01,2013-08-14 16:21:00,
2013-08-14 11:22:00,100.4,67.0,30.03,SW,225,1.3,2.7,34,0.00,,---,0.00,VWS V14.01,2013-08-14 16:22:00,
2013-08-14 11:23:00,100.4,67.0,30.03,SW,225,1.1,2.0,34,0.00,,---,0.00,VWS V14.01,2013-08-14 16:23:00,
2013-08-14 11:24:00,100.6,67.1,30.03,East,90,0.9,3.6,34,0.00,,---,0.00,VWS V14.01,2013-08-14 16:24:00,
2013-08-14 11:25:00,100.9,66.6,30.03,East,90,2.7,4.0,33,0.00,,---,0.00,VWS V14.01,2013-08-14 16:25:00,
2013-08-14 11:26:00,101.1,66.7,30.03,NNW,338,2.7,5.4,33,0.00,,---,0.00,VWS V14.01,2013-08-14 16:26:00,
2013-08-14 11:27:00,100.9,66.6,30.03,North,0,4.0,4.3,33,0.00,,---,0.00,VWS V14.01,2013-08-14 16:27:00,
2013-08-14 11:28:00,100.9,66.6,30.03,South,180,1.6,4.0,33,0.00,,---,0.00,VWS V14.01,2013-08-14 16:28:00,
2013-08-14 11:29:00,101.3,66.9,30.03,South,180,0.9,2.5,33,0.00,,---,0.00,VWS V14.01,2013-08-14 16:29:00,
2013-08-14 11:30:00,101.5,67.0,30.03,SW,225,2.5,2.7,33,0.00,,---,0.00,VWS V14.01,2013-08-14 16:30:00,
2013-08-14 11:31:00,101.3,66.0,30.00,WSW,248,3.6,3.8,32,0.00,,---,0.00,VWS V14.01,2013-08-14 16:31:00,
2013-08-14 11:32:00,101.7,66.3,30.00,SSW,202,2.0,3.6,32,0.00,,---,0.00,VWS V14.01,2013-08-14 16:32:00,
2013-08-14 11:33:00,101.8,66.4,30.00,ENE,68,1.6,2.5,32,0.00,,---,0.00,VWS V14.01,2013-08-14 16:33:00,
2013-08-14 11:34:00,101.8,66.4,30.00,East,90,4.0,4.0,32,0.00,,---,0.00,VWS V14.01,2013-08-14 16:34:00,
2013-08-14 11:35:00,101.8,66.4,30.00,WSW,248,3.8,5.8,32,0.00,,---,0.00,VWS V14.01,2013-08-14 16:35:00,
2013-08-14 11:36:00,100.8,64.6,30.00,SW,225,5.8,5.8,31,0.00,,---,0.00,VWS V14.01,2013-08-14 16:36:00,
2013-08-14 11:37:00,100.8,65.5,30.00,SSW,202,2.9,6.0,32,0.00,,---,0.00,VWS V14.01,2013-08-14 16:37:00,
2013-08-14 11:38:00,100.9,64.8,30.00,South,180,3.1,4.0,31,0.00,,---,0.00,VWS V14.01,2013-08-14 16:38:00,
2013-08-14 11:39:00,100.9,64.8,30.00,SE,135,1.3,6.0,31,0.00,,---,0.00,VWS V14.01,2013-08-14 16:39:00,
2013-08-14 11:40:00,100.9,64.8,30.00,SW,225,3.6,3.6,31,0.00,,---,0.00,VWS V14.01,2013-08-14 16:40:00,
2013-08-14 11:41:00,100.8,64.6,30.00,SW,225,2.9,4.9,31,0.00,,---,0.00,VWS V14.01,2013-08-14 16:41:00,
2013-08-14 11:42:00,100.4,64.3,30.00,SSE,158,2.7,3.8,31,0.00,,---,0.00,VWS V14.01,2013-08-14 16:42:00,
2013-08-14 11:43:00,100.4,64.3,30.00,SSW,202,4.7,6.5,31,0.00,,---,0.00,VWS V14.01,2013-08-14 16:43:00,
2013-08-14 11:44:00,100.2,64.2,30.00,SW,225,4.3,6.5,31,0.00,,---,0.00,VWS V14.01,2013-08-14 16:44:00,
2013-08-14 11:45:00,100.1,64.0,30.00,SSW,202,3.6,5.6,31,0.00,,---,0.00,VWS V14.01,2013-08-14 16:45:00,
2013-08-14 11:46:00,100.2,64.2,30.00,SW,225,0.9,3.6,31,0.00,,---,0.00,VWS V14.01,2013-08-14 16:46:00,
2013-08-14 11:47:00,100.6,65.4,30.00,South,180,2.5,2.5,32,0.00,,---,0.00,VWS V14.01,2013-08-14 16:47:00,
2013-08-14 11:48:00,100.8,65.5,30.00,SW,225,0.0,2.5,32,0.00,,---,0.00,VWS V14.01,2013-08-14 16:48:00,
2013-08-14 11:49:00,101.1,64.9,30.00,SSW,202,2.5,2.5,31,0.00,,---,0.00,VWS V14.01,2013-08-14 16:49:00,
2013-08-14 11:50:00,100.9,64.8,30.00,West,270,2.2,3.4,31,0.00,,---,0.00,VWS V14.01,2013-08-14 16:50:00,
2013-08-14 11:51:00,101.5,66.1,30.00,NW,315,2.5,2.5,32,0.00,,---,0.00,VWS V14.01,2013-08-14 16:51:00,
2013-08-14 11:52:00,101.7,65.4,30.00,WNW,292,2.5,2.5,31,0.00,,---,0.00,VWS V14.01,2013-08-14 16:52:00,
2013-08-14 11:53:00,101.7,65.4,30.00,NW,315,3.1,3.1,31,0.00,,---,0.00,VWS V14.01,2013-08-14 16:53:00,
2013-08-14 11:54:00,101.5,65.2,30.00,WSW,248,3.1,4.3,31,0.00,,---,0.00,VWS V14.01,2013-08-14 16:54:00,
2013-08-14 11:55:00,101.5,64.3,30.00,SW,225,2.7,4.7,30,0.00,,---,0.00,VWS V14.01,2013-08-14 16:55:00,
2013-08-14 11:56:00,101.5,64.3,30.00,West,270,3.6,4.3,30,0.00,,---,0.00,VWS V14.01,2013-08-14 16:56:00,
2013-08-14 11:57:00,101.5,64.3,30.00,North,0,1.3,3.6,30,0.00,,---,0.00,VWS V14.01,2013-08-14 16:57:00,
2013-08-14 11:58:00,101.3,64.1,30.00,NNW,338,3.1,5.4,30,0.00,,---,0.00,VWS V14.01,2013-08-14 16:58:00,
2013-08-14 11:59:00,101.3,63.2,30.00,NNW,338,5.8,6.3,29,0.00,,---,0.00,VWS V14.01,2013-08-14 16:59:00,
2013-08-14 12:00:00,101.1,64.0,30.00,West,270,3.8,5.8,30,0.00,,---,0.00,VWS V14.01,2013-08-14 17:00:00,
2013-08-14 12:01:00,101.1,64.0,30.00,NW,315,5.6,5.6,30,0.00,,---,0.00,VWS V14.01,2013-08-14 17:01:00,
2013-08-14 12:02:00,101.1,64.0,30.00,WSW,248,0.9,6.0,30,0.00,,---,0.00,VWS V14.01,2013-08-14 17:02:00,
2013-08-14 12:03:00,101.3,63.2,30.00,WSW,248,2.5,3.6,29,0.00,,---,0.00,VWS V14.01,2013-08-14 17:03:00,
2013-08-14 12:04:00,101.3,63.2,30.00,WNW,292,7.8,7.8,29,0.00,,---,0.00,VWS V14.01,2013-08-14 17:04:00,
2013-08-14 12:05:00,100.1,62.1,30.00,WNW,292,6.0,7.8,29,0.00,,---,0.00,VWS V14.01,2013-08-14 17:05:00,
2013-08-14 12:06:00,100.6,62.6,30.00,WNW,292,4.0,6.0,29,0.00,,---,0.00,VWS V14.01,2013-08-14 17:06:00,
2013-08-14 12:07:00,100.8,63.7,30.00,SSW,202,2.5,4.0,30,0.00,,---,0.00,VWS V14.01,2013-08-14 17:07:00,
2013-08-14 12:08:00,100.9,62.9,30.00,SW,225,2.5,3.4,29,0.00,,---,0.00,VWS V14.01,2013-08-14 17:08:00,
2013-08-14 12:09:00,101.1,63.0,30.00,East,90,2.2,2.9,29,0.00,,---,0.00,VWS V14.01,2013-08-14 17:09:00,
2013-08-14 12:10:00,101.7,63.5,30.00,NNW,338,1.1,2.2,29,0.00,,---,0.00,VWS V14.01,2013-08-14 17:10:00,
2013-08-14 12:11:00,102.0,64.8,30.00,WNW,292,1.3,2.2,30,0.00,,---,0.00,VWS V14.01,2013-08-14 17:11:00,
2013-08-14 12:12:00,102.5,65.2,30.00,NNE,22,1.6,2.2,30,0.00,,---,0.00,VWS V14.01,2013-08-14 17:12:00,
2013-08-14 12:13:00,102.7,64.4,30.00,NNW,338,4.3,4.3,29,0.00,,---,0.00,VWS V14.01,2013-08-14 17:13:00,
2013-08-14 12:14:00,102.4,64.1,30.00,North,0,4.9,5.6,29,0.00,,---,0.00,VWS V14.01,2013-08-14 17:14:00,
2013-08-14 12:15:00,102.5,64.2,30.00,North,0,3.1,4.9,29,0.00,,---,0.00,VWS V14.01,2013-08-14 17:15:00,
2013-08-14 12:16:00,102.7,63.4,30.00,NNW,338,2.5,3.1,28,0.00,,---,0.00,VWS V14.01,2013-08-14 17:16:00,
2013-08-14 12:17:00,102.7,64.4,30.00,West,270,3.8,5.4,29,0.00,,---,0.00,VWS V14.01,2013-08-14 17:17:00,
2013-08-14 12:18:00,102.5,64.2,30.00,NNW,338,5.6,5.8,29,0.00,,---,0.00,VWS V14.01,2013-08-14 17:18:00,
2013-08-14 12:19:00,102.2,63.9,30.00,NNE,22,4.9,6.3,29,0.00,,---,0.00,VWS V14.01,2013-08-14 17:19:00,
2013-08-14 12:20:00,102.0,63.8,30.00,North,0,4.3,6.0,29,0.00,,---,0.00,VWS V14.01,2013-08-14 17:20:00,
2013-08-14 12:21:00,101.8,63.6,30.00,North,0,4.0,4.9,29,0.00,,---,0.00,VWS V14.01,2013-08-14 17:21:00,
2013-08-14 12:22:00,102.4,64.1,30.00,ENE,68,0.9,1.6,29,0.00,,---,0.00,VWS V14.01,2013-08-14 17:22:00,
2013-08-14 12:23:00,102.4,64.1,30.00,SSE,158,1.6,1.6,29,0.00,,---,0.00,VWS V14.01,2013-08-14 17:23:00,
2013-08-14 12:24:00,102.5,65.2,30.00,SE,135,1.3,2.0,30,0.00,,---,0.00,VWS V14.01,2013-08-14 17:24:00,
2013-08-14 12:25:00,102.5,64.2,30.00,East,90,3.1,4.0,29,0.00,,---,0.00,VWS V14.01,2013-08-14 17:25:00,
2013-08-14 12:26:00,102.7,64.4,30.00,NNE,22,4.7,4.7,29,0.00,,---,0.00,VWS V14.01,2013-08-14 17:26:00,
2013-08-14 12:27:00,102.5,64.2,30.00,ENE,68,2.9,4.7,29,0.00,,---,0.00,VWS V14.01,2013-08-14 17:27:00,
2013-08-14 12:28:00,103.1,64.7,30.00,SSE,158,1.6,2.9,29,0.00,,---,0.00,VWS V14.01,2013-08-14 17:28:00,
2013-08-14 12:29:00,103.2,64.8,30.00,SSW,202,3.6,3.6,29,0.00,,---,0.00,VWS V14.01,2013-08-14 17:29:00,
2013-08-14 12:30:00,102.9,63.5,30.00,South,180,3.8,6.7,28,0.00,,---,0.00,VWS V14.01,2013-08-14 17:30:00,
2013-08-14 12:31:00,102.9,64.5,30.00,NW,315,2.7,3.8,29,0.00,,---,0.00,VWS V14.01,2013-08-14 17:31:00,
2013-08-14 12:32:00,102.9,63.5,30.00,West,270,7.2,7.2,28,0.00,,---,0.00,VWS V14.01,2013-08-14 17:32:00,
2013-08-14 12:33:00,102.5,64.2,30.00,WNW,292,3.1,7.6,29,0.00,,---,0.00,VWS V14.01,2013-08-14 17:33:00,
2013-08-14 12:35:00,102.5,64.2,30.00,West,270,4.9,6.9,29,0.00,,---,0.00,VWS V14.01,2013-08-14 17:35:00,
2013-08-14 12:36:00,102.5,64.2,30.00,SSE,158,1.6,8.5,29,0.00,,---,0.00,VWS V14.01,2013-08-14 17:36:00,
2013-08-14 12:37:00,102.9,64.5,30.00,WNW,292,3.4,5.4,29,0.00,,---,0.00,VWS V14.01,2013-08-14 17:37:00,
2013-08-14 12:38:00,103.2,64.8,30.00,NW,315,2.7,2.7,29,0.00,,---,0.00,VWS V14.01,2013-08-14 17:38:00,
2013-08-14 12:39:00,102.5,63.2,30.00,NW,315,10.7,10.7,28,0.00,,---,0.00,VWS V14.01,2013-08-14 17:39:00,
2013-08-14 12:40:00,102.0,63.8,30.00,North,0,5.4,10.7,29,0.00,,---,0.00,VWS V14.01,2013-08-14 17:40:00,
2013-08-14 12:41:00,102.2,63.9,30.00,West,270,4.0,5.4,29,0.00,,---,0.00,VWS V14.01,2013-08-14 17:41:00,
2013-08-14 12:42:00,102.4,64.1,30.00,WSW,248,4.9,6.0,29,0.00,,---,0.00,VWS V14.01,2013-08-14 17:42:00,
2013-08-14 12:43:00,102.4,63.1,30.00,West,270,2.7,3.8,28,0.00,,---,0.00,VWS V14.01,2013-08-14 17:43:00,
2013-08-14 12:44:00,102.7,64.4,30.00,NW,315,3.1,6.3,29,0.00,,---,0.00,VWS V14.01,2013-08-14 17:44:00,
2013-08-14 12:45:00,102.9,63.5,30.00,NNW,338,6.3,6.3,28,0.00,,---,0.00,VWS V14.01,2013-08-14 17:45:00,
2013-08-14 12:46:00,102.5,64.2,30.00,NW,315,6.0,6.3,29,0.00,,---,0.00,VWS V14.01,2013-08-14 17:46:00,
2013-08-14 12:47:00,102.7,63.4,30.00,NW,315,3.8,3.8,28,0.00,,---,0.00,VWS V14.01,2013-08-14 17:47:00,
2013-08-14 12:48:00,103.2,63.8,30.00,SW,225,2.5,3.8,28,0.00,,---,0.00,VWS V14.01,2013-08-14 17:48:00,
2013-08-14 12:49:00,103.2,63.8,30.00,NW,315,6.0,6.0,28,0.00,,---,0.00,VWS V14.01,2013-08-14 17:49:00,
2013-08-14 12:50:00,103.4,64.0,30.00,NW,315,5.6,6.3,28,0.00,,---,0.00,VWS V14.01,2013-08-14 17:50:00,
2013-08-14 12:51:00,103.4,64.0,30.00,NNE,22,3.1,5.6,28,0.00,,---,0.00,VWS V14.01,2013-08-14 17:51:00,
2013-08-14 12:52:00,103.8,65.3,30.00,NNW,338,2.7,3.1,29,0.00,,---,0.00,VWS V14.01,2013-08-14 17:52:00,
2013-08-14 12:53:00,104.3,65.8,30.00,NNW,338,2.0,2.7,29,0.00,,---,0.00,VWS V14.01,2013-08-14 17:53:00,
2013-08-14 12:54:00,103.9,64.4,30.00,North,0,3.4,4.9,28,0.00,,---,0.00,VWS V14.01,2013-08-14 17:54:00,
2013-08-14 12:55:00,104.5,64.9,30.00,NNW,338,2.9,3.4,28,0.00,,---,0.00,VWS V14.01,2013-08-14 17:55:00,
2013-08-14 12:56:00,104.8,65.2,30.00,West,270,2.5,2.9,28,0.00,,---,0.00,VWS V14.01,2013-08-14 17:56:00,
2013-08-14 12:57:00,105.0,65.3,30.00,SW,225,2.5,3.6,28,0.00,,---,0.00,VWS V14.01,2013-08-14 17:57:00,
2013-08-14 12:58:00,104.7,64.0,30.00,NNW,338,6.5,6.5,27,0.00,,---,0.00,VWS V14.01,2013-08-14 17:58:00,
2013-08-14 12:59:00,103.9,64.4,30.00,North,0,5.4,6.5,28,0.00,,---,0.00,VWS V14.01,2013-08-14 17:59:00,
2013-08-14 13:00:00,104.1,63.5,30.00,North,0,4.0,7.6,27,0.00,,---,0.00,VWS V14.01,2013-08-14 18:00:00,
2013-08-14 13:01:00,104.1,64.6,29.97,NNW,338,6.3,6.3,28,0.00,,---,0.00,VWS V14.01,2013-08-14 18:01:00,
2013-08-14 13:02:00,103.9,64.4,29.97,NE,45,4.0,6.5,28,0.00,,---,0.00,VWS V14.01,2013-08-14 18:02:00,
2013-08-14 13:03:00,104.1,64.6,29.97,North,0,3.6,4.0,28,0.00,,---,0.00,VWS V14.01,2013-08-14 18:03:00,
2013-08-14 13:04:00,104.5,63.8,29.97,East,90,5.6,5.6,27,0.00,,---,0.00,VWS V14.01,2013-08-14 18:04:00,
2013-08-14 13:05:00,104.5,63.8,29.97,WSW,248,2.0,5.6,27,0.00,,---,0.00,VWS V14.01,2013-08-14 18:05:00,
2013-08-14 13:06:00,104.7,64.0,29.97,WNW,292,3.8,3.8,27,0.00,,---,0.00,VWS V14.01,2013-08-14 18:06:00,
2013-08-14 13:07:00,104.5,63.8,29.97,NW,315,3.8,3.8,27,0.00,,---,0.00,VWS V14.01,2013-08-14 18:07:00,
2013-08-14 13:09:00,104.1,64.6,29.97,West,270,4.0,5.8,28,0.00,,---,0.00,VWS V14.01,2013-08-14 18:09:00,
2013-08-14 13:10:00,104.1,64.6,29.97,WNW,292,2.7,5.4,28,0.00,,---,0.00,VWS V14.01,2013-08-14 18:10:00,
2013-08-14 13:11:00,104.1,64.6,29.97,WNW,292,1.1,7.6,28,0.00,,---,0.00,VWS V14.01,2013-08-14 18:11:00,
2013-08-14 13:12:00,104.3,65.8,29.97,NE,45,4.0,5.4,29,0.00,,---,0.00,VWS V14.01,2013-08-14 18:12:00,
2013-08-14 13:13:00,104.1,64.6,29.97,WNW,292,5.6,5.6,28,0.00,,---,0.00,VWS V14.01,2013-08-14 18:13:00,
2013-08-14 13:14:00,103.6,64.1,29.97,NW,315,1.6,6.5,28,0.00,,---,0.00,VWS V14.01,2013-08-14 18:14:00,
2013-08-14 13:15:00,103.9,64.4,29.97,NNW,338,3.8,5.6,28,0.00,,---,0.00,VWS V14.01,2013-08-14 18:15:00,
2013-08-14 13:16:00,104.1,64.6,29.97,North,0,2.7,3.8,28,0.00,,---,0.00,VWS V14.01,2013-08-14 18:16:00,
2013-08-14 13:17:00,104.3,64.7,29.97,North,0,4.0,4.0,28,0.00,,---,0.00,VWS V14.01,2013-08-14 18:17:00,
2013-08-14 13:18:00,103.9,64.4,29.97,NW,315,6.3,7.2,28,0.00,,---,0.00,VWS V14.01,2013-08-14 18:18:00,
2013-08-14 13:19:00,103.8,64.3,29.97,NE,45,5.8,7.2,28,0.00,,---,0.00,VWS V14.01,2013-08-14 18:19:00,
2013-08-14 13:20:00,103.9,64.4,29.97,NNE,22,4.0,5.8,28,0.00,,---,0.00,VWS V14.01,2013-08-14 18:20:00,
2013-08-14 13:21:00,104.3,63.7,29.97,NNW,338,5.8,5.8,27,0.00,,---,0.00,VWS V14.01,2013-08-14 18:21:00,
2013-08-14 13:22:00,104.3,63.7,29.97,North,0,2.7,5.8,27,0.00,,---,0.00,VWS V14.01,2013-08-14 18:22:00,
2013-08-14 13:23:00,104.8,64.2,29.97,North,0,0.0,3.1,27,0.00,,---,0.00,VWS V14.01,2013-08-14 18:23:00,
2013-08-14 13:24:00,105.2,64.4,29.97,South,180,3.1,3.1,27,0.00,,---,0.00,VWS V14.01,2013-08-14 18:24:00,
2013-08-14 13:25:00,104.7,64.0,29.97,West,270,3.4,3.4,27,0.00,,---,0.00,VWS V14.01,2013-08-14 18:25:00,
2013-08-14 13:26:00,103.2,63.8,29.97,West,270,3.6,10.7,28,0.00,,---,0.00,VWS V14.01,2013-08-14 18:26:00,
2013-08-14 13:27:00,103.6,64.1,29.97,NW,315,4.9,6.5,28,0.00,,---,0.00,VWS V14.01,2013-08-14 18:27:00,
2013-08-14 13:28:00,103.6,64.1,29.97,NW,315,3.8,4.9,28,0.00,,---,0.00,VWS V14.01,2013-08-14 18:28:00,
2013-08-14 13:31:00,100.9,61.9,29.97,NW,315,3.8,6.5,28,0.00,,---,0.00,VWS V14.01,2013-08-14 18:31:00,
2013-08-14 13:32:00,100.8,62.7,29.97,West,270,4.3,4.9,29,0.00,,---,0.00,VWS V14.01,2013-08-14 18:32:00,
2013-08-14 13:33:00,101.3,62.2,29.97,NNW,338,2.9,4.3,28,0.00,,---,0.00,VWS V14.01,2013-08-14 18:33:00,
2013-08-14 13:34:00,101.8,63.6,29.97,WNW,292,2.9,3.8,29,0.00,,---,0.00,VWS V14.01,2013-08-14 18:34:00,
2013-08-14 13:35:00,101.8,63.6,29.97,NW,315,6.3,6.3,29,0.00,,---,0.00,VWS V14.01,2013-08-14 18:35:00,
2013-08-14 13:36:00,102.4,63.1,29.97,North,0,4.7,6.3,28,0.00,,---,0.00,VWS V14.01,2013-08-14 18:36:00,
2013-08-14 13:37:00,103.1,63.7,29.97,North,0,3.4,6.0,28,0.00,,---,0.00,VWS V14.01,2013-08-14 18:37:00,
2013-08-14 13:38:00,103.4,64.0,29.97,NW,315,4.3,4.5,28,0.00,,---,0.00,VWS V14.01,2013-08-14 18:38:00,
2013-08-14 13:39:00,103.8,64.3,29.97,NNE,22,5.6,5.6,28,0.00,,---,0.00,VWS V14.01,2013-08-14 18:39:00,
2013-08-14 13:40:00,104.3,64.7,29.97,ENE,68,2.2,5.6,28,0.00,,---,0.00,VWS V14.01,2013-08-14 18:40:00,
2013-08-14 13:41:00,104.5,63.8,29.97,North,0,6.3,6.3,27,0.00,,---,0.00,VWS V14.01,2013-08-14 18:41:00,
2013-08-14 13:42:00,104.5,63.8,29.97,NNW,338,3.8,6.9,27,0.00,,---,0.00,VWS V14.01,2013-08-14 18:42:00,
2013-08-14 13:43:00,104.5,63.8,29.97,NNE,22,5.8,5.8,27,0.00,,---,0.00,VWS V14.01,2013-08-14 18:43:00,
2013-08-14 13:44:00,104.5,63.8,29.97,NNE,22,4.0,5.8,27,0.00,,---,0.00,VWS V14.01,2013-08-14 18:44:00,
2013-08-14 13:45:00,105.0,65.3,29.97,North,0,4.3,4.7,28,0.00,,---,0.00,VWS V14.01,2013-08-14 18:45:00,
2013-08-14 13:46:00,105.0,64.3,29.97,West,270,5.4,5.6,27,0.00,,---,0.00,VWS V14.01,2013-08-14 18:46:00,
2013-08-14 13:47:00,104.7,64.0,29.97,North,0,4.9,9.0,27,0.00,,---,0.00,VWS V14.01,2013-08-14 18:47:00,
2013-08-14 13:49:00,103.9,63.4,29.97,NNW,338,9.8,10.5,27,0.00,,---,0.00,VWS V14.01,2013-08-14 18:49:00,
2013-08-14 13:50:00,103.4,63.0,29.97,North,0,7.4,9.8,27,0.00,,---,0.00,VWS V14.01,2013-08-14 18:50:00,
2013-08-14 13:51:00,103.4,63.0,29.97,North,0,5.8,8.7,27,0.00,,---,0.00,VWS V14.01,2013-08-14 18:51:00,
2013-08-14 13:52:00,103.6,64.1,29.97,North,0,4.7,5.8,28,0.00,,---,0.00,VWS V14.01,2013-08-14 18:52:00,
2013-08-14 13:53:00,103.9,64.4,29.97,NNW,338,4.3,4.5,28,0.00,,---,0.00,VWS V14.01,2013-08-14 18:53:00,
2013-08-14 13:54:00,104.1,63.5,29.97,NW,315,7.6,7.6,27,0.00,,---,0.00,VWS V14.01,2013-08-14 18:54:00,
2013-08-14 13:55:00,104.1,64.6,29.97,NW,315,4.9,7.6,28,0.00,,---,0.00,VWS V14.01,2013-08-14 18:55:00,
2013-08-14 13:56:00,104.5,63.8,29.97,NW,315,3.4,4.9,27,0.00,,---,0.00,VWS V14.01,2013-08-14 18:56:00,
2013-08-14 13:57:00,105.0,64.3,29.97,NW,315,6.0,6.0,27,0.00,,---,0.00,VWS V14.01,2013-08-14 18:57:00,
2013-08-14 13:58:00,104.8,64.2,29.97,West,270,5.4,6.0,27,0.00,,---,0.00,VWS V14.01,2013-08-14 18:58:00,
2013-08-14 13:59:00,104.7,62.9,29.97,NW,315,4.9,6.5,26,0.00,,---,0.00,VWS V14.01,2013-08-14 18:59:00,
2013-08-14 14:00:00,105.4,64.6,29.97,NW,315,0.9,4.9,27,0.00,,---,0.00,VWS V14.01,2013-08-14 19:00:00,
2013-08-14 14:01:00,105.4,64.6,29.97,NNW,338,3.1,5.4,27,0.00,,---,0.00,VWS V14.01,2013-08-14 19:01:00,
2013-08-14 14:02:00,105.0,64.3,29.97,North,0,6.0,6.0,27,0.00,,---,0.00,VWS V14.01,2013-08-14 19:02:00,
2013-08-14 14:03:00,105.0,64.3,29.97,NNW,338,5.6,6.0,27,0.00,,---,0.00,VWS V14.01,2013-08-14 19:03:00,
2013-08-14 14:04:00,105.2,64.4,29.97,North,0,3.4,4.3,27,0.00,,---,0.00,VWS V14.01,2013-08-14 19:04:00,
2013-08-14 14:05:00,105.2,64.4,29.97,NNE,22,5.4,5.4,27,0.00,,---,0.00,VWS V14.01,2013-08-14 19:05:00,
2013-08-14 14:06:00,105.4,63.5,29.97,NNE,22,3.8,5.6,26,0.00,,---,0.00,VWS V14.01,2013-08-14 19:06:00,
2013-08-14 14:07:00,106.3,64.3,29.97,WSW,248,0.0,2.5,26,0.00,,---,0.00,VWS V14.01,2013-08-14 19:07:00,
2013-08-14 14:08:00,106.6,64.6,29.97,NE,45,0.0,2.5,26,0.00,,---,0.00,VWS V14.01,2013-08-14 19:08:00,
2013-08-14 14:09:00,106.8,64.7,29.97,West,270,2.5,2.5,26,0.00,,---,0.00,VWS V14.01,2013-08-14 19:09:00,
2013-08-14 14:10:00,107.0,64.9,29.97,East,90,0.0,2.5,26,0.00,,---,0.00,VWS V14.01,2013-08-14 19:10:00,
2013-08-14 14:11:00,107.5,65.3,29.97,East,90,0.0,0.0,26,0.00,,---,0.00,VWS V14.01,2013-08-14 19:11:00,
2013-08-14 14:12:00,107.8,65.6,29.97,ENE,68,2.9,2.9,26,0.00,,---,0.00,VWS V14.01,2013-08-14 19:12:00,
2013-08-14 14:13:00,107.8,65.6,29.97,NNE,22,1.6,2.9,26,0.00,,---,0.00,VWS V14.01,2013-08-14 19:13:00,
2013-08-14 14:14:00,107.8,65.6,29.97,North,0,3.6,3.8,26,0.00,,---,0.00,VWS V14.01,2013-08-14 19:14:00,
2013-08-14 14:15:00,108.0,64.6,29.97,NNW,338,3.4,4.3,25,0.00,,---,0.00,VWS V14.01,2013-08-14 19:15:00,
2013-08-14 14:16:00,108.4,64.9,29.94,NNE,22,1.6,3.4,25,0.00,,---,0.00,VWS V14.01,2013-08-14 19:16:00,
2013-08-14 14:17:00,108.9,65.4,29.94,NNE,22,0.0,1.6,25,0.00,,---,0.00,VWS V14.01,2013-08-14 19:17:00,
2013-08-14 14:18:00,109.4,65.8,29.94,East,90,0.9,2.5,25,0.00,,---,0.29,VWS V14.01,2013-08-14 19:18:00,
2013-08-14 14:19:00,109.4,65.8,29.94,East,90,0.0,2.5,25,0.00,,---,0.00,VWS V14.01,2013-08-14 19:19:00,
2013-08-14 14:20:00,109.4,65.8,29.94,SE,135,1.3,1.3,25,0.00,,---,0.00,VWS V14.01,2013-08-14 19:20:00,
2013-08-14 14:21:00,108.7,65.2,29.94,ESE,112,1.6,2.0,25,0.00,,---,0.00,VWS V14.01,2013-08-14 19:21:00,
2013-08-14 14:22:00,108.7,65.2,29.94,ENE,68,1.6,2.7,25,0.00,,---,0.00,VWS V14.01,2013-08-14 19:22:00,
2013-08-14 14:23:00,108.7,65.2,29.94,NE,45,3.8,4.3,25,0.00,,---,0.00,VWS V14.01,2013-08-14 19:23:00,
2013-08-14 14:24:00,108.4,64.9,29.94,ENE,68,5.6,6.0,25,0.00,,---,0.00,VWS V14.01,2013-08-14 19:24:00,
2013-08-14 14:25:00,107.8,64.5,29.94,East,90,4.9,5.6,25,0.00,,---,0.00,VWS V14.01,2013-08-14 19:25:00,
2013-08-14 14:26:00,107.2,63.9,29.94,NNW,338,12.5,12.5,25,0.00,,---,0.00,VWS V14.01,2013-08-14 19:26:00,
2013-08-14 14:27:00,106.6,64.6,29.94,NNW,338,8.1,12.5,26,0.00,,---,0.00,VWS V14.01,2013-08-14 19:27:00,
2013-08-14 14:28:00,105.6,64.8,29.94,North,0,4.7,10.3,27,0.00,,---,0.00,VWS V14.01,2013-08-14 19:28:00,
2013-08-14 14:29:00,104.7,64.0,29.94,North,0,10.1,10.7,27,0.00,,---,0.00,VWS V14.01,2013-08-14 19:29:00,
2013-08-14 14:30:00,103.2,63.8,29.94,North,0,8.1,13.0,28,0.00,,---,0.00,VWS V14.01,2013-08-14 19:30:00,
2013-08-14 14:31:00,102.2,62.9,29.94,NW,315,10.7,13.2,28,0.00,,---,0.00,VWS V14.01,2013-08-14 19:31:00,
2013-08-14 14:32:00,102.2,62.9,29.94,NNW,338,6.5,10.7,28,0.00,,---,0.00,VWS V14.01,2013-08-14 19:32:00,
2013-08-14 14:33:00,100.4,62.4,29.94,NNE,22,14.3,16.1,29,0.00,,---,0.00,VWS V14.01,2013-08-14 19:33:00,
2013-08-14 14:34:00,99.3,61.5,29.94,NNE,22,14.8,14.8,29,0.00,,---,0.00,VWS V14.01,2013-08-14 19:34:00,
2013-08-14 14:35:00,97.8,61.1,29.94,North,0,12.3,17.2,30,0.00,,---,0.00,VWS V14.01,2013-08-14 19:35:00,
2013-08-14 14:36:00,96.3,60.8,29.94,North,0,12.5,16.8,31,0.00,,---,0.00,VWS V14.01,2013-08-14 19:36:00,
2013-08-14 14:37:00,96.5,61.0,29.94,North,0,14.8,17.2,31,0.00,,---,0.00,VWS V14.01,2013-08-14 19:37:00,
2013-08-14 14:38:00,96.3,60.8,29.94,North,0,12.8,18.6,31,0.00,,---,0.00,VWS V14.01,2013-08-14 19:38:00,
2013-08-14 14:41:00,94.2,60.7,29.94,North,0,10.7,17.5,33,0.00,,---,0.00,VWS V14.01,2013-08-14 19:41:00,
2013-08-14 14:42:00,94.4,61.7,29.94,NE,45,9.8,13.2,34,0.00,,---,0.00,VWS V14.01,2013-08-14 19:42:00,
2013-08-14 14:43:00,94.6,61.9,29.94,North,0,10.1,17.7,34,0.00,,---,0.00,VWS V14.01,2013-08-14 19:43:00,
2013-08-14 14:44:00,93.0,62.1,29.94,NNE,22,15.2,15.2,36,0.00,,---,0.00,VWS V14.01,2013-08-14 19:44:00,
2013-08-14 14:45:00,90.8,61.0,29.94,NE,45,15.2,15.2,37,0.00,,---,0.00,VWS V14.01,2013-08-14 19:45:00,
2013-08-14 14:46:00,91.2,62.1,29.97,NE,45,9.8,15.2,38,0.00,,---,0.00,VWS V14.01,2013-08-14 19:46:00,
2013-08-14 14:47:00,90.8,61.8,29.97,NE,45,6.3,11.4,38,0.00,,---,0.00,VWS V14.01,2013-08-14 19:47:00,
2013-08-14 14:48:00,89.9,61.7,29.97,North,0,8.5,14.8,39,0.00,,---,0.00,VWS V14.01,2013-08-14 19:48:00,
2013-08-14 14:49:00,90.1,61.8,29.97,NNE,22,8.1,13.9,39,0.00,,---,0.00,VWS V14.01,2013-08-14 19:49:00,
2013-08-14 14:50:00,89.4,61.9,29.97,North,0,10.1,12.5,40,0.00,,---,0.00,VWS V14.01,2013-08-14 19:50:00,
2013-08-14 14:51:00,89.4,61.9,29.97,North,0,8.1,12.5,40,0.00,,---,0.00,VWS V14.01,2013-08-14 19:51:00,
2013-08-14 14:52:00,89.4,61.9,29.97,North,0,12.5,13.2,40,0.00,,---,0.00,VWS V14.01,2013-08-14 19:52:00,
2013-08-14 14:53:00,89.1,62.3,29.97,NE,45,9.2,12.5,41,0.00,,---,0.00,VWS V14.01,2013-08-14 19:53:00,
2013-08-14 14:54:00,89.2,62.5,29.97,NNE,22,6.3,9.2,41,0.00,,---,0.00,VWS V14.01,2013-08-14 19:54:00,
2013-08-14 14:55:00,89.4,62.6,29.97,North,0,7.8,9.8,41,0.00,,---,0.00,VWS V14.01,2013-08-14 19:55:00,
2013-08-14 14:56:00,89.8,63.0,29.97,ENE,68,7.6,7.8,41,0.00,,---,0.00,VWS V14.01,2013-08-14 19:56:00,
2013-08-14 14:57:00,89.8,63.0,29.97,NE,45,5.4,8.5,41,0.00,,---,0.00,VWS V14.01,2013-08-14 19:57:00,
2013-08-14 14:58:00,89.9,63.8,29.97,North,0,6.3,6.3,42,0.00,,---,0.00,VWS V14.01,2013-08-14 19:58:00,
2013-08-14 14:59:00,89.9,63.8,29.97,North,0,10.1,10.1,42,0.00,,---,0.00,VWS V14.01,2013-08-14 19:59:00,
2013-08-14 15:00:00,89.4,63.3,29.97,North,0,12.3,12.3,42,0.00,,---,0.00,VWS V14.01,2013-08-14 20:00:00,
2013-08-14 15:01:00,88.7,62.7,29.97,North,0,14.8,14.8,42,0.00,,---,0.00,VWS V14.01,2013-08-14 20:01:00,
2013-08-14 15:02:00,88.5,62.5,29.97,NW,315,10.1,10.1,42,0.00,,---,0.00,VWS V14.01,2013-08-14 20:02:00,
2013-08-14 15:03:00,88.7,62.7,29.97,North,0,6.3,6.3,42,0.00,,---,0.00,VWS V14.01,2013-08-14 20:03:00,
2013-08-14 15:04:00,88.5,62.5,29.97,NE,45,3.6,9.6,42,0.00,,---,0.00,VWS V14.01,2013-08-14 20:04:00,
2013-08-14 15:05:00,88.5,62.5,29.97,North,0,12.3,12.3,42,0.00,,---,0.00,VWS V14.01,2013-08-14 20:05:00,
2013-08-14 15:06:00,87.8,62.6,29.97,NNE,22,7.8,12.3,43,0.00,,---,0.00,VWS V14.01,2013-08-14 20:06:00,
2013-08-14 15:07:00,87.6,63.0,29.97,NNE,22,5.6,5.6,44,0.00,,---,0.00,VWS V14.01,2013-08-14 20:07:00,
2013-08-14 15:08:00,87.1,62.6,29.97,NNE,22,13.4,16.3,44,0.00,,---,0.00,VWS V14.01,2013-08-14 20:08:00,
2013-08-14 15:09:00,86.8,62.2,29.97,North,0,11.0,13.9,44,0.00,,---,0.00,VWS V14.01,2013-08-14 20:09:00,
2013-08-14 15:10:00,86.8,62.9,29.97,North,0,6.0,12.8,45,0.00,,---,0.00,VWS V14.01,2013-08-14 20:10:00,
2013-08-14 15:11:00,86.8,62.9,29.97,East,90,10.3,10.3,45,0.00,,---,0.00,VWS V14.01,2013-08-14 20:11:00,
2013-08-14 15:12:00,86.4,63.2,29.97,North,0,8.5,12.3,46,0.00,,---,0.00,VWS V14.01,2013-08-14 20:12:00,
2013-08-14 15:13:00,86.2,63.0,29.97,NNE,22,4.7,13.2,46,0.00,,---,0.00,VWS V14.01,2013-08-14 20:13:00,
2013-08-14 15:14:00,86.1,63.5,29.97,North,0,13.2,13.2,47,0.00,,---,0.00,VWS V14.01,2013-08-14 20:14:00,
2013-08-14 15:15:00,85.7,63.2,29.97,North,0,10.7,14.1,47,0.00,,---,0.00,VWS V14.01,2013-08-14 20:15:00,
2013-08-14 15:16:00,85.7,63.2,29.97,NNE,22,4.9,10.7,47,0.00,,---,0.00,VWS V14.01,2013-08-14 20:16:00,
2013-08-14 15:17:00,85.7,63.2,29.97,NE,45,4.0,10.3,47,0.00,,---,0.00,VWS V14.01,2013-08-14 20:17:00,
2013-08-14 15:18:00,85.5,63.0,29.97,North,0,8.1,13.0,47,0.00,,---,0.00,VWS V14.01,2013-08-14 20:18:00,
2013-08-14 15:19:00,85.5,63.0,29.97,NNW,338,6.5,8.1,47,0.00,,---,0.00,VWS V14.01,2013-08-14 20:19:00,
2013-08-14 15:20:00,85.3,63.4,29.97,North,0,8.1,8.1,48,0.00,,---,0.00,VWS V14.01,2013-08-14 20:20:00,
2013-08-14 15:21:00,85.0,63.1,29.97,North,0,8.7,8.7,48,0.00,,---,0.00,VWS V14.01,2013-08-14 20:21:00,
2013-08-14 15:22:00,85.0,63.1,29.97,North,0,5.6,7.2,48,0.00,,---,0.00,VWS V14.01,2013-08-14 20:22:00,
2013-08-14 15:23:00,85.0,63.1,29.97,NW,315,3.4,7.2,48,0.00,,---,0.00,VWS V14.01,2013-08-14 20:23:00,
2013-08-14 15:24:00,84.8,63.5,29.97,NNW,338,4.0,7.8,49,0.00,,---,0.00,VWS V14.01,2013-08-14 20:24:00,
2013-08-14 15:25:00,84.6,63.4,29.97,NNW,338,6.7,6.7,49,0.00,,---,0.00,VWS V14.01,2013-08-14 20:25:00,
2013-08-14 15:26:00,84.6,63.4,29.97,WNW,292,7.4,7.4,49,0.00,,---,0.00,VWS V14.01,2013-08-14 20:26:00,
2013-08-14 15:27:00,84.4,63.2,29.97,NW,315,7.2,8.5,49,0.00,,---,0.00,VWS V14.01,2013-08-14 20:27:00,
2013-08-14 15:28:00,84.3,63.6,29.97,West,270,2.0,7.8,50,0.00,,---,0.00,VWS V14.01,2013-08-14 20:28:00,
2013-08-14 15:29:00,84.3,63.6,29.97,SSW,202,6.3,14.3,50,0.00,,---,0.00,VWS V14.01,2013-08-14 20:29:00,
2013-08-14 15:30:00,84.3,64.8,29.97,West,270,10.5,10.5,52,0.00,,---,0.00,VWS V14.01,2013-08-14 20:30:00,
2013-08-14 15:31:00,83.7,65.3,30.00,WSW,248,5.8,12.1,54,0.00,,---,0.00,VWS V14.01,2013-08-14 20:31:00,
2013-08-14 15:32:00,83.6,64.6,30.00,WNW,292,2.0,6.0,53,0.00,,---,0.00,VWS V14.01,2013-08-14 20:32:00,
2013-08-14 15:33:00,83.4,65.0,30.00,NW,315,4.0,7.4,54,0.00,,---,0.00,VWS V14.01,2013-08-14 20:33:00,
2013-08-14 15:34:00,83.2,65.4,30.00,NNW,338,6.0,6.0,55,0.00,,---,0.00,VWS V14.01,2013-08-14 20:34:00,
2013-08-14 15:35:00,83.2,65.4,30.00,NNW,338,6.5,6.5,55,0.00,,---,0.00,VWS V14.01,2013-08-14 20:35:00,
2013-08-14 15:36:00,83.0,65.7,30.00,NW,315,4.0,6.5,56,0.00,,---,0.00,VWS V14.01,2013-08-14 20:36:00,
2013-08-14 15:37:00,82.9,65.6,30.00,WNW,292,3.8,6.0,56,0.00,,---,0.00,VWS V14.01,2013-08-14 20:37:00,
2013-08-14 15:38:00,82.5,66.2,30.00,NNW,338,8.7,8.7,58,0.00,,---,0.00,VWS V14.01,2013-08-14 20:38:00,
2013-08-14 15:39:00,82.2,65.9,30.00,NNW,338,5.4,8.7,58,0.00,,---,0.00,VWS V14.01,2013-08-14 20:39:00,
2013-08-14 15:40:00,82.0,66.2,30.00,NNW,338,7.6,8.1,59,0.00,,---,0.00,VWS V14.01,2013-08-14 20:40:00,
2013-08-14 15:41:00,82.0,66.2,30.00,NNW,338,7.6,7.6,59,0.00,,---,0.00,VWS V14.01,2013-08-14 20:41:00,
2013-08-14 15:42:00,81.8,66.6,30.00,North,0,3.4,7.6,60,0.00,,---,0.00,VWS V14.01,2013-08-14 20:42:00,
2013-08-14 15:43:00,81.6,66.9,30.00,NW,315,8.1,8.1,61,0.00,,---,0.00,VWS V14.01,2013-08-14 20:43:00,
2013-08-14 15:44:00,81.3,66.5,30.00,North,0,4.7,8.1,61,0.00,,---,0.00,VWS V14.01,2013-08-14 20:44:00,
2013-08-14 15:45:00,81.3,67.0,30.00,North,0,6.9,6.9,62,0.00,,---,0.00,VWS V14.01,2013-08-14 20:45:00,
2013-08-14 15:46:00,80.7,67.0,30.00,NNW,338,4.3,8.1,63,0.00,,---,0.00,VWS V14.01,2013-08-14 20:46:00,
2013-08-14 15:47:00,80.4,67.1,30.00,North,0,7.6,8.7,64,0.00,,---,0.00,VWS V14.01,2013-08-14 20:47:00,
2013-08-14 15:48:00,80.2,66.9,30.00,NE,45,5.8,7.6,64,0.00,,---,0.00,VWS V14.01,2013-08-14 20:48:00,
2013-08-14 15:49:00,79.7,67.3,30.00,NE,45,7.2,7.2,66,0.00,,---,0.00,VWS V14.01,2013-08-14 20:49:00,
2013-08-14 15:50:00,79.5,66.7,30.00,NE,45,6.5,7.2,65,0.00,,---,0.00,VWS V14.01,2013-08-14 20:50:00,
2013-08-14 15:51:00,79.3,67.0,30.00,East,90,6.5,6.5,66,0.00,,---,0.00,VWS V14.01,2013-08-14 20:51:00,
2013-08-14 15:52:00,79.1,67.2,30.00,ENE,68,2.5,9.0,67,0.00,,---,0.00,VWS V14.01,2013-08-14 20:52:00,
2013-08-14 15:53:00,78.4,67.0,30.00,NE,45,6.0,7.8,68,0.00,,---,0.00,VWS V14.01,2013-08-14 20:53:00,
2013-08-14 15:54:00,78.4,67.0,30.00,NNE,22,3.8,6.5,68,0.00,,---,0.00,VWS V14.01,2013-08-14 20:54:00,
2013-08-14 15:55:00,78.2,66.8,30.00,NNE,22,4.0,6.3,68,0.00,,---,0.00,VWS V14.01,2013-08-14 20:55:00,
2013-08-14 15:56:00,78.2,67.2,30.00,NNE,22,3.6,7.2,69,0.00,,---,0.00,VWS V14.01,2013-08-14 20:56:00,
2013-08-14 15:57:00,78.1,67.9,30.00,NNE,22,5.4,5.4,71,0.00,,---,0.00,VWS V14.01,2013-08-14 20:57:00,
2013-08-14 15:58:00,77.9,67.3,30.00,North,0,5.4,5.4,70,0.00,,---,0.00,VWS V14.01,2013-08-14 20:58:00,
2013-08-14 15:59:00,77.9,67.7,30.00,North,0,4.9,5.4,71,0.00,,---,0.00,VWS V14.01,2013-08-14 20:59:00,
2013-08-14 16:00:00,77.9,68.2,30.00,North,0,4.0,6.3,72,0.00,,---,0.00,VWS V14.01,2013-08-14 21:00:00,
2013-08-14 16:01:00,77.9,68.9,29.97,NNW,338,7.2,8.7,74,0.00,,---,0.00,VWS V14.01,2013-08-14 21:01:00,
2013-08-14 16:02:00,77.9,69.3,29.97,NNW,338,4.0,7.2,75,0.00,,---,0.00,VWS V14.01,2013-08-14 21:02:00,
2013-08-14 16:03:00,77.7,69.2,29.97,North,0,3.8,7.4,75,0.00,,---,0.00,VWS V14.01,2013-08-14 21:03:00,
2013-08-14 16:04:00,77.7,69.2,29.97,NNW,338,6.0,6.9,75,0.00,,---,0.00,VWS V14.01,2013-08-14 21:04:00,
2013-08-14 16:05:00,77.7,69.2,29.97,NNW,338,3.4,6.0,75,0.00,,---,0.00,VWS V14.01,2013-08-14 21:05:00,
2013-08-14 16:06:00,77.7,69.6,29.97,North,0,4.0,4.0,76,0.00,,---,0.00,VWS V14.01,2013-08-14 21:06:00,
2013-08-14 16:07:00,77.7,69.2,29.97,NNW,338,4.3,4.3,75,0.00,,---,0.00,VWS V14.01,2013-08-14 21:07:00,
2013-08-14 16:08:00,77.7,69.6,29.97,NNE,22,5.8,6.0,76,0.00,,---,0.00,VWS V14.01,2013-08-14 21:08:00,
2013-08-14 16:09:00,77.7,69.9,29.97,North,0,5.6,5.8,77,0.00,,---,0.00,VWS V14.01,2013-08-14 21:09:00,
2013-08-14 16:10:00,77.7,69.9,29.97,NNW,338,7.6,7.6,77,0.00,,---,0.00,VWS V14.01,2013-08-14 21:10:00,
2013-08-14 16:11:00,77.7,69.9,29.97,NNE,22,4.9,7.6,77,0.00,,---,0.00,VWS V14.01,2013-08-14 21:11:00,
2013-08-14 16:12:00,77.7,69.9,29.97,North,0,8.5,8.5,77,0.00,,---,0.00,VWS V14.01,2013-08-14 21:12:00,
2013-08-14 16:13:00,77.7,69.9,29.97,North,0,5.6,12.8,77,0.00,,---,0.00,VWS V14.01,2013-08-14 21:13:00,
2013-08-14 16:14:00,77.7,69.6,29.97,NNW,338,5.4,7.2,76,0.00,,---,0.00,VWS V14.01,2013-08-14 21:14:00,
2013-08-14 16:15:00,77.7,69.2,29.97,North,0,7.6,7.6,75,0.00,,---,0.00,VWS V14.01,2013-08-14 21:15:00,
2013-08-14 16:16:00,77.7,69.2,29.97,North,0,6.5,7.6,75,0.00,,---,0.00,VWS V14.01,2013-08-14 21:16:00,
2013-08-14 16:17:00,77.7,68.8,29.97,NNE,22,9.8,9.8,74,0.00,,---,0.00,VWS V14.01,2013-08-14 21:17:00,
2013-08-14 16:18:00,77.7,68.8,29.97,North,0,4.0,9.8,74,0.00,,---,0.00,VWS V14.01,2013-08-14 21:18:00,
2013-08-14 16:19:00,77.9,68.9,29.97,NNW,338,3.8,5.8,74,0.00,,---,0.00,VWS V14.01,2013-08-14 21:19:00,
2013-08-14 16:20:00,77.9,68.9,29.97,NNW,338,3.1,6.7,74,0.00,,---,0.00,VWS V14.01,2013-08-14 21:20:00,
2013-08-14 16:21:00,77.9,68.9,29.97,NNW,338,4.5,4.5,74,0.00,,---,0.00,VWS V14.01,2013-08-14 21:21:00,
2013-08-14 16:22:00,77.9,68.9,29.97,NNE,22,6.7,6.7,74,0.00,,---,0.00,VWS V14.01,2013-08-14 21:22:00,
2013-08-14 16:23:00,78.1,68.7,29.97,North,0,7.6,7.6,73,0.00,,---,0.00,VWS V14.01,2013-08-14 21:23:00,
2013-08-14 16:24:00,78.1,68.7,29.97,North,0,5.4,7.6,73,0.00,,---,0.00,VWS V14.01,2013-08-14 21:24:00,
2013-08-14 16:25:00,78.1,68.3,29.97,North,0,8.5,10.3,72,0.00,,---,0.00,VWS V14.01,2013-08-14 21:25:00,
2013-08-14 16:26:00,78.1,68.3,29.97,North,0,5.6,8.5,72,0.00,,---,0.00,VWS V14.01,2013-08-14 21:26:00,
2013-08-14 16:27:00,78.2,68.1,29.97,NW,315,4.9,10.3,71,0.00,,---,0.00,VWS V14.01,2013-08-14 21:27:00,
2013-08-14 16:28:00,78.2,68.1,29.97,North,0,8.7,9.6,71,0.00,,---,0.00,VWS V14.01,2013-08-14 21:28:00,
2013-08-14 16:29:00,78.2,68.1,29.97,North,0,8.5,8.7,71,0.00,,---,0.00,VWS V14.01,2013-08-14 21:29:00,
2013-08-14 16:30:00,78.2,68.1,29.97,WNW,292,6.3,8.5,71,0.00,,---,0.00,VWS V14.01,2013-08-14 21:30:00,
2013-08-14 16:31:00,78.2,68.1,29.97,North,0,10.3,13.0,71,0.00,,---,0.00,VWS V14.01,2013-08-14 21:31:00,
2013-08-14 16:32:00,78.2,68.1,29.97,NNE,22,8.1,10.3,71,0.00,,---,0.00,VWS V14.01,2013-08-14 21:32:00,
2013-08-14 16:33:00,78.1,67.9,29.97,NNE,22,9.8,9.8,71,0.00,,---,0.00,VWS V14.01,2013-08-14 21:33:00,
2013-08-14 16:34:00,78.1,67.9,29.97,North,0,6.5,9.8,71,0.00,,---,0.00,VWS V14.01,2013-08-14 21:34:00,
2013-08-14 16:35:00,78.1,67.5,29.97,NE,45,3.6,7.8,70,0.00,,---,0.00,VWS V14.01,2013-08-14 21:35:00,
2013-08-14 16:36:00,78.1,67.5,29.97,NNE,22,4.0,10.5,70,0.00,,---,0.00,VWS V14.01,2013-08-14 21:36:00,
2013-08-14 16:37:00,78.2,67.7,29.97,North,0,7.6,7.6,70,0.00,,---,0.00,VWS V14.01,2013-08-14 21:37:00,
2013-08-14 16:38:00,78.2,67.7,29.97,NNE,22,5.4,7.6,70,0.00,,---,0.00,VWS V14.01,2013-08-14 21:38:00,
2013-08-14 16:39:00,78.2,67.2,29.97,North,0,5.4,11.9,69,0.00,,---,0.00,VWS V14.01,2013-08-14 21:39:00,
2013-08-14 16:40:00,78.2,67.2,29.97,North,0,7.4,11.0,69,0.00,,---,0.00,VWS V14.01,2013-08-14 21:40:00,
2013-08-14 16:41:00,78.1,66.7,29.97,North,0,10.1,11.0,68,0.00,,---,0.00,VWS V14.01,2013-08-14 21:41:00,
2013-08-14 16:42:00,78.2,66.8,29.97,NNW,338,6.5,10.1,68,0.00,,---,0.00,VWS V14.01,2013-08-14 21:42:00,
2013-08-14 16:43:00,78.2,66.8,29.97,NNE,22,6.3,6.5,68,0.00,,---,0.00,VWS V14.01,2013-08-14 21:43:00,
2013-08-14 16:44:00,78.2,66.8,29.97,NNE,22,4.0,6.3,68,0.00,,---,0.00,VWS V14.01,2013-08-14 21:44:00,
2013-08-14 16:45:00,78.4,66.6,29.97,NNE,22,8.5,11.4,67,0.00,,---,0.00,VWS V14.01,2013-08-14 21:45:00,
2013-08-14 16:46:00,78.4,66.6,29.94,NNE,22,4.3,13.2,67,0.00,,---,0.00,VWS V14.01,2013-08-14 21:46:00,
2013-08-14 16:47:00,78.4,67.0,29.94,North,0,5.6,5.6,68,0.00,,---,0.00,VWS V14.01,2013-08-14 21:47:00,
2013-08-14 16:48:00,78.6,67.2,29.94,North,0,3.8,5.6,68,0.00,,---,0.00,VWS V14.01,2013-08-14 21:48:00,
2013-08-14 16:49:00,78.6,67.2,29.94,North,0,5.8,8.5,68,0.00,,---,0.00,VWS V14.01,2013-08-14 21:49:00,
2013-08-14 16:50:00,78.6,66.7,29.94,North,0,11.0,11.0,67,0.00,,---,0.00,VWS V14.01,2013-08-14 21:50:00,
2013-08-14 16:51:00,78.6,66.7,29.94,NNW,338,6.0,6.0,67,0.00,,---,0.00,VWS V14.01,2013-08-14 21:51:00,
2013-08-14 16:52:00,78.6,66.7,29.94,NNW,338,4.0,6.0,67,0.00,,---,0.00,VWS V14.01,2013-08-14 21:52:00,
2013-08-14 16:53:00,78.8,66.9,29.94,North,0,4.0,7.6,67,0.00,,---,0.00,VWS V14.01,2013-08-14 21:53:00,
2013-08-14 16:54:00,78.8,66.9,29.94,NNE,22,5.4,6.9,67,0.00,,---,0.00,VWS V14.01,2013-08-14 21:54:00,
2013-08-14 16:55:00,78.8,66.9,29.94,NNE,22,6.0,6.5,67,0.00,,---,0.00,VWS V14.01,2013-08-14 21:55:00,
2013-08-14 16:56:00,78.8,66.9,29.94,NNE,22,5.6,9.8,67,0.00,,---,0.00,VWS V14.01,2013-08-14 21:56:00,
2013-08-14 16:57:00,78.9,67.1,29.94,North,0,4.3,7.6,67,0.00,,---,0.00,VWS V14.01,2013-08-14 21:57:00,
2013-08-14 16:58:00,78.9,67.1,29.94,North,0,9.2,9.2,67,0.00,,---,0.00,VWS V14.01,2013-08-14 21:58:00,
2013-08-14 16:59:00,78.9,67.1,29.94,North,0,8.1,9.2,67,0.00,,---,0.00,VWS V14.01,2013-08-14 21:59:00,
2013-08-14 17:00:00,78.9,66.6,29.94,North,0,7.4,8.1,66,0.00,,---,0.00,VWS V14.01,2013-08-14 22:00:00,
2013-08-14 17:01:00,79.1,66.8,29.94,NE,45,5.4,7.4,66,0.00,,---,0.00,VWS V14.01,2013-08-14 22:01:00,
2013-08-14 17:02:00,79.1,67.2,29.94,NE,45,5.4,5.4,67,0.00,,---,0.00,VWS V14.01,2013-08-14 22:02:00,
2013-08-14 17:03:00,79.1,66.8,29.94,NNE,22,6.0,7.2,66,0.00,,---,0.00,VWS V14.01,2013-08-14 22:03:00,
2013-08-14 17:04:00,79.1,67.2,29.94,North,0,7.6,10.7,67,0.00,,---,0.00,VWS V14.01,2013-08-14 22:04:00,
2013-08-14 17:05:00,79.1,66.8,29.94,East,90,3.8,5.8,66,0.00,,---,0.00,VWS V14.01,2013-08-14 22:05:00,
2013-08-14 17:06:00,79.3,67.0,29.94,North,0,5.4,10.7,66,0.00,,---,0.00,VWS V14.01,2013-08-14 22:06:00,
2013-08-14 17:07:00,79.3,67.0,29.94,NNE,22,8.7,8.7,66,0.00,,---,0.00,VWS V14.01,2013-08-14 22:07:00,
2013-08-14 17:08:00,79.3,67.0,29.94,North,0,3.8,8.7,66,0.00,,---,0.00,VWS V14.01,2013-08-14 22:08:00,
2013-08-14 17:09:00,79.5,67.1,29.94,ESE,112,2.2,4.3,66,0.00,,---,0.00,VWS V14.01,2013-08-14 22:09:00,
2013-08-14 17:10:00,79.7,67.3,29.94,East,90,3.4,3.4,66,0.00,,---,0.00,VWS V14.01,2013-08-14 22:10:00,
2013-08-14 17:11:00,79.7,67.3,29.94,ESE,112,4.7,4.7,66,0.00,,---,0.00,VWS V14.01,2013-08-14 22:11:00,
2013-08-14 17:12:00,79.8,67.5,29.94,SE,135,2.9,4.7,66,0.00,,---,0.00,VWS V14.01,2013-08-14 22:12:00,
2013-08-14 17:13:00,79.8,67.5,29.94,SSE,158,2.9,7.2,66,0.00,,---,0.00,VWS V14.01,2013-08-14 22:13:00,
2013-08-14 17:14:00,79.8,67.5,29.94,SSW,202,4.3,5.6,66,0.00,,---,0.00,VWS V14.01,2013-08-14 22:14:00,
2013-08-14 17:15:00,80.0,68.1,29.94,South,180,5.6,5.6,67,0.00,,---,0.00,VWS V14.01,2013-08-14 22:15:00,
2013-08-14 17:16:00,80.0,68.5,29.97,ESE,112,0.9,5.6,68,0.00,,---,0.00,VWS V14.01,2013-08-14 22:16:00,
2013-08-14 17:17:00,80.2,68.7,29.97,SSW,202,1.1,3.1,68,0.00,,---,0.00,VWS V14.01,2013-08-14 22:17:00,
2013-08-14 17:18:00,80.2,68.7,29.97,SW,225,2.9,2.9,68,0.00,,---,0.00,VWS V14.01,2013-08-14 22:18:00,
2013-08-14 17:19:00,80.4,68.8,29.97,SSE,158,3.6,3.6,68,0.00,,---,0.00,VWS V14.01,2013-08-14 22:19:00,
2013-08-14 17:20:00,80.6,69.0,29.97,ESE,112,2.7,3.6,68,0.00,,---,0.00,VWS V14.01,2013-08-14 22:20:00,
2013-08-14 17:21:00,80.7,69.2,29.97,South,180,0.0,2.7,68,0.00,,---,0.00,VWS V14.01,2013-08-14 22:21:00,
2013-08-14 17:22:00,80.7,69.2,29.97,SE,135,3.8,4.9,68,0.00,,---,0.00,VWS V14.01,2013-08-14 22:22:00,
2013-08-14 17:23:00,80.9,69.4,29.97,SE,135,2.0,3.8,68,0.00,,---,0.00,VWS V14.01,2013-08-14 22:23:00,
2013-08-14 17:24:00,80.9,69.4,29.97,SE,135,3.6,4.0,68,0.00,,---,0.00,VWS V14.01,2013-08-14 22:24:00,
2013-08-14 17:25:00,81.1,69.5,29.97,East,90,5.6,5.6,68,0.00,,---,0.00,VWS V14.01,2013-08-14 22:25:00,
2013-08-14 17:26:00,81.1,69.5,29.97,South,180,1.6,5.6,68,0.00,,---,0.00,VWS V14.01,2013-08-14 22:26:00,
2013-08-14 17:27:00,81.3,69.3,29.97,South,180,1.3,2.7,67,0.00,,---,0.00,VWS V14.01,2013-08-14 22:27:00,
2013-08-14 17:28:00,81.6,69.6,29.97,SSW,202,1.6,3.6,67,0.00,,---,0.00,VWS V14.01,2013-08-14 22:28:00,
2013-08-14 17:29:00,81.8,69.8,29.97,South,180,3.1,3.1,67,0.00,,---,0.00,VWS V14.01,2013-08-14 22:29:00,
2013-08-14 17:30:00,81.8,69.8,29.97,SSW,202,2.9,4.7,67,0.00,,---,0.00,VWS V14.01,2013-08-14 22:30:00,
2013-08-14 17:31:00,82.0,69.5,29.97,ESE,112,0.0,2.9,66,0.00,,---,0.00,VWS V14.01,2013-08-14 22:31:00,
2013-08-14 17:32:00,82.5,70.0,29.97,SSE,158,1.1,2.7,66,0.00,,---,0.00,VWS V14.01,2013-08-14 22:32:00,
2013-08-14 17:33:00,82.9,70.3,29.97,ESE,112,2.5,2.5,66,0.00,,---,0.00,VWS V14.01,2013-08-14 22:33:00,
2013-08-14 17:34:00,83.2,70.2,29.97,SE,135,3.6,4.7,65,0.00,,---,0.00,VWS V14.01,2013-08-14 22:34:00,
2013-08-14 17:35:00,83.6,70.6,29.97,East,90,2.9,3.6,65,0.00,,---,0.00,VWS V14.01,2013-08-14 22:35:00,
2013-08-14 17:36:00,83.7,70.7,29.97,SE,135,1.3,2.9,65,0.00,,---,0.00,VWS V14.01,2013-08-14 22:36:00,
2013-08-14 17:37:00,84.1,71.1,29.97,SE,135,1.3,1.3,65,0.00,,---,0.00,VWS V14.01,2013-08-14 22:37:00,
2013-08-14 17:38:00,84.3,70.8,29.97,SE,135,1.3,1.3,64,0.00,,---,0.00,VWS V14.01,2013-08-14 22:38:00,
2013-08-14 17:39:00,84.3,70.8,29.97,South,180,1.1,1.3,64,0.00,,---,0.00,VWS V14.01,2013-08-14 22:39:00,
2013-08-14 17:40:00,84.3,70.8,29.97,South,180,1.1,1.1,64,0.00,,---,0.00,VWS V14.01,2013-08-14 22:40:00,
2013-08-14 17:41:00,84.1,70.2,29.97,South,180,1.1,1.1,63,0.00,,---,0.00,VWS V14.01,2013-08-14 22:41:00,
2013-08-14 17:42:00,84.1,70.2,29.97,South,180,1.1,1.1,63,0.00,,---,0.00,VWS V14.01,2013-08-14 22:42:00,
2013-08-14 17:43:00,84.1,70.2,29.97,South,180,1.1,1.1,63,0.00,,---,0.00,VWS V14.01,2013-08-14 22:43:00,
2013-08-14 17:44:00,83.7,69.8,29.97,South,180,1.1,1.1,63,0.00,,---,0.00,VWS V14.01,2013-08-14 22:44:00,
2013-08-14 17:45:00,83.6,69.7,29.97,South,180,1.1,1.1,63,0.00,,---,0.00,VWS V14.01,2013-08-14 22:45:00,
2013-08-14 17:46:00,83.6,69.7,29.94,South,180,1.1,1.1,63,0.00,,---,0.00,VWS V14.01,2013-08-14 22:46:00,
2013-08-14 17:47:00,83.4,69.5,29.94,South,180,1.1,1.1,63,0.00,,---,0.00,VWS V14.01,2013-08-14 22:47:00,
2013-08-14 17:48:00,83.2,69.3,29.94,South,180,1.1,1.1,63,0.00,,---,0.00,VWS V14.01,2013-08-14 22:48:00,
2013-08-14 17:49:00,83.2,69.3,29.94,South,180,1.1,1.1,63,0.00,,---,0.00,VWS V14.01,2013-08-14 22:49:00,
2013-08-14 17:50:00,83.0,69.2,29.94,South,180,1.1,1.1,63,0.00,,---,0.00,VWS V14.01,2013-08-14 22:50:00,
2013-08-14 17:51:00,83.0,69.2,29.94,South,180,1.1,1.1,63,0.00,,---,0.00,VWS V14.01,2013-08-14 22:51:00,
2013-08-14 17:52:00,82.9,69.4,29.94,South,180,1.1,1.1,64,0.00,,---,0.00,VWS V14.01,2013-08-14 22:52:00,
2013-08-14 17:53:00,82.9,69.0,29.94,South,180,1.1,1.1,63,0.00,,---,0.00,VWS V14.01,2013-08-14 22:53:00,
2013-08-14 17:54:00,82.7,68.8,29.94,South,180,1.1,1.1,63,0.00,,---,0.00,VWS V14.01,2013-08-14 22:54:00,
2013-08-14 17:55:00,82.5,69.1,29.94,South,180,1.1,1.1,64,0.00,,---,0.00,VWS V14.01,2013-08-14 22:55:00,
2013-08-14 17:56:00,82.5,69.1,29.94,South,180,1.1,1.1,64,0.00,,---,0.00,VWS V14.01,2013-08-14 22:56:00,
2013-08-14 17:57:00,82.3,68.5,29.94,South,180,1.1,1.1,63,0.00,,---,0.00,VWS V14.01,2013-08-14 22:57:00,
2013-08-14 17:58:00,82.2,67.8,29.94,South,180,1.1,1.1,62,0.00,,---,0.00,VWS V14.01,2013-08-14 22:58:00,
2013-08-14 17:59:00,82.0,67.7,29.94,South,180,1.1,1.1,62,0.00,,---,0.00,VWS V14.01,2013-08-14 22:59:00,
2013-08-14 18:00:00,81.8,67.5,29.94,South,180,1.1,1.1,62,0.00,,---,0.00,VWS V14.01,2013-08-14 23:00:00,
2013-08-14 18:01:00,81.8,67.5,29.94,South,180,1.1,1.1,62,0.00,,---,0.00,VWS V14.01,2013-08-14 23:01:00,
2013-08-14 18:02:00,81.6,67.3,29.94,South,180,1.1,1.1,62,0.00,,---,0.00,VWS V14.01,2013-08-14 23:02:00,
2013-08-14 18:03:00,81.4,67.2,29.94,South,180,1.1,1.1,62,0.00,,---,0.00,VWS V14.01,2013-08-14 23:03:00,
2013-08-14 18:04:00,81.4,67.2,29.94,South,180,1.1,1.1,62,0.00,,---,0.00,VWS V14.01,2013-08-14 23:04:00,
2013-08-14 18:05:00,81.3,67.0,29.94,South,180,1.1,1.1,62,0.00,,---,0.00,VWS V14.01,2013-08-14 23:05:00,
2013-08-14 18:06:00,81.3,67.0,29.94,SE,135,0.0,1.1,62,0.00,,---,0.00,VWS V14.01,2013-08-14 23:06:00,
2013-08-14 18:07:00,81.3,67.0,29.94,East,90,1.3,1.3,62,0.00,,---,0.00,VWS V14.01,2013-08-14 23:07:00,
2013-08-14 18:08:00,81.3,67.0,29.94,East,90,2.7,3.1,62,0.00,,---,0.00,VWS V14.01,2013-08-14 23:08:00,
2013-08-14 18:09:00,81.1,66.8,29.94,ESE,112,2.5,3.4,62,0.00,,---,0.00,VWS V14.01,2013-08-14 23:09:00,
2013-08-14 18:10:00,80.9,66.7,29.94,ESE,112,0.0,2.5,62,0.00,,---,0.00,VWS V14.01,2013-08-14 23:10:00,
2013-08-14 18:11:00,80.9,66.7,29.94,ESE,112,4.0,4.0,62,0.00,,---,0.00,VWS V14.01,2013-08-14 23:11:00,
2013-08-14 18:12:00,80.7,67.0,29.94,East,90,2.0,4.0,63,0.00,,---,0.00,VWS V14.01,2013-08-14 23:12:00,
2013-08-14 18:13:00,80.7,66.5,29.94,SE,135,2.9,3.1,62,0.00,,---,0.00,VWS V14.01,2013-08-14 23:13:00,
2013-08-14 18:14:00,80.7,66.5,29.94,SE,135,2.9,2.9,62,0.00,,---,0.00,VWS V14.01,2013-08-14 23:14:00,
2013-08-14 18:15:00,80.7,66.5,29.94,SE,135,1.3,2.9,62,0.00,,---,0.00,VWS V14.01,2013-08-14 23:15:00,
2013-08-14 18:16:00,80.7,67.0,29.94,SE,135,1.3,1.3,63,0.00,,---,0.00,VWS V14.01,2013-08-14 23:16:00,
2013-08-14 18:17:00,80.7,67.0,29.94,SE,135,1.3,1.3,63,0.00,,---,0.00,VWS V14.01,2013-08-14 23:17:00,
2013-08-14 18:18:00,80.7,67.0,29.94,SE,135,1.3,1.3,63,0.00,,---,0.00,VWS V14.01,2013-08-14 23:18:00,
2013-08-14 18:19:00,80.7,67.0,29.94,SE,135,2.0,2.0,63,0.00,,---,0.00,VWS V14.01,2013-08-14 23:19:00,
2013-08-14 18:20:00,80.7,67.0,29.94,SSE,158,0.0,2.2,63,0.00,,---,0.00,VWS V14.01,2013-08-14 23:20:00,
2013-08-14 18:21:00,80.6,66.8,29.94,SSE,158,0.0,0.0,63,0.00,,---,0.00,VWS V14.01,2013-08-14 23:21:00,
2013-08-14 18:22:00,80.6,66.8,29.94,SSE,158,0.0,0.0,63,0.00,,---,0.00,VWS V14.01,2013-08-14 23:22:00,
2013-08-14 18:23:00,80.6,67.3,29.94,SSE,158,0.0,0.0,64,0.00,,---,0.00,VWS V14.01,2013-08-14 23:23:00,
2013-08-14 18:24:00,80.6,67.3,29.94,SSE,158,0.0,0.0,64,0.00,,---,0.00,VWS V14.01,2013-08-14 23:24:00,
2013-08-14 18:25:00,80.6,67.3,29.94,SE,135,2.7,2.7,64,0.00,,---,0.00,VWS V14.01,2013-08-14 23:25:00,
2013-08-14 18:26:00,80.6,67.3,29.94,SE,135,2.7,2.7,64,0.00,,---,0.00,VWS V14.01,2013-08-14 23:26:00,
2013-08-14 18:27:00,80.6,67.3,29.94,SE,135,2.7,2.7,64,0.00,,---,0.00,VWS V14.01,2013-08-14 23:27:00,
2013-08-14 18:28:00,80.6,67.3,29.94,SE,135,2.7,2.7,64,0.00,,---,0.00,VWS V14.01,2013-08-14 23:28:00,
2013-08-14 18:29:00,80.6,67.3,29.94,SE,135,2.7,2.7,64,0.00,,---,0.00,VWS V14.01,2013-08-14 23:29:00,
2013-08-14 18:30:00,80.6,67.3,29.94,SE,135,2.7,2.7,64,0.00,,---,0.00,VWS V14.01,2013-08-14 23:30:00,
2013-08-14 18:31:00,80.4,67.1,29.94,SE,135,2.7,2.7,64,0.00,,---,0.00,VWS V14.01,2013-08-14 23:31:00,
2013-08-14 18:32:00,80.4,67.1,29.94,SE,135,2.7,2.7,64,0.00,,---,0.00,VWS V14.01,2013-08-14 23:32:00,
2013-08-14 18:33:00,80.4,67.1,29.94,SE,135,2.7,2.7,64,0.00,,---,0.00,VWS V14.01,2013-08-14 23:33:00,
2013-08-14 18:34:00,80.4,67.1,29.94,ESE,112,3.6,3.6,64,0.00,,---,0.00,VWS V14.01,2013-08-14 23:34:00,
2013-08-14 18:35:00,80.4,67.1,29.94,ESE,112,3.6,3.6,64,0.00,,---,0.00,VWS V14.01,2013-08-14 23:35:00,
2013-08-14 18:36:00,80.4,67.1,29.94,ESE,112,3.6,3.6,64,0.00,,---,0.00,VWS V14.01,2013-08-14 23:36:00,
2013-08-14 18:37:00,80.4,67.1,29.94,ESE,112,3.6,3.6,64,0.00,,---,0.00,VWS V14.01,2013-08-14 23:37:00,
2013-08-14 18:38:00,80.2,66.9,29.94,ESE,112,3.6,3.6,64,0.00,,---,0.00,VWS V14.01,2013-08-14 23:38:00,
2013-08-14 18:39:00,80.2,67.4,29.94,ESE,112,3.6,3.6,65,0.00,,---,0.00,VWS V14.01,2013-08-14 23:39:00,
2013-08-14 18:40:00,80.2,67.8,29.94,ESE,112,3.6,3.6,66,0.00,,---,0.00,VWS V14.01,2013-08-14 23:40:00,
2013-08-14 18:41:00,80.2,67.8,29.94,ESE,112,3.6,3.6,66,0.00,,---,0.00,VWS V14.01,2013-08-14 23:41:00,
2013-08-14 18:42:00,80.2,67.4,29.94,ESE,112,3.6,3.6,65,0.00,,---,0.00,VWS V14.01,2013-08-14 23:42:00,
2013-08-14 18:43:00,80.2,67.4,29.94,ESE,112,3.6,3.6,65,0.00,,---,0.00,VWS V14.01,2013-08-14 23:43:00,
2013-08-14 18:44:00,80.0,67.2,29.94,ESE,112,3.6,3.6,65,0.00,,---,0.00,VWS V14.01,2013-08-14 23:44:00,
2013-08-14 18:45:00,80.0,67.7,29.94,ESE,112,3.6,3.6,66,0.00,,---,0.00,VWS V14.01,2013-08-14 23:45:00,
2013-08-14 18:46:00,80.0,67.2,29.94,ESE,112,3.6,3.6,65,0.00,,---,0.00,VWS V14.01,2013-08-14 23:46:00,
2013-08-14 18:47:00,80.0,67.2,29.94,ESE,112,3.6,3.6,65,0.00,,---,0.00,VWS V14.01,2013-08-14 23:47:00,
2013-08-14 18:48:00,80.0,67.7,29.94,ESE,112,3.6,3.6,66,0.00,,---,0.00,VWS V14.01,2013-08-14 23:48:00,
2013-08-14 18:49:00,79.8,67.5,29.94,ESE,112,3.6,3.6,66,0.00,,---,0.00,VWS V14.01,2013-08-14 23:49:00,
2013-08-14 18:50:00,79.8,67.5,29.94,ESE,112,3.6,3.6,66,0.00,,---,0.00,VWS V14.01,2013-08-14 23:50:00,
2013-08-14 18:51:00,79.8,67.5,29.94,ESE,112,3.6,3.6,66,0.00,,---,0.00,VWS V14.01,2013-08-14 23:51:00,
2013-08-14 18:52:00,79.8,67.5,29.94,ESE,112,3.6,3.6,66,0.00,,---,0.00,VWS V14.01,2013-08-14 23:52:00,
2013-08-14 18:53:00,79.8,67.5,29.94,ESE,112,3.6,3.6,66,0.00,,---,0.00,VWS V14.01,2013-08-14 23:53:00,
2013-08-14 18:54:00,79.8,67.5,29.94,ESE,112,3.6,3.6,66,0.00,,---,0.00,VWS V14.01,2013-08-14 23:54:00,
2013-08-14 18:55:00,79.7,67.3,29.94,ESE,112,3.6,3.6,66,0.00,,---,0.00,VWS V14.01,2013-08-14 23:55:00,
2013-08-14 18:56:00,79.7,67.3,29.94,ESE,112,3.6,3.6,66,0.00,,---,0.00,VWS V14.01,2013-08-14 23:56:00,
2013-08-14 18:57:00,79.7,67.8,29.94,ESE,112,3.6,3.6,67,0.00,,---,0.00,VWS V14.01,2013-08-14 23:57:00,
2013-08-14 18:58:00,79.7,67.3,29.94,ESE,112,3.6,3.6,66,0.00,,---,0.00,VWS V14.01,2013-08-14 23:58:00,
2013-08-14 18:59:00,79.7,67.8,29.94,ESE,112,3.6,3.6,67,0.00,,---,0.00,VWS V14.01,2013-08-14 23:59:00,
2013-08-14 19:00:00,79.5,67.6,29.94,ESE,112,3.6,3.6,67,0.00,,---,0.29,VWS V14.01,2013-08-15 00:00:00,
2013-08-14 19:01:00,79.5,67.6,29.94,ESE,112,3.6,3.6,67,0.00,,---,0.00,VWS V14.01,2013-08-15 00:01:00,
2013-08-14 19:02:00,79.5,67.6,29.94,ESE,112,3.6,3.6,67,0.00,,---,0.00,VWS V14.01,2013-08-15 00:02:00,
2013-08-14 19:03:00,79.5,67.6,29.94,ESE,112,3.6,3.6,67,0.00,,---,0.00,VWS V14.01,2013-08-15 00:03:00,
2013-08-14 19:04:00,79.5,67.6,29.94,ESE,112,3.6,3.6,67,0.00,,---,0.00,VWS V14.01,2013-08-15 00:04:00,
2013-08-14 19:05:00,79.5,67.6,29.94,ESE,112,3.6,3.6,67,0.00,,---,0.00,VWS V14.01,2013-08-15 00:05:00,
2013-08-14 19:06:00,79.5,67.6,29.94,ESE,112,3.6,3.6,67,0.00,,---,0.00,VWS V14.01,2013-08-15 00:06:00,
2013-08-14 19:07:00,79.3,67.8,29.94,ESE,112,3.6,3.6,68,0.00,,---,0.00,VWS V14.01,2013-08-15 00:07:00,
2013-08-14 19:08:00,79.3,67.8,30.03,East,90,0.0,0.0,68,0.29,,---,0.00,VWS V14.01,2013-08-15 00:08:00,
2013-08-14 19:09:00,79.3,67.8,29.94,East,90,0.0,0.0,68,0.00,,---,0.00,VWS V14.01,2013-08-15 00:09:00,
2013-08-14 19:10:00,79.3,67.8,29.94,East,90,0.0,0.0,68,0.00,,---,0.00,VWS V14.01,2013-08-15 00:10:00,
2013-08-14 19:11:00,79.3,68.3,29.94,East,90,0.0,0.0,69,0.00,,---,0.00,VWS V14.01,2013-08-15 00:11:00,
2013-08-14 19:12:00,79.3,68.3,29.94,East,90,0.0,0.0,69,0.00,,---,0.00,VWS V14.01,2013-08-15 00:12:00,
2013-08-14 19:13:00,79.3,68.3,29.94,East,90,0.0,0.0,69,0.00,,---,0.00,VWS V14.01,2013-08-15 00:13:00,
2013-08-14 19:14:00,79.1,68.1,29.94,East,90,0.0,0.0,69,0.00,,---,0.00,VWS V14.01,2013-08-15 00:14:00,
2013-08-14 19:15:00,79.1,68.1,29.94,East,90,0.0,0.0,69,0.00,,---,0.00,VWS V14.01,2013-08-15 00:15:00,
2013-08-14 19:16:00,79.1,68.1,29.94,East,90,0.0,0.0,69,0.00,,---,0.00,VWS V14.01,2013-08-15 00:16:00,
2013-08-14 19:17:00,79.1,68.1,29.94,East,90,0.0,0.0,69,0.00,,---,0.00,VWS V14.01,2013-08-15 00:17:00,
2013-08-14 19:18:00,78.9,67.9,29.94,East,90,0.0,0.0,69,0.00,,---,0.00,VWS V14.01,2013-08-15 00:18:00,
2013-08-14 19:19:00,78.9,68.3,29.94,East,90,0.0,0.0,70,0.00,,---,0.00,VWS V14.01,2013-08-15 00:19:00,
2013-08-14 19:20:00,78.9,68.3,29.94,East,90,0.0,0.0,70,0.00,,---,0.00,VWS V14.01,2013-08-15 00:20:00,
2013-08-14 19:21:00,78.9,68.3,29.94,East,90,0.0,0.0,70,0.00,,---,0.00,VWS V14.01,2013-08-15 00:21:00,
2013-08-14 19:22:00,78.8,68.6,29.94,East,90,0.0,0.0,71,0.00,,---,0.00,VWS V14.01,2013-08-15 00:22:00,
2013-08-14 19:23:00,78.8,68.6,29.94,East,90,0.0,0.0,71,0.00,,---,0.00,VWS V14.01,2013-08-15 00:23:00,
2013-08-14 19:24:00,78.6,68.4,29.94,East,90,0.0,0.0,71,0.00,,---,0.00,VWS V14.01,2013-08-15 00:24:00,